Date StartTime U_cm/s V_cm/s W_cm/s Ustd_cm/s Vstd_cm/s Wstd_cm/s Uvar_(cm/s)^2 Vvar_(cm/s)^2 Wvar_(cm/s)^2 KE_(m/s)^2 TurbulentKE_(m/s)^2 HorizWindSpeed_cm/s FrictionSpeec_cm/s DragCoef SpeedOfSound_m/s SonicTemperature_C Pressure_mb 
04/07/2014  00:00:00     -192.687        1.033      -25.616       67.714       72.402       38.558     4585.210     5242.064     1486.698        2.455        0.566      192.690       36.213        0.035      337.247        9.088      868.395
04/07/2014  00:01:00     -148.451       62.008      -24.415       69.214       69.009       43.018     4790.583     4762.277     1850.551        1.894        0.570      160.881       32.693        0.041      337.196        9.006      868.393
04/07/2014  00:02:00     -197.520       31.442      -37.281       45.379       65.349       34.840     2059.243     4270.537     1213.817        2.447        0.377      200.007       25.299        0.016      337.093        8.832      868.369
04/07/2014  00:03:00     -159.237      -22.273      -23.100       84.762       65.223       40.908     7184.606     4253.999     1673.498        1.975        0.656      160.787       42.555        0.070      337.125        8.886      868.341
04/07/2014  00:04:00     -170.379      -33.989      -35.788       72.468       65.547       45.009     5251.557     4296.411     2025.800        2.152        0.579      173.736       38.433        0.049      337.155        8.936      868.325
04/07/2014  00:05:00     -175.816      -40.823      -31.568       67.158       68.974       44.966     4510.255     4757.465     2021.923        2.243        0.564      180.493       28.221        0.024      337.167        8.956      868.316
04/07/2014  00:06:00     -155.580       36.857      -11.175       84.630       54.200       48.631     7162.303     2937.638     2364.968        1.907        0.623      159.886       44.237        0.077      337.320        9.214      868.319
04/07/2014  00:07:00     -173.096      -43.873      -29.389       39.448       45.128       31.511     1556.146     2036.569      992.936        1.867        0.229      178.570       12.469        0.005      337.257        9.110      868.347
04/07/2014  00:08:00     -192.020       -0.458      -26.664       72.498       75.038       40.609     5255.940     5630.716     1649.122        2.506        0.627      192.020       36.328        0.036      337.226        9.056      868.356
04/07/2014  00:09:00     -180.342       -8.415      -27.549       56.090       53.700       36.804     3146.112     2883.645     1354.547        2.037        0.369      180.538       30.209        0.028      337.269        9.128      868.384
04/07/2014  00:10:00     -196.272        8.463      -16.769       50.163       42.955       30.148     2516.364     1845.113      908.882        2.207        0.264      196.454       27.051        0.019      337.355        9.271      868.405
04/07/2014  00:11:00     -242.769      -30.735      -26.437       53.091       52.301       33.571     2818.662     2735.377     1126.992        3.363        0.334      244.707       29.471        0.015      337.307        9.190      868.415
04/07/2014  00:12:00     -191.204        6.071      -19.795       80.689       58.003       42.447     6510.792     3364.345     1801.717        2.433        0.584      191.301       41.157        0.046      337.349        9.261      868.418
04/07/2014  00:13:00     -231.556       -7.892      -32.120       51.833       31.167       29.663     2686.640      971.386      879.869        2.962        0.227      231.690       21.712        0.009      337.406        9.355      868.404
04/07/2014  00:14:00     -205.912      -29.840      -28.047       43.974       44.304       29.542     1933.734     1962.804      872.753        2.442        0.238      208.063       22.002        0.011      337.318        9.208      868.390
04/07/2014  00:15:00     -175.638      -23.775      -17.177       48.176       53.059       26.191     2320.880     2815.219      685.960        1.876        0.291      177.240       23.199        0.017      337.417        9.376      868.381
04/07/2014  00:16:00     -176.403       -9.366      -18.762       44.379       41.862       31.638     1969.533     1752.417     1000.989        1.814        0.236      176.651       23.411        0.018      337.440        9.414      868.367
04/07/2014  00:17:00     -196.715        0.326      -22.035       45.450       45.066       27.549     2065.717     2030.985      758.968        2.202        0.243      196.715       25.316        0.017      337.390        9.331      868.374
04/07/2014  00:18:00     -192.848        6.222      -20.427       27.460       35.482       16.569      754.052     1258.965      274.517        1.997        0.114      192.948       12.993        0.005      337.394        9.339      868.378
04/07/2014  00:19:00     -143.797      -13.551      -15.648       33.345       34.727       23.998     1111.876     1205.940      575.911        1.200        0.145      144.434       22.059        0.023      337.345        9.256      868.398
04/07/2014  00:20:00     -120.974      -10.186       -7.501       38.344       28.830       24.361     1470.250      831.176      593.459        0.884        0.145      121.402       25.193        0.043      337.323        9.220      868.412
04/07/2014  00:21:00      -53.298      -39.928       -1.782       23.668       18.605       14.206      560.156      346.151      201.798        0.277        0.055       66.595        9.652        0.021      337.304        9.188      868.424
04/07/2014  00:22:00      -23.058      -28.181        4.469       26.099       14.055       15.259      681.150      197.554      232.823        0.123        0.056       36.412       11.684        0.103      337.420        9.381      868.438
04/07/2014  00:23:00       -7.580      -18.775        4.272       22.812       11.473       10.737      520.404      131.638      115.291        0.060        0.038       20.247        5.726        0.080      337.463        9.454      868.447
04/07/2014  00:24:00      -12.246      -69.102       -2.822       37.477       23.996       17.288     1404.529      575.796      298.870        0.361        0.114       70.178        5.272        0.006      337.626        9.728      868.468
04/07/2014  00:25:00      102.805     -131.741      -31.332       92.899       90.748       49.129     8630.132     8235.163     2413.701        2.409        0.964      167.107       56.250        0.113      337.569        9.631      868.508
04/07/2014  00:26:00       48.493     -127.613       -7.057       55.654       63.709       38.308     3097.415     4058.868     1467.472        1.365        0.431      136.517       30.391        0.050      337.455        9.440      868.539
04/07/2014  00:27:00       24.262     -106.921      -10.368       44.250       63.325       41.651     1958.088     4010.074     1734.826        0.991        0.385      109.639       34.002        0.096      337.450        9.431      868.544
04/07/2014  00:28:00       13.588      -61.279       24.306       44.164       52.897       30.295     1950.474     2798.113      917.791        0.510        0.283       62.767       18.852        0.090      337.587        9.660      868.529
04/07/2014  00:29:00      -74.675      -45.666        7.994       42.005       39.337       26.757     1764.424     1547.431      715.921        0.588        0.201       87.531       24.561        0.079      337.575        9.642      868.486
04/07/2014  00:30:00     -129.272      -43.292       -2.574       65.446       39.366       23.120     4283.115     1549.684      534.525        1.248        0.318      136.328       28.585        0.044      337.475        9.473      868.454
04/07/2014  00:31:00     -122.699      -61.403       -5.557       50.936       23.449       23.488     2594.497      549.857      551.671        1.128        0.185      137.205       25.843        0.035      337.424        9.387      868.457
04/07/2014  00:32:00     -120.039      -32.399      -13.238       37.103       30.451       21.641     1376.648      927.293      468.338        0.920        0.139      124.334       19.305        0.024      337.433        9.404      868.451
04/07/2014  00:33:00      -95.485      -27.138       -1.794       41.108       34.868       24.000     1689.878     1215.797      576.017        0.667        0.174       99.267       23.245        0.055      337.407        9.361      868.460
04/07/2014  00:34:00      -63.716      -41.474        1.117       27.680       30.093       16.056      766.178      905.612      257.790        0.385        0.096       76.025       13.466        0.031      337.412        9.369      868.479
04/07/2014  00:35:00      -24.417      -48.593        6.545       30.353       26.616       18.258      921.278      708.386      333.340        0.248        0.098       54.383       12.163        0.050      337.414        9.372      868.524
04/07/2014  00:36:00      -28.686      -65.762        5.455       37.882       35.991       15.810     1435.049     1295.379      249.959        0.408        0.149       71.746       12.495        0.030      337.454        9.438      868.556
04/07/2014  00:37:00     -100.606     -123.849       -6.584       63.858       62.758       30.299     4077.878     3938.566      918.033        1.722        0.447      159.562       32.780        0.042      337.125        8.886      868.568
04/07/2014  00:38:00     -133.334     -106.385       -4.676       53.443       44.943       29.456     2856.117     2019.894      867.635        1.743        0.287      170.575       19.066        0.012      337.020        8.711      868.548
04/07/2014  00:39:00     -176.939      -79.693       -1.931       70.450       57.187       31.689     4963.134     3270.347     1004.162        2.345        0.462      194.058       29.688        0.023      336.902        8.512      868.512
04/07/2014  00:40:00     -157.107      -48.709       -6.680       60.454       60.889       30.895     3654.721     3707.432      954.512        1.771        0.416      164.485       30.330        0.034      336.896        8.504      868.482
04/07/2014  00:41:00     -152.127      -75.870        2.466       51.258       40.407       28.296     2627.337     1632.749      800.647        1.698        0.253      169.997       24.928        0.022      336.899        8.510      868.455
04/07/2014  00:42:00     -113.748      -36.237       11.213       65.723       62.451       39.532     4319.485     3900.086     1562.803        1.208        0.489      119.380       39.393        0.109      336.961        8.614      868.460
04/07/2014  00:43:00     -183.799      -23.666      -10.545       44.822       37.440       27.427     2009.029     1401.771      752.229        1.931        0.208      185.316       24.988        0.018      336.801        8.346      868.455
04/07/2014  00:44:00     -152.569      -53.612       -6.159       37.415       41.494       22.736     1399.908     1721.732      516.918        1.491        0.182      161.714       18.710        0.013      336.793        8.336      868.450
04/07/2014  00:45:00     -120.863      -43.669      -22.553       23.621       23.787       17.578      557.956      565.815      308.976        0.923        0.072      128.510       11.709        0.008      336.816        8.372      868.436
04/07/2014  00:46:00     -104.753      -51.749      -12.499       26.745       19.086       13.698      715.310      364.275      187.635        0.754        0.063      116.839        6.240        0.003      336.851        8.429      868.419
04/07/2014  00:47:00     -122.114      -27.576       -8.800       33.150       24.831       17.966     1098.890      616.589      322.771        0.889        0.102      125.189       14.719        0.014      336.858        8.441      868.412
04/07/2014  00:48:00      -54.947       -1.951        2.427       40.196       30.550       19.071     1615.710      933.290      363.689        0.297        0.146       54.982       18.621        0.115      337.023        8.718      868.410
04/07/2014  00:49:00      -56.042      -26.403        2.494       45.343       44.756       26.134     2056.016     2003.136      682.995        0.429        0.237       61.950       24.650        0.158      336.894        8.501      868.420
04/07/2014  00:50:00       15.178      -40.296       10.566       19.651       22.808       22.228      386.154      520.224      494.082        0.168        0.070       43.060       12.122        0.079      336.704        8.185      868.433
04/07/2014  00:51:00      -54.733      -21.312       -3.902       32.521       34.468       19.023     1057.596     1188.034      361.870        0.304        0.130       58.736       15.684        0.071      336.643        8.086      868.440
04/07/2014  00:52:00      -77.427      -32.346      -14.483       39.868       49.260       23.872     1589.437     2426.596      569.862        0.592        0.229       83.912       25.700        0.094      336.809        8.361      868.431
04/07/2014  00:53:00      -93.782      -65.231       -1.582       52.937       33.081       24.256     2802.283     1094.365      588.337        0.877        0.224      114.237       28.077        0.060      336.656        8.106      868.413
04/07/2014  00:54:00     -113.749      -76.842      -12.096       41.758       40.490       25.395     1743.705     1639.471      644.902        1.151        0.201      137.272       16.013        0.014      336.615        8.036      868.386
04/07/2014  00:55:00     -147.920      -58.433      -13.717       36.614       54.302       23.205     1340.571     2948.747      538.470        1.515        0.241      159.043       23.053        0.021      336.559        7.943      868.368
04/07/2014  00:56:00     -144.893      -58.317       -2.219       42.046       44.157       21.877     1767.852     1949.806      478.598        1.430        0.210      156.188       17.375        0.012      336.504        7.850      868.365
04/07/2014  00:57:00     -167.696       -4.973      -16.792       53.015       37.878       31.207     2810.637     1434.706      973.895        1.682        0.261      167.769       29.885        0.032      336.552        7.929      868.378
04/07/2014  00:58:00     -127.598        3.191      -13.333       37.838       40.478       25.204     1431.703     1638.478      635.252        1.009        0.185      127.638       21.093        0.027      336.642        8.081      868.373
04/07/2014  00:59:00     -101.490      -29.586      -22.166       26.374       34.748       21.334      695.607     1207.396      455.121        0.701        0.118      105.715       19.219        0.033      336.688        8.158      868.377
04/07/2014  01:00:00      -59.784      -41.727      -11.245       51.732       39.048       16.604     2676.184     1524.726      275.702        0.496        0.224       72.905       22.370        0.094      336.651        8.096      868.380
04/07/2014  01:01:00     -119.797      -50.081      -16.841       58.082       28.835       18.351     3373.521      831.459      336.756        1.084        0.227      129.844       21.620        0.028      336.573        7.968      868.378
04/07/2014  01:02:00     -126.715      -61.227       -3.326       22.185       29.064       17.439      492.181      844.740      304.102        1.073        0.082      140.732        9.968        0.005      336.574        7.968      868.373
04/07/2014  01:03:00     -115.907      -63.383       -5.647       41.120       27.793       18.130     1690.825      772.468      328.708        1.014        0.140      132.105       14.613        0.012      336.619        8.044      868.373
04/07/2014  01:04:00     -139.642      -86.809       -2.460       47.490       30.218       21.394     2255.260      913.133      457.697        1.533        0.181      164.425       20.452        0.015      336.629        8.059      868.374
04/07/2014  01:05:00     -145.491      -60.699       -7.604       30.357       36.441       20.453      921.574     1327.913      418.335        1.379        0.133      157.645       16.285        0.011      336.645        8.088      868.371
04/07/2014  01:06:00     -158.709      -51.213      -15.390       34.501       21.129       19.204     1190.305      446.422      368.812        1.503        0.100      166.768       19.568        0.014      336.718        8.209      868.364
04/07/2014  01:07:00     -135.592      -33.610       -4.323       26.380       32.310       18.322      695.909     1043.905      335.703        1.080        0.104      139.696       13.338        0.009      336.744        8.253      868.349
04/07/2014  01:08:00     -151.905      -35.277      -11.827       30.895       23.925       15.484      954.512      572.421      239.757        1.311        0.088      155.948       14.167        0.008      336.656        8.106      868.328
04/07/2014  01:09:00     -161.233      -21.941      -20.888       24.533       31.223       21.770      601.851      974.893      473.949        1.448        0.103      162.719       14.844        0.008      336.810        8.362      868.306
04/07/2014  01:10:00     -138.389      -15.508       -9.266       67.533       38.922       27.333     4560.715     1514.910      747.091        1.315        0.341      139.256       32.269        0.054      336.786        8.322      868.293
04/07/2014  01:11:00     -184.649        7.816      -14.905       44.819       41.842       25.403     2008.759     1750.727      645.325        1.939        0.220      184.814       22.465        0.015      336.774        8.301      868.277
04/07/2014  01:12:00     -191.970       14.322      -19.077       39.283       37.774       22.510     1543.159     1426.855      506.712        2.045        0.174      192.504       15.427        0.006      336.719        8.209      868.277
04/07/2014  01:13:00     -168.616      -18.665      -18.913       68.929       55.493       30.537     4751.240     3079.508      932.520        1.895        0.438      169.646       31.683        0.035      336.654        8.098      868.270
04/07/2014  01:14:00     -143.575      -25.628       -5.945       49.640       49.803       27.774     2464.111     2480.293      771.413        1.351        0.286      145.844       25.466        0.030      336.695        8.170      868.260
04/07/2014  01:15:00     -177.419      -26.004      -12.646       71.204       47.763       32.304     5070.049     2281.274     1043.532        2.035        0.420      179.314       35.221        0.039      336.429        7.722      868.249
04/07/2014  01:16:00     -150.078      -21.292      -11.595       44.341       56.443       29.508     1966.164     3185.811      870.739        1.457        0.301      151.581       19.328        0.016      336.624        8.050      868.241
04/07/2014  01:17:00     -204.633        2.402      -20.358       66.074       46.462       34.937     4365.744     2158.732     1220.583        2.502        0.387      204.647       36.570        0.032      336.488        7.820      868.243
04/07/2014  01:18:00     -157.967      -25.221      -17.073       77.328       55.201       36.021     5979.669     3047.133     1297.546        1.810        0.516      159.968       38.904        0.059      336.460        7.775      868.240
04/07/2014  01:19:00     -155.929      -37.997      -11.470       58.154       48.468       33.222     3381.938     2349.185     1103.707        1.636        0.342      160.492       34.924        0.047      336.419        7.707      868.239
04/07/2014  01:20:00     -197.219      -10.113      -15.750       67.159       50.717       34.992     4510.301     2572.169     1224.468        2.377        0.415      197.478       37.049        0.035      336.454        7.764      868.239
04/07/2014  01:21:00     -163.466      -28.405      -10.232       60.040       49.187       40.790     3604.790     2419.336     1663.826        1.766        0.384      165.916       36.995        0.050      336.419        7.707      868.245
04/07/2014  01:22:00     -125.441      -69.562       -3.127       51.993       42.659       30.782     2703.301     1819.748      947.539        1.303        0.274      143.437       20.430        0.020      336.449        7.757      868.259
04/07/2014  01:23:00     -168.072      -30.673      -17.252       61.595       33.305       24.128     3793.891     1109.192      582.152        1.748        0.274      170.848       21.735        0.016      336.403        7.679      868.268
04/07/2014  01:24:00     -142.109      -18.836       -3.138       45.841       31.022       19.297     2101.399      962.369      372.369        1.200        0.172      143.352       20.032        0.020      336.362        7.611      868.279
04/07/2014  01:25:00     -105.130      -48.750        0.759       60.249       47.574       24.951     3629.964     2263.311      622.551        0.997        0.326      115.883       26.701        0.053      336.371        7.629      868.291
04/07/2014  01:26:00     -156.245      -40.600       -6.712       53.225       28.443       19.317     2832.886      809.020      373.133        1.506        0.201      161.434       23.060        0.020      336.375        7.634      868.298
04/07/2014  01:27:00     -158.602      -31.691       -9.411       33.131       27.741       23.426     1097.654      769.552      548.786        1.433        0.121      161.737       13.060        0.007      336.422        7.711      868.293
04/07/2014  01:28:00     -166.635      -47.209      -15.537       51.368       40.991       26.986     2638.646     1680.240      728.235        1.764        0.252      173.193       27.678        0.026      336.464        7.782      868.291
04/07/2014  01:29:00      -98.769      -32.685       -0.214       55.003       27.552       25.695     3025.324      759.097      660.256        0.763        0.222      104.037       29.202        0.079      336.522        7.881      868.303
04/07/2014  01:30:00      -73.450      -61.573       -5.065       31.041       24.051       17.221      963.536      578.431      296.550        0.552        0.092       95.844        9.137        0.009      336.712        8.198      868.309
04/07/2014  01:31:00      -53.895      -38.128       -5.787       32.909       18.108       14.107     1082.991      327.917      199.008        0.300        0.080       66.018       14.683        0.049      336.729        8.227      868.313
04/07/2014  01:32:00      -33.859      -38.359        3.861       31.565       14.844       14.957      996.341      220.342      223.703        0.204        0.072       51.165       17.769        0.121      336.738        8.242      868.320
04/07/2014  01:33:00      -25.599      -40.825        4.003       35.033       17.179       14.482     1227.286      295.106      209.726        0.203        0.087       48.186       15.421        0.102      336.845        8.419      868.330
04/07/2014  01:34:00      -80.041      -40.246       -4.002       14.827       12.541        9.915      219.836      157.273       98.298        0.426        0.024       89.589        6.714        0.006      336.718        8.209      868.329
04/07/2014  01:35:00      -90.880      -45.556       -7.070       28.160       15.167       14.056      792.988      230.045      197.559        0.580        0.061      101.659        8.834        0.008      336.688        8.158      868.317
04/07/2014  01:36:00      -92.883      -54.160       -3.143       26.986       21.516       18.251      728.223      462.959      333.100        0.655        0.076      107.520       16.297        0.023      336.641        8.080      868.301
04/07/2014  01:37:00     -113.165      -49.957       -3.683       22.560       22.196       13.646      508.970      492.656      186.221        0.825        0.059      123.702        8.302        0.005      336.566        7.954      868.289
04/07/2014  01:38:00      -97.075      -46.709       -2.422       25.778       18.979       14.743      664.517      360.221      217.347        0.643        0.062      107.728       15.493        0.021      336.519        7.874      868.292
04/07/2014  01:39:00      -32.494      -24.875       12.663       57.719       25.624       19.696     3331.483      656.598      387.924        0.310        0.219       40.922       24.525        0.359      336.530        7.893      868.302
04/07/2014  01:40:00      -65.234      -48.441        0.798       47.734       23.648       20.573     2278.533      559.211      423.228        0.493        0.163       81.252       25.076        0.095      336.551        7.930      868.312
04/07/2014  01:41:00      -51.646      -45.436        9.056       51.656       29.152       22.399     2668.303      849.831      501.725        0.442        0.201       68.788       27.070        0.155      336.500        7.843      868.323
04/07/2014  01:42:00      -17.206      -31.449       16.919       38.465       23.105       21.685     1479.579      533.849      470.237        0.203        0.124       35.848       17.091        0.227      336.522        7.881      868.337
04/07/2014  01:43:00      -43.624      -74.510        8.701       42.894       45.663       24.080     1839.859     2085.127      579.835        0.602        0.225       86.341       26.761        0.096      336.594        8.000      868.352
04/07/2014  01:44:00      -46.223      -71.893        4.476       57.682       39.816       27.048     3327.211     1585.350      731.600        0.648        0.282       85.470       17.533        0.042      336.492        7.832      868.363
04/07/2014  01:45:00      -54.021      -39.300        9.192       51.665       34.403       23.115     2669.263     1183.600      534.298        0.447        0.219       66.803       20.037        0.090      336.470        7.792      868.379
04/07/2014  01:46:00      -70.632      -61.360        1.430       37.320       52.276       22.743     1392.790     2732.832      517.266        0.670        0.232       93.562       18.510        0.039      336.460        7.777      868.390
04/07/2014  01:47:00      -81.013     -121.667       -5.420       41.240       49.430       27.683     1700.718     2443.300      766.365        1.315        0.246      146.171       20.851        0.020      336.438        7.740      868.402
04/07/2014  01:48:00     -121.420     -127.017       -5.911       53.094       29.188       28.562     2818.997      851.927      815.785        1.770        0.224      175.716       28.725        0.027      336.275        7.467      868.401
04/07/2014  01:49:00      -59.208      -52.326        2.822       48.053       30.280       25.225     2309.133      916.866      636.284        0.506        0.193       79.016       23.572        0.089      336.336        7.569      868.390
04/07/2014  01:50:00      -44.166      -35.082        3.834       46.476       27.508       26.823     2160.062      756.713      719.449        0.342        0.182       56.404       23.364        0.172      336.297        7.504      868.378
04/07/2014  01:51:00      -69.718      -63.015       -9.627       33.561       39.350       23.343     1126.355     1548.444      544.892        0.607        0.161       93.976       16.590        0.031      336.221        7.377      868.378
04/07/2014  01:52:00      -21.542      -51.228       10.134       28.795       30.979       19.594      829.149      959.668      383.912        0.268        0.109       55.573       14.285        0.066      336.230        7.391      868.397
04/07/2014  01:53:00      -28.640      -38.061       -0.444       49.714       16.678       16.318     2471.501      278.144      266.282        0.264        0.151       47.633       10.798        0.051      336.311        7.527      868.421
04/07/2014  01:54:00      -38.162      -53.476       -0.375       31.362       24.261       19.690      983.595      588.603      387.695        0.314        0.098       65.696       14.100        0.046      336.336        7.570      868.438
04/07/2014  01:55:00      -84.327      -50.240      -10.776       32.425       30.713       18.192     1051.399      943.269      330.934        0.604        0.116       98.158       15.516        0.025      336.284        7.483      868.446
04/07/2014  01:56:00      -80.552      -54.000        5.988       43.227       31.477       26.476     1868.534      990.804      700.962        0.650        0.178       96.977       18.582        0.037      336.150        7.258      868.445
04/07/2014  01:57:00     -106.822      -65.720        2.102       47.886       44.127       25.055     2293.073     1947.205      627.752        1.030        0.243      125.419       23.783        0.036      336.070        7.125      868.439
04/07/2014  01:58:00      -99.627      -52.930        4.535       46.911       37.209       27.204     2200.612     1384.504      740.073        0.854        0.216      112.815       23.979        0.045      336.073        7.129      868.427
04/07/2014  01:59:00     -104.515      -51.654       -4.302       30.822       23.729       15.714      950.014      563.074      246.936        0.768        0.088      116.582       14.058        0.015      336.121        7.208      868.421
04/07/2014  02:00:00      -90.623      -26.053       -2.500       29.280       38.654       21.162      857.309     1494.158      447.820        0.585        0.140       94.293       17.010        0.033      336.155        7.266      868.425
04/07/2014  02:01:00      -57.811      -19.720       -2.303       26.174       19.273       14.504      685.090      371.463      210.367        0.250        0.063       61.082       14.165        0.054      336.127        7.219      868.434
04/07/2014  02:02:00      -82.846      -14.055       -5.036       29.751       26.845       13.320      885.103      720.667      177.417        0.443        0.089       84.030        7.346        0.008      336.089        7.156      868.440
04/07/2014  02:03:00      -83.821      -20.556       -8.245       18.436       17.125       12.104      339.895      293.270      146.501        0.415        0.039       86.304        6.140        0.005      336.055        7.099      868.444
04/07/2014  02:04:00      -58.024      -16.184       -2.618       37.695       17.453       15.950     1420.949      304.624      254.395        0.281        0.099       60.238       20.848        0.120      336.019        7.039      868.446
04/07/2014  02:05:00      -59.336       -6.629       -0.309       26.534       20.699       12.273      704.035      428.459      150.630        0.242        0.064       59.705        5.180        0.008      336.107        7.186      868.445
04/07/2014  02:06:00      -88.484      -15.019      -10.263       32.309       27.713       15.811     1043.856      768.011      249.998        0.511        0.103       89.750       15.166        0.029      336.140        7.242      868.444
04/07/2014  02:07:00      -73.924      -13.221       -8.378       24.985       22.308       12.237      624.267      497.637      149.734        0.349        0.064       75.097        9.711        0.017      336.113        7.197      868.441
04/07/2014  02:08:00      -59.584       10.680       -8.602       28.804       29.505       20.118      829.643      870.558      404.733        0.292        0.105       60.533       11.786        0.038      336.076        7.135      868.437
04/07/2014  02:09:00      -79.112       11.430      -10.326       29.317       20.835       14.807      859.513      434.108      219.257        0.400        0.076       79.933       10.508        0.017      336.102        7.177      868.423
04/07/2014  02:10:00      -62.129      -11.968       -6.910       25.813       24.204       13.267      666.306      585.827      176.026        0.274        0.071       63.272       10.256        0.026      336.051        7.093      868.396
04/07/2014  02:11:00      -58.395       -4.674       -9.327       37.240       19.458       15.910     1386.851      378.606      253.128        0.277        0.101       58.582       14.238        0.059      335.979        6.971      868.367
04/07/2014  02:12:00      -85.710      -25.506       -4.315       23.680       24.257       20.372      560.737      588.391      415.007        0.479        0.078       89.425       14.834        0.028      335.971        6.959      868.367
04/07/2014  02:13:00      -88.435        4.368       -4.689       23.464       25.338       19.146      550.544      641.990      366.581        0.471        0.078       88.543       12.473        0.020      335.927        6.886      868.379
04/07/2014  02:14:00      -58.050      -33.542      -11.509       23.632       18.012       15.127      558.482      324.415      228.824        0.287        0.056       67.044       10.690        0.025      335.881        6.810      868.405
04/07/2014  02:15:00      -75.373      -29.715      -11.722       19.053       23.381       12.927      363.011      546.665      167.108        0.389        0.054       81.019       11.870        0.021      335.941        6.911      868.426
04/07/2014  02:16:00      -75.144      -21.087       -7.059       20.310       24.321       12.870      412.494      591.523      165.644        0.366        0.058       78.046        9.589        0.015      335.903        6.846      868.439
04/07/2014  02:17:00      -85.012      -30.947       -6.060       21.455       18.255       11.521      460.321      333.248      132.724        0.457        0.046       90.470        6.904        0.006      335.891        6.828      868.436
04/07/2014  02:18:00     -122.686      -61.410      -14.721       22.591       17.846       13.319      510.331      318.484      177.402        1.002        0.050      137.197        7.251        0.003      335.793        6.664      868.427
04/07/2014  02:19:00     -101.921      -60.369       -8.292       30.872       21.927       18.737      953.080      480.814      351.092        0.794        0.089      118.458       17.044        0.021      335.798        6.672      868.427
04/07/2014  02:20:00     -102.302      -73.786       -5.936       21.533       22.208       14.315      463.682      493.188      204.921        0.855        0.058      126.136        6.947        0.003      335.850        6.758      868.419
04/07/2014  02:21:00     -106.079      -52.399       -7.781       23.828       30.608       14.373      567.797      936.851      206.587        0.788        0.086      118.315       10.732        0.008      335.854        6.764      868.407
04/07/2014  02:22:00      -89.456      -31.416       -1.099       34.881       30.594       15.500     1216.684      935.995      240.246        0.569        0.120       94.813       14.846        0.025      335.877        6.803      868.409
04/07/2014  02:23:00      -76.295      -29.276        2.655       25.512       20.838       12.933      650.887      434.221      167.266        0.397        0.063       81.719       13.456        0.027      335.880        6.809      868.420
04/07/2014  02:24:00      -75.884      -27.224       -5.067       28.099       18.525       10.728      789.536      343.180      115.089        0.389        0.062       80.620        9.274        0.013      335.955        6.932      868.416
04/07/2014  02:25:00     -100.399      -16.892       -4.745       31.122       20.050       16.763      968.586      402.022      281.014        0.602        0.083      101.810       18.338        0.032      335.987        6.986      868.396
04/07/2014  02:26:00     -108.080      -23.270       -1.236       28.084       18.467       16.944      788.700      341.019      287.098        0.682        0.071      110.557       16.868        0.023      335.956        6.934      868.393
04/07/2014  02:27:00     -114.696      -29.301       -6.506       17.060       14.071       10.364      291.051      197.982      107.409        0.733        0.030      118.380        9.242        0.006      335.911        6.859      868.394
04/07/2014  02:28:00     -106.813      -20.002       -9.725       22.726       22.985       14.285      516.449      528.301      204.050        0.658        0.062      108.670       13.237        0.015      335.868        6.788      868.396
04/07/2014  02:29:00      -86.253      -33.650       -2.972       22.545       18.365       12.856      508.277      337.256      165.268        0.480        0.051       92.584       13.304        0.021      335.806        6.684      868.418
04/07/2014  02:30:00      -57.968      -43.339       -1.133       22.296       13.228       11.811      497.119      174.981      139.496        0.303        0.041       72.378       13.006        0.032      335.833        6.730      868.447
04/07/2014  02:31:00      -74.202      -37.546       -7.353       20.275       13.899       12.153      411.094      193.176      147.691        0.386        0.038       83.160        7.624        0.008      335.825        6.716      868.447
04/07/2014  02:32:00      -24.234      -28.135        7.850       31.762       18.402       17.024     1008.846      338.629      289.821        0.154        0.082       37.133       11.783        0.101      335.858        6.773      868.452
04/07/2014  02:33:00      -30.695      -31.920        8.069       28.414       17.377       19.141      807.345      301.969      366.387        0.175        0.074       44.284       15.225        0.118      335.887        6.819      868.468
04/07/2014  02:34:00      -57.706      -65.625        4.260       35.487       29.768       24.817     1259.344      886.116      615.864        0.521        0.138       87.388       23.928        0.075      335.902        6.845      868.466
04/07/2014  02:35:00      -97.138      -81.656       -4.725       22.753       27.798       16.432      517.706      772.754      270.010        0.884        0.078      126.900       15.652        0.015      335.883        6.813      868.470
04/07/2014  02:36:00      -92.030      -52.310        0.780       42.744       26.498       20.364     1827.075      702.159      414.673        0.707        0.147      105.858       18.888        0.032      335.930        6.891      868.454
04/07/2014  02:37:00      -94.513      -52.224       -6.996       24.984       23.080       19.168      624.215      532.704      367.427        0.662        0.076      107.982       13.297        0.015      335.788        6.656      868.446
04/07/2014  02:38:00     -108.063      -51.103       -4.577       19.500       17.274       13.947      380.255      298.380      194.528        0.759        0.044      119.537        8.585        0.005      335.804        6.683      868.448
04/07/2014  02:39:00      -93.804      -24.566      -15.460       19.203       15.781       15.553      368.742      249.046      241.881        0.525        0.043       96.968       12.836        0.018      335.815        6.702      868.441
04/07/2014  02:40:00     -103.431      -37.437       -9.532       13.642       11.842       11.114      186.107      140.226      123.513        0.632        0.022      109.998        6.358        0.003      335.806        6.685      868.441
04/07/2014  02:41:00     -127.026      -34.411       -6.570       18.667       18.675       13.102      348.457      348.773      171.670        0.912        0.043      131.605        8.023        0.004      335.799        6.673      868.453
04/07/2014  02:42:00     -130.782      -54.782       -6.156       28.437       25.311       21.908      808.678      640.629      479.960        1.104        0.096      141.792       19.080        0.018      335.746        6.585      868.455
04/07/2014  02:43:00     -120.124      -37.441      -10.416       20.199       26.751       16.516      408.014      715.592      272.775        0.867        0.070      125.824        4.018        0.001      335.697        6.504      868.455
04/07/2014  02:44:00     -149.497      -41.445      -10.197       17.734       23.774       13.210      314.503      565.184      174.503        1.261        0.053      155.136        9.115        0.003      335.685        6.485      868.464
04/07/2014  02:45:00     -134.885      -57.312       -7.968       23.389       25.029       16.238      547.052      626.454      263.658        1.149        0.072      146.556       15.169        0.011      335.629        6.390      868.463
04/07/2014  02:46:00     -122.048      -62.873       -6.191       24.292       23.068       13.806      590.081      532.117      190.613        1.010        0.066      137.291       12.144        0.008      335.637        6.404      868.452
04/07/2014  02:47:00     -128.350      -52.801      -11.829       12.280       22.007       13.335      150.804      484.305      177.825        1.011        0.041      138.786        6.854        0.002      335.573        6.297      868.446
04/07/2014  02:48:00     -109.386      -45.205      -10.690       30.345       23.627       17.863      920.818      558.215      319.092        0.796        0.090      118.358       10.860        0.008      335.570        6.292      868.435
04/07/2014  02:49:00      -98.657      -51.697      -11.942       30.528       27.471       24.828      931.947      754.639      616.434        0.743        0.115      111.381       15.356        0.019      335.557        6.269      868.420
04/07/2014  02:50:00      -60.019      -30.525       -8.481       70.347       33.914       23.428     4948.734     1150.160      548.877        0.563        0.332       67.335       14.792        0.048      335.566        6.286      868.419
04/07/2014  02:51:00      -27.067      -35.567       -3.749       55.620       30.470       20.112     3093.607      928.432      404.490        0.322        0.221       44.695       12.233        0.075      335.568        6.289      868.432
04/07/2014  02:52:00      -76.622      -39.701       -7.159       55.588       22.810       16.625     3090.003      520.296      276.398        0.569        0.194       86.297       16.620        0.037      335.611        6.361      868.429
04/07/2014  02:53:00      -43.782      -46.177        0.422       53.415       27.456       23.667     2853.203      753.805      560.140        0.411        0.208       63.633       27.748        0.190      335.578        6.306      868.443
04/07/2014  02:54:00      -65.347      -39.616       -0.396       37.809       27.755       17.174     1429.515      770.357      294.938        0.417        0.125       76.418       16.485        0.047      335.650        6.426      868.463
04/07/2014  02:55:00       -6.740      -24.313       10.421       25.108       24.709       17.659      630.399      610.536      311.856        0.115        0.078       25.230       17.960        0.507      335.651        6.428      868.477
04/07/2014  02:56:00      -71.886      -33.104      -18.284       28.610       23.368       15.811      818.515      546.082      249.996        0.411        0.081       79.142       13.651        0.030      335.686        6.486      868.482
04/07/2014  02:57:00      -75.560      -54.619      -21.179       29.467       25.087       20.461      868.325      629.348      418.650        0.553        0.096       93.233       14.720        0.025      335.680        6.475      868.503
04/07/2014  02:58:00     -104.173      -59.729       -7.823       19.629       18.180       13.076      385.281      330.520      170.989        0.768        0.044      120.082        9.789        0.007      335.619        6.373      868.514
04/07/2014  02:59:00      -67.506      -54.109        3.227       30.171       27.253       21.270      910.271      742.727      452.424        0.480        0.105       86.515       16.218        0.035      335.648        6.423      868.518
04/07/2014  03:00:00      -68.798      -35.688        1.921       35.218       27.497       19.359     1240.291      756.078      374.762        0.419        0.119       77.504       20.194        0.068      335.642        6.413      868.524
04/07/2014  03:01:00      -92.692      -60.351        3.719       37.228       31.323       20.529     1385.930      981.131      421.432        0.752        0.139      110.608       11.646        0.011      335.687        6.488      868.507
04/07/2014  03:02:00      -76.397      -42.486        8.523       55.156       33.883       26.235     3042.181     1148.073      688.269        0.630        0.244       87.416       31.857        0.133      335.597        6.338      868.484
04/07/2014  03:03:00      -85.710      -63.835       -5.719       45.413       32.356       24.769     2062.324     1046.912      613.509        0.759        0.186      106.870       23.999        0.050      335.553        6.264      868.477
04/07/2014  03:04:00      -80.574      -68.728        7.037       48.460       29.112       23.617     2348.415      847.536      557.764        0.751        0.188      105.904       26.154        0.061      335.580        6.309      868.477
04/07/2014  03:05:00      -83.551      -69.133        3.674       42.973       32.878       22.682     1846.657     1080.939      514.464        0.761        0.172      108.444       19.851        0.034      335.578        6.306      868.479
04/07/2014  03:06:00     -106.955      -62.188       -1.701       28.929       21.368       19.161      836.869      456.610      367.152        0.848        0.083      123.720       13.434        0.012      335.559        6.273      868.492
04/07/2014  03:07:00      -92.585      -44.367        2.993       17.910       21.080       15.748      320.784      444.353      247.992        0.578        0.051      102.667       11.456        0.012      335.562        6.279      868.497
04/07/2014  03:08:00      -23.393      -20.405        6.480       23.494       20.538       15.325      551.988      421.820      234.857        0.111        0.060       31.042       12.262        0.156      335.652        6.429      868.503
04/07/2014  03:09:00      -39.253      -22.507       -3.157       23.917       19.969        9.552      572.038      398.757       91.244        0.156        0.053       45.248        9.650        0.045      335.668        6.456      868.511
04/07/2014  03:10:00      -73.359      -43.105       -6.181       28.220       20.157       12.415      796.360      406.309      154.134        0.432        0.068       85.086       10.314        0.015      335.705        6.517      868.499
04/07/2014  03:11:00      -83.608      -53.509       -0.850       27.478       16.820       15.474      755.036      282.908      239.438        0.557        0.064       99.265       14.372        0.021      335.661        6.443      868.481
04/07/2014  03:12:00      -75.272      -42.699       -7.757       21.899       21.199       13.802      479.547      449.386      190.506        0.433        0.056       86.540        9.942        0.013      335.605        6.352      868.470
04/07/2014  03:13:00      -71.862      -43.027      -10.681       21.942       14.074       11.230      481.447      198.086      126.123        0.397        0.040       83.759        5.763        0.005      335.577        6.304      868.482
04/07/2014  03:14:00      -62.478      -38.710       -9.872       17.212       11.697       12.211      296.256      136.810      149.106        0.304        0.029       73.498        8.340        0.013      335.570        6.292      868.493
04/07/2014  03:15:00      -59.021      -45.571       -3.700       31.465       22.914       15.634      990.058      525.039      244.420        0.367        0.088       74.567       15.277        0.042      335.601        6.344      868.499
04/07/2014  03:16:00      -84.948      -54.259        0.894       31.163       24.213       21.267      971.112      586.253      452.290        0.608        0.100      100.798       16.982        0.028      335.487        6.154      868.506
04/07/2014  03:17:00      -61.688      -42.091        8.405       33.444       25.015       19.153     1118.488      625.772      366.819        0.388        0.106       74.680       16.861        0.051      335.474        6.132      868.504
04/07/2014  03:18:00      -58.008      -45.396        8.946       53.124       35.957       25.563     2822.182     1292.899      653.462        0.514        0.238       73.660       28.477        0.149      335.462        6.112      868.486
04/07/2014  03:19:00     -119.457      -73.998       -4.513       52.890       32.514       27.101     2797.333     1057.168      734.481        1.218        0.229      140.519       25.830        0.034      335.529        6.224      868.469
04/07/2014  03:20:00     -116.248      -74.214       -7.182       40.926       40.417       28.167     1674.975     1633.504      793.357        1.159        0.205      137.917       28.901        0.044      335.559        6.272      868.436
04/07/2014  03:21:00     -120.906      -51.740       -1.909       31.751       30.177       18.347     1008.143      910.649      336.606        0.978        0.113      131.511       17.143        0.017      335.558        6.272      868.404
04/07/2014  03:22:00     -129.371      -18.081      -11.428       29.464       23.131       20.293      868.107      535.021      411.811        0.950        0.091      130.629       16.905        0.017      335.478        6.138      868.401
04/07/2014  03:23:00     -142.789      -34.492       -6.049       22.407       24.176       16.609      502.078      584.481      275.874        1.149        0.068      146.896       13.459        0.008      335.388        5.988      868.419
04/07/2014  03:24:00     -134.133      -69.637        1.126       32.790       29.626       24.639     1075.172      877.694      607.098        1.270        0.128      151.132       23.025        0.023      335.397        6.003      868.456
04/07/2014  03:25:00     -129.966      -44.506        2.400       33.817       36.961       23.774     1143.563     1366.148      565.222        1.098        0.154      137.375       17.219        0.016      335.494        6.166      868.471
04/07/2014  03:26:00     -107.280      -72.381        2.776       39.705       36.606       22.589     1576.512     1339.986      510.262        1.009        0.171      129.414       20.521        0.025      335.513        6.197      868.482
04/07/2014  03:27:00      -49.173      -57.400        9.375       43.974       33.093       24.325     1933.725     1095.152      591.729        0.471        0.181       75.583       16.693        0.049      335.627        6.386      868.495
04/07/2014  03:28:00     -130.145      -87.528        1.281       47.968       38.658       24.927     2300.945     1494.415      621.351        1.451        0.221      156.841       22.915        0.021      335.554        6.266      868.477
04/07/2014  03:29:00     -112.563      -63.602        2.986       62.145       40.678       24.438     3862.003     1654.721      597.238        1.142        0.306      129.289       28.317        0.048      335.490        6.158      868.441
04/07/2014  03:30:00     -140.456      -56.314       -5.827       31.086       26.503       17.792      966.329      702.416      316.553        1.246        0.099      151.325       15.946        0.011      335.447        6.087      868.426
04/07/2014  03:31:00     -126.379      -63.809      -11.772       20.857       29.851       18.238      435.018      891.077      332.616        1.092        0.083      141.574       13.848        0.010      335.516        6.202      868.418
04/07/2014  03:32:00     -125.720      -30.059      -13.075       32.033       27.477       20.931     1026.103      754.967      438.111        0.955        0.111      129.264       19.443        0.023      335.391        5.993      868.410
04/07/2014  03:33:00     -104.200      -23.636        1.143       33.960       30.560       18.192     1153.250      933.889      330.964        0.692        0.121      106.847       18.756        0.031      335.362        5.944      868.419
04/07/2014  03:34:00     -139.197      -54.324       -6.104       21.983       20.573       14.305      483.234      423.268      204.627        1.174        0.056      149.422        5.751        0.001      335.390        5.991      868.429
04/07/2014  03:35:00     -144.253      -53.605       -1.226       32.325       31.313       22.233     1044.919      980.483      494.323        1.310        0.126      153.891       18.030        0.014      335.358        5.939      868.450
04/07/2014  03:36:00     -122.519      -62.180       -1.207       38.754       31.066       25.456     1501.852      965.105      648.011        1.100        0.156      137.395       22.271        0.026      335.387        5.986      868.461
04/07/2014  03:37:00      -82.969      -47.082        5.634       61.930       34.175       23.615     3835.359     1167.923      557.645        0.735        0.278       95.397       27.566        0.083      335.375        5.966      868.466
04/07/2014  03:38:00      -57.685      -43.554       10.556       46.474       37.930       25.669     2159.824     1438.670      658.881        0.480        0.213       72.280       20.640        0.082      335.355        5.934      868.472
04/07/2014  03:39:00      -73.391      -60.576        4.664       40.663       31.024       23.957     1653.501      962.511      573.960        0.613        0.159       95.161       19.986        0.044      335.343        5.913      868.477
04/07/2014  03:40:00      -81.774      -49.444        3.958       45.279       32.700       29.658     2050.147     1069.317      879.613        0.657        0.200       95.560       25.191        0.069      335.324        5.881      868.458
04/07/2014  03:41:00      -79.781      -66.421        3.489       59.099       39.739       28.071     3492.657     1579.174      788.007        0.832        0.293      103.811       32.952        0.101      335.344        5.915      868.430
04/07/2014  03:42:00      -95.584      -65.026        0.981       44.365       30.050       25.371     1968.277      902.979      643.701        0.844        0.176      115.606       16.775        0.021      335.310        5.858      868.403
04/07/2014  03:43:00     -115.451      -71.117       -2.900       33.579       25.135       25.512     1127.544      631.745      650.877        1.040        0.121      135.597       13.370        0.010      335.228        5.722      868.401
04/07/2014  03:44:00      -68.936      -49.983        3.329       57.471       29.166       22.140     3302.940      850.629      490.192        0.595        0.232       85.150       22.322        0.069      335.356        5.935      868.394
04/07/2014  03:45:00      -53.202      -57.351        1.449       54.510       47.467       30.214     2971.360     2253.123      912.872        0.613        0.307       78.227       28.875        0.136      335.325        5.882      868.389
04/07/2014  03:46:00      -66.908      -58.762       11.863       62.324       46.429       29.992     3884.250     2155.640      899.514        0.750        0.347       89.049       28.626        0.103      335.307        5.852      868.395
04/07/2014  03:47:00      -73.144      -65.208        5.726       49.805       41.992       27.529     2480.542     1763.370      757.840        0.732        0.250       97.990       25.384        0.067      335.304        5.848      868.414
04/07/2014  03:48:00      -81.845      -53.052       10.787       55.663       28.720       22.092     3098.410      824.864      488.077        0.702        0.221       97.535       22.403        0.053      335.304        5.848      868.447
04/07/2014  03:49:00      -98.532      -80.495        0.107       53.422       36.732       25.343     2853.922     1349.217      642.258        1.052        0.242      127.232       17.876        0.020      335.320        5.875      868.468
04/07/2014  03:50:00     -112.764     -113.454        0.447       60.256       41.429       33.855     3630.777     1716.387     1146.175        1.604        0.325      159.961       34.364        0.046      335.244        5.749      868.484
04/07/2014  03:51:00     -100.298      -98.570        0.321       57.835       55.907       34.464     3344.894     3125.603     1187.771        1.372        0.383      140.626       34.804        0.061      335.186        5.653      868.488
04/07/2014  03:52:00     -124.109      -96.938       -5.716       52.715       41.067       23.569     2778.843     1686.479      555.474        1.493        0.251      157.480       17.908        0.013      335.188        5.657      868.480
04/07/2014  03:53:00     -125.274      -87.620        0.494       50.071       37.426       26.648     2507.111     1400.728      710.110        1.399        0.231      152.875       23.120        0.023      335.146        5.586      868.457
04/07/2014  03:54:00      -89.171      -73.231       -1.266       45.878       33.223       22.304     2104.752     1103.745      497.475        0.851        0.185      115.388       16.709        0.021      335.143        5.582      868.436
04/07/2014  03:55:00     -113.894      -77.796       -2.032       47.536       33.905       24.165     2259.696     1149.536      583.952        1.151        0.200      137.928       23.095        0.028      335.137        5.572      868.426
04/07/2014  03:56:00     -110.469      -70.310       -0.109       43.507       37.025       28.072     1892.820     1370.887      788.025        1.060        0.203      130.946       31.849        0.059      335.134        5.566      868.435
04/07/2014  03:57:00     -123.461      -90.066       -6.895       25.308       27.361       22.585      640.511      748.611      510.064        1.265        0.095      152.821        9.501        0.004      335.122        5.548      868.442
04/07/2014  03:58:00      -87.790      -64.596       -0.691       44.604       27.371       20.974     1989.542      749.194      439.895        0.753        0.159      108.994       14.145        0.017      335.135        5.568      868.452
04/07/2014  03:59:00      -92.217      -58.889       -1.800       39.737       28.799       19.795     1579.003      829.384      391.853        0.739        0.140      109.416       10.979        0.010      335.203        5.681      868.477
04/07/2014  04:00:00      -39.562      -34.632        8.036       42.642       25.617       22.037     1818.380      656.236      485.609        0.289        0.148       52.579       21.274        0.164      335.196        5.669      868.492
04/07/2014  04:01:00      -61.860      -67.074        8.950       51.003       39.165       26.328     2601.256     1533.923      693.183        0.662        0.241       91.244       24.681        0.073      335.189        5.658      868.493
04/07/2014  04:02:00      -57.871      -37.028        7.596       45.719       29.730       26.281     2090.209      883.900      690.697        0.422        0.183       68.703       28.604        0.173      335.145        5.583      868.492
04/07/2014  04:03:00      -80.669      -46.099        3.398       41.207       32.573       23.320     1698.012     1060.974      543.830        0.597        0.165       92.912       22.315        0.058      335.116        5.536      868.476
04/07/2014  04:04:00     -122.727      -54.300       -4.301       16.019       14.755       10.936      256.606      217.703      119.589        0.931        0.030      134.203        8.159        0.004      335.115        5.534      868.452
04/07/2014  04:05:00      -76.637      -50.619       -8.186       23.546       21.564       14.346      554.393      464.987      205.810        0.486        0.061       91.846        7.396        0.006      335.114        5.533      868.436
04/07/2014  04:06:00      -97.115      -27.793       -6.782       16.082       18.191       11.323      258.634      330.920      128.221        0.548        0.036      101.013        8.221        0.007      335.096        5.503      868.438
04/07/2014  04:07:00     -105.837      -15.757       -9.794       17.620       18.077       15.838      310.479      326.773      250.858        0.622        0.044      107.004        9.836        0.008      335.013        5.366      868.438
04/07/2014  04:08:00      -99.548      -15.780       -7.315       22.906       23.475       18.028      524.669      551.081      325.003        0.581        0.070      100.791       16.457        0.027      334.977        5.306      868.432
04/07/2014  04:09:00     -109.972      -36.135       -7.228       24.236       20.469       16.318      587.364      418.961      266.288        0.736        0.064      115.757       12.141        0.011      335.028        5.390      868.429
04/07/2014  04:10:00      -98.921      -60.397       -5.896       28.343       21.567       17.531      803.305      465.125      307.336        0.752        0.079      115.901       14.235        0.015      334.943        5.251      868.434
04/07/2014  04:11:00      -71.403      -60.797       -0.207       45.817       36.497       19.682     2099.222     1332.012      387.383        0.631        0.191       93.780       18.530        0.039      335.033        5.399      868.451
04/07/2014  04:12:00     -122.724      -72.236       -6.552       33.556       35.691       16.659     1125.985     1273.858      277.528        1.150        0.134      142.405       15.361        0.012      335.045        5.418      868.444
04/07/2014  04:13:00      -93.050      -57.592       -1.915       32.816       20.551       16.683     1076.903      422.330      278.307        0.688        0.089      109.431       14.633        0.018      335.016        5.370      868.432
04/07/2014  04:14:00      -81.610      -42.386       -5.469       21.925       17.343       18.295      480.715      300.779      334.703        0.480        0.056       91.961       11.695        0.016      334.993        5.332      868.422
04/07/2014  04:15:00      -59.394      -46.265       -1.033       34.818       23.021       18.648     1212.270      529.974      347.736        0.388        0.104       75.287       12.026        0.026      335.062        5.446      868.414
04/07/2014  04:16:00      -82.265      -51.375       -2.514       29.971       15.261       17.895      898.288      232.889      320.234        0.543        0.073       96.989       12.691        0.017      334.999        5.341      868.397
04/07/2014  04:17:00     -117.642      -39.575      -14.120       16.679       14.365       14.914      278.196      206.367      222.421        0.816        0.035      124.120        8.555        0.005      334.969        5.291      868.371
04/07/2014  04:18:00     -123.722      -45.791       -7.334       17.047       19.851       15.783      290.598      394.046      249.112        0.920        0.047      131.924        8.286        0.004      334.935        5.236      868.347
04/07/2014  04:19:00     -113.584      -67.473       -5.477       22.740       23.870       14.622      517.100      569.768      213.804        0.939        0.065      132.113        7.597        0.003      334.960        5.278      868.352
04/07/2014  04:20:00     -125.138      -57.506       -6.138       31.429       18.292       15.009      987.795      334.603      225.273        1.028        0.077      137.719       15.976        0.013      334.947        5.255      868.369
04/07/2014  04:21:00      -99.957      -57.619       -8.401       19.898       21.011       18.163      395.943      441.456      329.910        0.727        0.058      115.375       11.518        0.010      334.972        5.297      868.389
04/07/2014  04:22:00     -106.731      -34.470      -17.665       17.042       20.515       15.308      290.445      420.851      234.341        0.692        0.047      112.159        6.674        0.004      335.000        5.344      868.405
04/07/2014  04:23:00      -81.716      -46.422       -7.042       29.959       23.887       13.885      897.564      570.572      192.793        0.527        0.083       93.981       13.032        0.019      335.014        5.367      868.407
04/07/2014  04:24:00     -114.308      -36.679       -8.014       23.374       22.452       10.605      546.341      504.114      112.463        0.782        0.058      120.048       10.242        0.007      334.996        5.337      868.389
04/07/2014  04:25:00     -125.258      -46.789       -6.091       15.052       17.276       11.368      226.574      298.474      129.236        0.928        0.033      133.712        8.729        0.004      334.918        5.206      868.365
04/07/2014  04:26:00     -114.431      -38.522      -11.637       13.397       16.069       11.868      179.488      258.217      140.844        0.765        0.029      120.741        9.642        0.006      334.879        5.143      868.345
04/07/2014  04:27:00     -114.683      -54.703       -8.635       13.952       21.392       10.092      194.657      457.636      101.850        0.849        0.038      127.061        5.597        0.002      334.900        5.177      868.332
04/07/2014  04:28:00      -93.569      -59.501        0.580       34.967       30.553       20.165     1222.670      933.505      406.646        0.743        0.128      110.886       18.397        0.028      334.874        5.135      868.342
04/07/2014  04:29:00     -109.958      -45.767      -12.631       17.858       16.931       16.440      318.891      286.656      270.288        0.761        0.044      119.102        8.484        0.005      334.903        5.183      868.357
04/07/2014  04:30:00     -114.077      -61.806       -3.344       27.200       23.689       17.453      739.855      561.149      304.620        0.922        0.080      129.744       15.343        0.014      334.952        5.264      868.351
04/07/2014  04:31:00      -84.786      -62.806       -3.494       44.353       28.685       19.823     1967.167      822.803      392.967        0.716        0.159      105.514        9.779        0.009      334.919        5.210      868.350
04/07/2014  04:32:00      -88.292      -40.593        2.086       45.829       28.643       19.233     2100.292      820.422      369.904        0.637        0.165       97.176       23.210        0.057      334.936        5.237      868.340
04/07/2014  04:33:00      -95.441      -53.192        0.383       42.352       20.816       20.953     1793.689      433.290      439.021        0.730        0.133      109.263       23.049        0.044      334.981        5.313      868.336
04/07/2014  04:34:00      -59.785      -62.189       -4.992       41.797       22.701       15.678     1747.005      515.326      245.806        0.499        0.125       86.266       11.892        0.019      335.020        5.377      868.348
04/07/2014  04:35:00      -54.102      -44.687       10.749       57.962       26.020       21.059     3359.540      677.057      443.474        0.476        0.224       70.171       27.062        0.149      334.993        5.333      868.358
04/07/2014  04:36:00      -60.525      -49.608        2.440       31.753       22.918       18.265     1008.222      525.243      333.596        0.400        0.093       78.257       11.672        0.022      334.982        5.315      868.368
04/07/2014  04:37:00      -39.043      -43.428        2.406       33.109       21.753       18.459     1096.182      473.203      340.720        0.266        0.096       58.398       17.539        0.090      335.037        5.406      868.382
04/07/2014  04:38:00      -67.971      -47.906        9.300       51.823       32.785       23.385     2685.584     1074.862      546.843        0.565        0.215       83.157       25.052        0.091      334.980        5.312      868.388
04/07/2014  04:39:00      -94.742      -73.320        4.956       57.777       32.357       23.637     3338.128     1046.992      558.701        0.966        0.247      119.800       24.958        0.043      334.893        5.167      868.382
04/07/2014  04:40:00     -131.062      -70.434        0.234       56.904       33.107       26.166     3238.086     1096.055      684.663        1.358        0.251      148.790       30.698        0.043      334.905        5.185      868.373
04/07/2014  04:41:00     -132.195      -86.775        0.301       47.825       35.067       25.569     2287.215     1229.716      653.771        1.459        0.209      158.131       25.029        0.025      334.912        5.196      868.386
04/07/2014  04:42:00      -74.459      -69.242        9.141       54.973       38.368       29.891     3022.022     1472.109      893.451        0.790        0.269      101.679       30.268        0.089      334.892        5.165      868.409
04/07/2014  04:43:00     -114.867     -106.513       -6.692       55.364       36.464       28.265     3065.194     1329.603      798.886        1.489        0.260      156.651       29.379        0.035      334.910        5.195      868.428
04/07/2014  04:44:00     -127.565     -106.688       -7.096       45.565       47.800       28.334     2076.137     2284.826      802.791        1.643        0.258      166.298       22.304        0.018      334.894        5.168      868.432
04/07/2014  04:45:00     -122.503     -100.290       -7.139       50.953       41.284       30.920     2596.252     1704.368      956.072        1.519        0.263      158.319       33.153        0.044      334.864        5.117      868.418
04/07/2014  04:46:00      -97.060      -76.815       -0.925       41.451       30.373       24.568     1718.153      922.495      603.565        0.928        0.162      123.779       11.726        0.009      334.913        5.199      868.404
04/07/2014  04:47:00      -78.394      -61.544       -0.918       31.964       19.966       20.274     1021.679      398.628      411.044        0.588        0.092       99.666       17.212        0.030      334.936        5.238      868.405
04/07/2014  04:48:00      -43.877      -36.246       11.810       39.266       25.918       23.201     1541.805      671.733      538.282        0.306        0.138       56.912       19.851        0.122      334.950        5.261      868.401
04/07/2014  04:49:00      -60.787      -42.106        4.620       40.649       28.114       20.691     1652.380      790.412      428.121        0.418        0.144       73.946       18.681        0.064      334.876        5.137      868.402
04/07/2014  04:50:00      -30.134      -60.369       14.284       37.339       33.993       27.106     1394.228     1155.557      734.713        0.402        0.164       67.473       27.528        0.166      334.938        5.241      868.414
04/07/2014  04:51:00      -83.227      -73.340       -7.052       34.699       28.793       21.626     1203.999      829.032      467.683        0.743        0.125      110.930       20.324        0.034      334.906        5.187      868.418
04/07/2014  04:52:00      -60.299      -49.939        4.077       49.100       28.256       27.989     2410.800      798.413      783.360        0.507        0.200       78.294       16.128        0.042      335.029        5.392      868.420
04/07/2014  04:53:00     -118.789      -96.324       -6.314       57.566       58.551       30.443     3313.834     3428.255      926.800        1.555        0.383      152.935       26.121        0.029      334.920        5.211      868.420
04/07/2014  04:54:00     -105.172      -93.730        0.867       40.613       49.638       25.137     1649.424     2463.960      631.848        1.230        0.237      140.877       21.872        0.024      334.833        5.066      868.413
04/07/2014  04:55:00     -117.990      -84.506       -1.617       52.511       39.393       27.840     2757.422     1551.826      775.047        1.307        0.254      145.130       27.421        0.036      334.787        4.990      868.402
04/07/2014  04:56:00      -69.000      -67.916        8.498       57.075       36.418       29.094     3257.587     1326.286      846.470        0.744        0.272       96.818       27.847        0.083      334.773        4.966      868.395
04/07/2014  04:57:00      -70.076      -46.548        2.897       52.384       32.059       23.037     2744.069     1027.782      530.708        0.569        0.215       84.127       24.088        0.082      334.772        4.965      868.398
04/07/2014  04:58:00      -98.743      -37.618       -7.612       19.183       15.777       13.334      367.970      248.907      177.808        0.601        0.040      105.666       10.366        0.010      334.725        4.886      868.417
04/07/2014  04:59:00      -90.176      -47.832      -11.499       15.972       17.787       13.969      255.094      316.368      195.146        0.566        0.038      102.077        8.749        0.007      334.737        4.907      868.437
04/07/2014  05:00:00      -86.077      -34.706       -9.614       33.449       17.096       16.710     1118.819      292.269      279.208        0.520        0.085       92.811       16.829        0.033      334.761        4.947      868.428
04/07/2014  05:01:00     -120.667      -42.085      -13.213       17.042       13.167       11.173      290.442      173.368      124.832        0.855        0.029      127.795        2.381        0.000      334.691        4.828      868.417
04/07/2014  05:02:00     -107.651      -59.209       -7.073       39.266       21.622       18.540     1541.825      467.494      343.725        0.875        0.118      122.860        9.779        0.006      334.648        4.757      868.408
04/07/2014  05:03:00      -71.422      -57.814        1.582       38.897       31.697       19.884     1512.991     1004.681      395.373        0.568        0.146       91.889       16.649        0.033      334.678        4.808      868.406
04/07/2014  05:04:00      -68.718      -53.178        5.050       45.583       19.873       17.704     2077.766      394.926      313.421        0.518        0.139       86.891       19.460        0.050      334.714        4.867      868.411
04/07/2014  05:05:00      -80.861      -55.998       -3.865       41.685       21.870       15.659     1737.677      478.309      245.199        0.607        0.123       98.358       15.672        0.025      334.770        4.960      868.425
04/07/2014  05:06:00      -84.102      -53.869       -0.200       36.129       25.341       19.733     1305.319      642.145      389.403        0.616        0.117       99.875       20.648        0.043      334.744        4.918      868.435
04/07/2014  05:07:00      -67.663      -60.065        7.065       46.481       40.009       22.048     2160.451     1600.714      486.108        0.624        0.212       90.477       26.610        0.086      334.784        4.984      868.447
04/07/2014  05:08:00      -98.901      -94.488       -3.973       48.790       36.349       28.673     2380.490     1321.214      822.122        1.162        0.226      136.782       24.007        0.031      334.658        4.776      868.459
04/07/2014  05:09:00     -119.600     -111.173      -13.304       54.940       45.171       27.539     3018.413     2040.423      758.401        1.633        0.291      163.290       30.821        0.036      334.650        4.763      868.482
04/07/2014  05:10:00     -107.466      -58.724        5.602       49.908       48.921       28.842     2490.811     2393.215      831.873        1.037        0.286      122.464       26.745        0.048      334.630        4.728      868.477
04/07/2014  05:11:00     -128.756      -86.357       -1.533       60.716       42.757       30.148     3686.448     1828.171      908.886        1.523        0.321      155.034       19.329        0.016      334.653        4.767      868.472
04/07/2014  05:12:00     -142.116     -103.362        0.667       51.519       37.120       27.633     2654.241     1377.898      763.590        1.784        0.240      175.729       25.419        0.021      334.655        4.769      868.464
04/07/2014  05:13:00      -98.892      -92.067       10.297       57.580       40.868       33.107     3315.468     1670.233     1096.104        1.222        0.304      135.115       33.289        0.061      334.653        4.768      868.455
04/07/2014  05:14:00     -131.550      -84.869       -7.369       53.361       39.868       25.315     2847.350     1589.481      640.845        1.482        0.254      156.551       27.936        0.032      334.660        4.777      868.456
04/07/2014  05:15:00      -86.687      -67.936        0.089       37.076       35.302       24.347     1374.594     1246.230      592.772        0.767        0.161      110.136       23.400        0.045      334.657        4.774      868.450
04/07/2014  05:16:00     -117.200      -22.717       -1.184       41.077       33.768       24.067     1687.325     1140.244      579.229        0.883        0.170      119.382       18.562        0.024      334.591        4.666      868.450
04/07/2014  05:17:00     -176.761      -43.274       -9.360       37.429       44.571       23.533     1400.946     1986.590      553.795        1.857        0.197      181.981       18.055        0.010      334.546        4.589      868.450
04/07/2014  05:18:00     -102.405      -43.450       -4.460       63.937       31.852       17.976     4087.972     1014.559      323.144        0.891        0.271      111.242       17.293        0.024      334.563        4.618      868.459
04/07/2014  05:19:00     -117.543      -40.649       -4.560       38.895       31.924       19.578     1512.842     1019.147      383.312        0.920        0.146      124.373       17.583        0.020      334.503        4.519      868.472
04/07/2014  05:20:00     -110.632      -50.283        4.694       40.045       31.129       18.782     1603.570      969.039      352.757        0.886        0.146      121.523       18.042        0.022      334.530        4.564      868.494
04/07/2014  05:21:00     -112.049      -60.173        3.850       40.783       28.930       20.549     1663.232      836.972      422.273        0.956        0.146      127.184       19.225        0.023      334.516        4.540      868.507
04/07/2014  05:22:00     -103.270      -49.440        1.507       41.807       21.982       18.801     1747.821      483.215      353.482        0.785        0.129      114.495       11.642        0.010      334.551        4.598      868.512
04/07/2014  05:23:00      -90.588      -40.485        0.324       31.603       17.558       15.645      998.765      308.283      244.778        0.570        0.078       99.223       12.267        0.015      334.556        4.606      868.505
04/07/2014  05:24:00      -60.686      -45.422       -0.459       46.849       26.280       23.030     2194.813      690.625      530.400        0.458        0.171       75.802       28.954        0.146      334.568        4.625      868.497
04/07/2014  05:25:00      -90.044      -53.747       -8.201       28.893       17.412       14.542      834.794      303.168      211.470        0.621        0.067      104.865        9.676        0.009      334.491        4.499      868.476
04/07/2014  05:26:00     -101.886      -43.726      -13.313       22.575       20.739       16.086      509.644      430.119      258.752        0.683        0.060      110.873       12.745        0.013      334.467        4.460      868.467
04/07/2014  05:27:00     -125.234      -41.337       -7.890       22.730       20.572       13.636      516.649      423.202      185.944        0.929        0.056      131.879       10.483        0.006      334.511        4.532      868.455
04/07/2014  05:28:00     -115.644      -56.602       -1.119       24.517       23.058       16.028      601.066      531.672      256.892        0.898        0.069      128.753       12.161        0.009      334.502        4.516      868.458
04/07/2014  05:29:00     -109.900      -72.205       -6.011       21.586       19.317       16.179      465.937      373.164      261.772        0.921        0.055      131.498       10.495        0.006      334.474        4.472      868.480
04/07/2014  05:30:00      -79.316      -42.966        2.336       45.820       30.331       21.121     2099.444      919.954      446.083        0.580        0.173       90.206       18.547        0.042      334.466        4.457      868.514
04/07/2014  05:31:00      -64.442      -51.457        5.990       45.177       31.427       26.363     2040.988      987.649      694.995        0.528        0.186       82.466       20.044        0.059      334.551        4.598      868.530
04/07/2014  05:32:00     -101.428      -56.988       -0.373       45.426       28.135       20.155     2063.526      791.581      406.236        0.840        0.163      116.341       23.095        0.039      334.468        4.461      868.522
04/07/2014  05:33:00     -125.695      -65.893      -19.214       17.386       18.377       12.618      302.280      337.705      159.210        1.065        0.040      141.919        5.281        0.001      334.442        4.419      868.504
04/07/2014  05:34:00      -96.880      -65.163       -6.988       32.749       22.228       16.204     1072.475      494.105      262.557        0.775        0.091      116.756       14.880        0.016      334.439        4.413      868.490
04/07/2014  05:35:00     -125.668      -60.094       -3.894       28.918       27.143       17.233      836.274      736.755      296.976        1.064        0.094      139.297       14.283        0.011      334.433        4.402      868.501
04/07/2014  05:36:00     -130.416      -57.341       -1.238       30.398       28.627       17.122      924.061      819.528      293.158        1.117        0.102      142.465       13.983        0.010      334.508        4.527      868.519
04/07/2014  05:37:00     -104.636      -42.435       -2.230       47.797       21.038       20.075     2284.510      442.605      403.009        0.794        0.157      112.914       21.128        0.035      334.525        4.554      868.534
04/07/2014  05:38:00     -101.016      -42.485       -2.340       31.861       24.826       21.023     1015.142      616.338      441.957        0.704        0.104      109.587       15.738        0.021      334.482        4.483      868.552
04/07/2014  05:39:00      -76.993      -50.937       -0.868       44.869       32.281       22.106     2013.253     1042.065      488.669        0.603        0.177       92.318       16.290        0.031      334.510        4.530      868.567
04/07/2014  05:40:00      -87.082      -66.647       -1.486       44.106       32.653       19.353     1945.306     1066.209      374.528        0.771        0.169      109.659       15.655        0.020      334.504        4.521      868.568
04/07/2014  05:41:00      -54.670      -29.046       -2.036       48.895       28.856       20.633     2390.696      832.657      425.730        0.374        0.182       61.907       23.636        0.146      334.506        4.522      868.568
04/07/2014  05:42:00      -60.432      -59.370       -0.456       38.171       25.231       18.767     1457.030      636.595      352.203        0.481        0.122       84.717       18.055        0.045      334.437        4.409      868.570
04/07/2014  05:43:00      -81.122      -50.661       -5.248       42.114       24.641       21.140     1773.577      607.155      446.881        0.600        0.141       95.641       13.377        0.020      334.397        4.345      868.569
04/07/2014  05:44:00      -28.928      -37.271        7.008       45.507       31.663       23.527     2070.875     1002.544      553.528        0.295        0.181       47.180       25.408        0.290      334.490        4.497      868.574
04/07/2014  05:45:00      -81.750      -72.319       -1.643       52.121       41.034       28.298     2716.645     1683.818      800.779        0.856        0.260      109.147       25.915        0.056      334.481        4.482      868.580
04/07/2014  05:46:00      -74.424      -63.665        2.801       61.815       43.005       29.647     3821.090     1849.405      878.932        0.807        0.327       97.940       27.756        0.080      334.477        4.475      868.588
04/07/2014  05:47:00      -79.870      -58.184        4.763       47.279       43.998       26.712     2235.333     1935.800      713.526        0.734        0.244       98.816       22.361        0.051      334.483        4.483      868.607
04/07/2014  05:48:00      -66.319      -56.522        7.908       52.331       39.141       25.676     2738.516     1531.997      659.268        0.629        0.246       87.138       25.745        0.087      334.511        4.532      868.631
04/07/2014  05:49:00      -65.247      -47.670        6.587       58.867       41.519       27.599     3465.295     1723.844      761.725        0.626        0.298       80.806       28.382        0.123      334.525        4.555      868.640
04/07/2014  05:50:00      -80.580      -55.785       -1.895       53.828       33.379       22.093     2897.475     1114.178      488.103        0.705        0.225       98.005       23.309        0.057      334.525        4.554      868.641
04/07/2014  05:51:00      -59.964      -39.430        5.309       46.440       29.451       20.767     2156.628      867.334      431.285        0.432        0.173       71.766       23.674        0.109      334.499        4.512      868.620
04/07/2014  05:52:00      -93.680      -63.184       -0.070       39.810       29.455       19.678     1584.821      867.606      387.220        0.780        0.142      112.996       17.491        0.024      334.492        4.500      868.595
04/07/2014  05:53:00      -46.787      -26.193       -0.681       31.600       20.938       18.186      998.576      438.402      330.739        0.232        0.088       53.620        9.877        0.034      334.461        4.450      868.575
04/07/2014  05:54:00     -125.265      -54.594       -1.853       24.818       34.928       16.737      615.952     1219.930      280.120        1.040        0.106      136.645        8.472        0.004      334.511        4.532      868.585
04/07/2014  05:55:00      -79.083      -46.900       -1.123       60.817       29.743       22.107     3698.653      884.623      488.729        0.676        0.254       91.944       23.007        0.063      334.509        4.529      868.579
04/07/2014  05:56:00      -97.494      -91.027       -1.398       32.777       33.931       21.793     1074.310     1151.295      474.957        1.025        0.135      133.383       17.531        0.017      334.453        4.436      868.578
04/07/2014  05:57:00     -106.343      -64.948       -4.073       41.087       27.298       21.330     1688.174      745.171      454.952        0.922        0.144      124.607       15.857        0.016      334.484        4.487      868.574
04/07/2014  05:58:00      -83.772      -58.918       -6.294       33.738       26.443       20.363     1138.231      699.216      414.649        0.639        0.113      102.416       15.684        0.023      334.458        4.445      868.573
04/07/2014  05:59:00     -100.136      -64.651      -11.089       26.280       23.376       18.609      690.613      546.429      346.312        0.796        0.079      119.193       11.452        0.009      334.483        4.486      868.576
04/07/2014  06:00:00      -94.824      -30.216       -8.510       24.780       22.094       13.320      614.069      488.132      177.420        0.563        0.064       99.522       12.296        0.015      334.421        4.383      868.572
04/07/2014  06:01:00     -103.144      -42.697       -9.436       23.831       19.492       11.876      567.933      379.925      141.032        0.682        0.054      111.632        7.652        0.005      334.435        4.406      868.568
04/07/2014  06:02:00      -79.310      -34.690       -3.112       19.450       22.664       15.959      378.311      513.662      254.679        0.432        0.057       86.564       12.646        0.021      334.430        4.398      868.568
04/07/2014  06:03:00      -97.039      -45.873       -0.612       29.889       26.544       16.040      893.346      704.602      257.286        0.669        0.093      107.336       13.672        0.016      334.454        4.438      868.581
04/07/2014  06:04:00      -78.696      -30.063        2.082       40.910       34.532       22.000     1673.665     1192.462      484.021        0.522        0.168       84.243       23.919        0.081      334.437        4.409      868.597
04/07/2014  06:05:00      -46.066      -48.473        9.063       43.370       29.508       23.862     1880.924      870.748      569.395        0.394        0.166       66.871       22.794        0.116      334.422        4.385      868.618
04/07/2014  06:06:00      -55.022      -50.576       11.639       39.173       32.376       21.783     1534.490     1048.184      474.496        0.439        0.153       74.735       20.602        0.076      334.397        4.345      868.629
04/07/2014  06:07:00      -95.364      -55.047        0.412       40.822       29.677       18.942     1666.418      880.715      358.791        0.751        0.145      110.111       17.972        0.027      334.372        4.302      868.627
04/07/2014  06:08:00      -82.214      -63.043       -5.023       22.660       21.439       13.536      513.461      459.638      183.233        0.596        0.058      103.603        8.713        0.007      334.352        4.269      868.638
04/07/2014  06:09:00      -57.584      -59.820        1.671       30.516       23.571       15.060      931.231      555.610      226.794        0.431        0.086       83.033       14.734        0.031      334.410        4.365      868.659
04/07/2014  06:10:00      -41.740      -28.835        6.091       47.839       20.586       17.241     2288.587      423.790      297.241        0.281        0.150       50.731       19.336        0.145      334.383        4.320      868.664
04/07/2014  06:11:00      -66.727      -49.492        9.035       34.826       23.851       20.207     1212.846      568.892      408.317        0.459        0.110       83.078       14.005        0.028      334.405        4.356      868.662
04/07/2014  06:12:00      -79.246      -36.919        6.757       48.059       24.895       21.755     2309.699      619.768      473.273        0.554        0.170       87.424       24.207        0.077      334.371        4.301      868.657
04/07/2014  06:13:00      -67.321      -41.072        7.416       50.604       27.817       20.437     2560.789      773.774      417.677        0.501        0.188       78.861       17.008        0.047      334.361        4.283      868.662
04/07/2014  06:14:00      -72.676      -47.660        8.642       50.519       33.922       20.009     2552.216     1150.676      400.342        0.586        0.205       86.910       22.783        0.069      334.394        4.339      868.680
04/07/2014  06:15:00      -79.873      -79.233       -4.871       36.595       29.171       17.002     1339.182      850.933      289.051        0.758        0.124      112.506       17.240        0.023      334.450        4.431      868.710
04/07/2014  06:16:00      -69.301      -64.934        3.487       45.228       24.499       20.253     2045.536      600.210      410.175        0.604        0.153       94.969       22.737        0.057      334.462        4.451      868.740
04/07/2014  06:17:00      -48.046      -49.112        4.136       49.110       30.802       25.159     2411.812      948.785      632.987        0.436        0.200       68.705       30.055        0.191      334.406        4.359      868.759
04/07/2014  06:18:00      -77.127      -47.865       -1.569       31.338       29.363       20.126      982.045      862.209      405.073        0.525        0.112       90.772       15.159        0.028      334.419        4.379      868.759
04/07/2014  06:19:00     -115.706      -64.728       -1.735       40.965       29.782       18.760     1678.158      886.958      351.948        1.025        0.146      132.581       17.882        0.018      334.423        4.388      868.762
04/07/2014  06:20:00      -70.659      -48.123        4.425       41.319       29.427       22.090     1707.257      865.929      487.975        0.519        0.153       85.490       19.705        0.053      334.344        4.256      868.773
04/07/2014  06:21:00      -68.984      -53.083        3.337       34.885       26.735       22.948     1216.934      714.775      526.626        0.502        0.123       87.044       10.462        0.014      334.430        4.398      868.792
04/07/2014  06:22:00      -50.256      -27.581        6.770       39.223       25.401       19.115     1538.424      645.196      365.399        0.294        0.127       57.327       19.707        0.118      334.358        4.280      868.805
04/07/2014  06:23:00      -81.467      -34.732       -1.392       38.035       21.521       19.676     1446.640      463.166      387.154        0.507        0.115       88.562       17.502        0.039      334.303        4.186      868.808
04/07/2014  06:24:00     -119.999      -38.321       -6.000       21.233       18.662       15.080      450.822      348.257      227.404        0.847        0.051      125.969        9.989        0.006      334.323        4.220      868.798
04/07/2014  06:25:00     -129.212      -27.240       -4.124       31.174       27.380       20.069      971.813      749.655      402.774        0.979        0.106      132.052       16.381        0.015      334.268        4.129      868.802
04/07/2014  06:26:00      -92.144      -35.541        0.918       33.888       28.160       19.587     1148.396      792.968      383.643        0.604        0.116       98.760       13.872        0.020      334.231        4.067      868.804
04/07/2014  06:27:00      -93.036      -23.674        3.476       30.193       26.243       18.468      911.641      688.693      341.063        0.558        0.097       96.001       14.097        0.022      334.256        4.110      868.816
04/07/2014  06:28:00      -93.165      -40.920       -1.734       31.511       33.793       16.258      992.936     1141.982      264.321        0.638        0.120      101.756       17.115        0.028      334.295        4.173      868.826
04/07/2014  06:29:00      -75.096      -31.080        1.735       37.406       31.334       16.823     1399.196      981.831      283.010        0.464        0.133       81.273       17.766        0.048      334.265        4.123      868.840
04/07/2014  06:30:00      -88.541      -45.082        0.867       34.641       30.094       17.996     1199.973      905.628      323.863        0.615        0.121       99.358       17.949        0.033      334.292        4.169      868.860
04/07/2014  06:31:00      -88.614      -34.562        6.387       35.046       26.975       16.262     1228.209      727.643      264.439        0.565        0.111       95.115       18.382        0.037      334.290        4.166      868.869
04/07/2014  06:32:00      -51.293      -25.811       -1.487       28.699       28.516       12.270      823.604      813.159      150.557        0.254        0.089       57.421       11.578        0.041      334.261        4.118      868.871
04/07/2014  06:33:00      -62.541      -24.770        1.635       23.348       25.952       13.813      545.119      673.519      190.812        0.297        0.070       67.268        9.945        0.022      334.332        4.236      868.878
04/07/2014  06:34:00      -53.939      -32.861       -3.448       36.365       13.697       11.180     1322.448      187.602      124.999        0.282        0.082       63.160       11.548        0.033      334.329        4.232      868.883
04/07/2014  06:35:00      -60.851      -32.498       -7.427       24.586       13.248       10.885      604.490      175.512      118.490        0.286        0.045       68.985        9.883        0.021      334.380        4.315      868.888
04/07/2014  06:36:00      -54.242      -31.520        3.053       45.884       18.035       17.513     2105.359      325.271      306.712        0.334        0.137       62.735       22.779        0.132      334.372        4.302      868.894
04/07/2014  06:37:00      -39.550      -28.205        6.406       22.715       16.421       15.476      515.977      269.658      239.491        0.171        0.051       48.577       13.410        0.076      334.324        4.222      868.892
04/07/2014  06:38:00      -39.628      -26.382        3.042       32.896       26.061       17.745     1082.171      679.194      314.890        0.218        0.104       47.607       18.562        0.152      334.247        4.095      868.901
04/07/2014  06:39:00      -40.770      -35.929        9.022       54.709       26.666       22.122     2993.029      711.062      489.397        0.361        0.210       54.343       25.525        0.221      334.218        4.045      868.903
04/07/2014  06:40:00      -41.017      -34.230        8.971       45.591       30.709       24.251     2078.559      943.069      588.115        0.327        0.180       53.424       24.950        0.218      334.185        3.992      868.899
04/07/2014  06:41:00      -80.845      -73.974        2.014       43.019       40.887       18.520     1850.619     1671.715      342.999        0.794        0.193      109.581       19.756        0.033      334.259        4.114      868.897
04/07/2014  06:42:00     -108.298      -51.653       -0.541       41.507       32.787       19.200     1722.807     1074.964      368.641        0.878        0.158      119.985       11.232        0.009      334.314        4.204      868.878
04/07/2014  06:43:00      -73.723      -51.110       -2.621       40.216       34.882       25.518     1617.361     1216.723      651.181        0.577        0.174       89.707       27.847        0.096      334.331        4.234      868.876
04/07/2014  06:44:00      -62.276      -26.282       -0.311       25.301       22.696       17.796      640.137      515.086      316.691        0.302        0.074       67.594       10.294        0.023      334.248        4.097      868.878
04/07/2014  06:45:00      -59.302      -18.404        4.480       21.129       18.490       16.428      446.447      341.875      269.879        0.247        0.053       62.092       12.435        0.040      334.197        4.012      868.893
04/07/2014  06:46:00      -69.404      -24.378       -2.492       12.331       17.599       11.225      152.053      309.732      126.002        0.300        0.029       73.561        9.404        0.016      334.273        4.138      868.901
04/07/2014  06:47:00      -71.306      -31.812       -5.861       27.784       17.923       16.344      771.947      321.232      267.122        0.375        0.068       78.080       15.955        0.042      334.243        4.089      868.905
04/07/2014  06:48:00      -61.408      -25.168        6.149       31.045       23.796       15.211      963.813      566.226      231.384        0.310        0.088       66.365       13.484        0.041      334.214        4.040      868.901
04/07/2014  06:49:00      -92.929      -44.740       -2.453       22.667       18.338       12.556      513.791      336.290      157.657        0.583        0.050      103.138       10.688        0.011      334.250        4.099      868.907
04/07/2014  06:50:00      -73.891      -39.567        1.000       36.319       25.497       15.243     1319.060      650.095      232.335        0.461        0.110       83.818       16.566        0.039      334.243        4.087      868.899
04/07/2014  06:51:00      -87.919      -40.762        4.913       32.135       24.263       16.114     1032.637      588.690      259.655        0.565        0.094       96.909       17.048        0.031      334.180        3.982      868.890
04/07/2014  06:52:00     -110.071      -42.513       -1.128       33.661       32.223       17.870     1133.038     1038.328      319.354        0.821        0.125      117.995       21.034        0.032      334.161        3.951      868.887
04/07/2014  06:53:00     -100.574      -11.145       -1.091       41.261       23.654       20.834     1702.500      559.507      434.036        0.647        0.135      101.190       21.063        0.043      334.129        3.897      868.887
04/07/2014  06:54:00     -104.244      -29.620        5.276       32.524       38.437       25.056     1057.835     1477.383      627.790        0.747        0.158      108.371       21.281        0.039      334.146        3.926      868.884
04/07/2014  06:55:00      -85.949      -29.130        4.815       40.642       43.546       25.441     1651.747     1896.236      647.244        0.623        0.210       90.751       22.866        0.063      334.225        4.057      868.884
04/07/2014  06:56:00      -98.455      -35.821        1.343       38.802       29.308       20.500     1505.618      858.934      420.257        0.688        0.139      104.769       19.264        0.034      334.230        4.066      868.877
04/07/2014  06:57:00     -107.288      -64.918       -3.033       35.971       24.951       21.239     1293.884      622.565      451.116        0.905        0.118      125.399       19.314        0.024      334.299        4.181      868.876
04/07/2014  06:58:00      -80.301      -56.208        1.501       37.937       27.109       16.634     1439.207      734.873      276.673        0.603        0.123       98.018       16.903        0.030      334.297        4.175      868.873
04/07/2014  06:59:00      -37.679      -35.395        5.114       37.061       25.342       18.786     1373.536      642.227      352.925        0.253        0.118       51.696       19.479        0.142      334.395        4.341      868.903
04/07/2014  07:00:00     -103.806      -48.794       -5.986       22.746       24.815       14.585      517.361      615.768      212.710        0.727        0.067      114.702       14.710        0.016      334.364        4.288      868.906
04/07/2014  07:01:00      -83.879      -47.876       -0.986       42.974       25.111       14.786     1846.767      630.545      218.632        0.601        0.135       96.581       14.293        0.022      334.415        4.373      868.893
04/07/2014  07:02:00      -43.614      -41.766        8.779       42.301       26.162       20.893     1789.405      684.434      436.513        0.332        0.146       60.387       23.309        0.149      334.388        4.328      868.891
04/07/2014  07:03:00      -80.768      -66.194        1.637       40.862       27.195       20.506     1669.732      739.560      420.478        0.687        0.141      104.427       19.475        0.035      334.311        4.201      868.885
04/07/2014  07:04:00     -110.045      -87.374        0.336       34.125       35.311       23.277     1164.509     1246.884      541.839        1.135        0.148      140.514       17.336        0.015      334.302        4.185      868.874
04/07/2014  07:05:00      -68.123      -47.015       10.954       50.002       34.844       24.889     2500.223     1214.105      619.473        0.565        0.217       82.772       29.630        0.128      334.393        4.336      868.879
04/07/2014  07:06:00      -49.149      -60.179        1.519       28.368       27.033       19.824      804.738      730.779      393.005        0.398        0.096       77.699       15.892        0.042      334.373        4.303      868.906
04/07/2014  07:07:00      -66.010      -53.137        2.120       33.579       39.605       24.217     1127.564     1568.575      586.471        0.523        0.164       84.740       22.662        0.072      334.401        4.349      868.919
04/07/2014  07:08:00      -50.167      -65.123       -0.816       45.484       26.327       15.303     2068.775      693.087      234.188        0.488        0.150       82.205       12.668        0.024      334.482        4.484      868.943
04/07/2014  07:09:00      -64.974      -73.608      -16.743       26.000       16.714       15.093      676.003      279.355      227.801        0.555        0.059       98.182        8.951        0.008      334.447        4.426      868.955
04/07/2014  07:10:00      -97.422      -86.060       -2.758       33.024       31.262       23.422     1090.592      977.304      548.603        0.976        0.131      129.990       20.010        0.024      334.409        4.364      868.968
04/07/2014  07:11:00      -91.476      -72.304        3.842       45.645       38.627       21.572     2083.447     1492.054      465.341        0.882        0.202      116.600       22.141        0.036      334.433        4.402      868.986
04/07/2014  07:12:00     -116.191     -119.272       -5.851       52.400       41.451       31.287     2745.796     1718.157      978.882        1.660        0.272      166.511       29.061        0.030      334.406        4.357      868.995
04/07/2014  07:13:00     -136.504     -126.034       -4.667       44.947       49.736       33.401     2020.235     2473.676     1115.632        2.007        0.280      185.790       28.671        0.024      334.349        4.261      868.994
04/07/2014  07:14:00      -94.272      -93.821        2.194       66.583       51.004       33.142     4433.344     2601.392     1098.414        1.291        0.407      133.002       33.059        0.062      334.371        4.301      869.004
04/07/2014  07:15:00      -93.131      -91.525       -4.695       34.585       31.631       24.466     1196.132     1000.523      598.605        0.993        0.140      130.576       24.007        0.034      334.417        4.377      869.010
04/07/2014  07:16:00      -61.756      -56.008        4.540       51.994       24.886       25.047     2703.396      619.333      627.367        0.546        0.198       83.370       30.571        0.134      334.541        4.582      869.020
04/07/2014  07:17:00      -72.574      -40.495        2.206       25.784       26.242       18.432      664.839      688.623      339.743        0.430        0.085       83.107       12.805        0.024      334.585        4.654      869.026
04/07/2014  07:18:00      -69.406      -30.234       -3.693       34.419       20.243       17.190     1184.654      409.779      295.496        0.382        0.094       75.705       19.935        0.069      334.595        4.672      869.023
04/07/2014  07:19:00      -55.380      -25.617       -1.265       21.174       16.138       12.155      448.325      260.426      147.735        0.229        0.043       61.018        8.815        0.021      334.606        4.689      869.039
04/07/2014  07:20:00      -42.231      -31.285       -0.019       25.211       21.069       12.730      635.585      443.895      162.045        0.200        0.062       52.557        9.450        0.032      334.675        4.804      869.054
04/07/2014  07:21:00      -63.746      -16.458        0.352       14.105       12.458       10.003      198.939      155.205      100.068        0.239        0.023       65.836        7.463        0.013      334.703        4.850      869.066
04/07/2014  07:22:00      -26.840      -30.904        4.954       23.338       15.288       13.808      544.659      233.737      190.657        0.133        0.048       40.932       10.968        0.072      334.780        4.978      869.090
04/07/2014  07:23:00      -18.800      -28.471       10.015       22.878       21.420       14.227      523.388      458.821      202.402        0.122        0.059       34.118       13.557        0.158      334.893        5.166      869.105
04/07/2014  07:24:00      -55.061      -48.240        3.016       30.450       28.533       16.757      927.206      814.108      280.809        0.369        0.101       73.204       10.894        0.022      334.704        4.852      869.117
04/07/2014  07:25:00      -95.837      -82.585      -16.652       19.427       24.220       20.293      377.424      586.592      411.798        0.883        0.069      126.510       14.024        0.012      334.628        4.725      869.115
04/07/2014  07:26:00      -51.932      -46.823        6.718       38.313       33.792       20.447     1467.915     1141.918      418.065        0.398        0.151       69.924       22.424        0.103      334.718        4.875      869.121
04/07/2014  07:27:00      -53.586      -56.331        1.082       24.944       19.837       18.536      622.203      393.510      343.598        0.370        0.068       77.748       11.685        0.023      334.709        4.860      869.125
04/07/2014  07:28:00      -44.548      -58.889       -1.164       18.941       21.410       11.326      358.775      458.382      128.287        0.320        0.047       73.840        4.402        0.004      334.741        4.913      869.146
04/07/2014  07:29:00      -37.405      -52.602       -5.009       24.306       17.784       14.289      590.785      316.283      204.187        0.265        0.056       64.546        5.147        0.006      334.827        5.057      869.166
04/07/2014  07:30:00      -35.120      -46.582        4.562       28.280       23.267       16.483      799.734      541.343      271.705        0.252        0.081       58.338       16.589        0.081      334.893        5.165      869.177
04/07/2014  07:31:00      -54.048      -79.110       -8.781       20.831       15.543       15.498      433.934      241.570      240.190        0.509        0.046       95.811       13.781        0.021      334.806        5.022      869.178
04/07/2014  07:32:00      -37.160      -48.830       -1.864       14.577       19.714       12.808      212.477      388.633      164.040        0.227        0.038       61.362        9.335        0.023      334.918        5.208      869.187
04/07/2014  07:33:00      -37.001      -25.082       -4.589       18.417       17.751        9.698      339.170      315.106       94.051        0.138        0.037       44.701        6.983        0.024      334.961        5.279      869.192
04/07/2014  07:34:00      -16.962      -17.482        3.168       16.882       16.089       12.964      284.987      258.865      168.060        0.066        0.036       24.358        9.643        0.157      335.091        5.496      869.190
04/07/2014  07:35:00      -43.327      -47.050       -1.810       14.820       10.571       10.683      219.631      111.750      114.117        0.227        0.022       63.961        9.157        0.020      335.022        5.382      869.189
04/07/2014  07:36:00      -21.621      -36.170        2.009       21.292       16.570       15.570      453.365      274.557      242.414        0.137        0.049       42.140       12.215        0.084      335.128        5.557      869.180
04/07/2014  07:37:00       -4.603       -6.203       13.290       11.296       10.624       12.416      127.589      112.880      154.161        0.032        0.020        7.724       11.282        2.133      335.635        6.400      869.180
04/07/2014  07:38:00      -46.653       -5.531       -0.384       20.277       14.102        8.706      411.155      198.861       75.788        0.145        0.034       46.979        5.685        0.015      335.179        5.640      869.185
04/07/2014  07:39:00      -53.256       -6.464       -3.320       10.325       17.340        9.273      106.603      300.663       85.993        0.169        0.025       53.647        6.492        0.015      335.147        5.589      869.182
04/07/2014  07:40:00      -39.551       -9.150       -1.719       24.582       14.132       11.738      604.295      199.722      137.777        0.130        0.047       40.596       13.133        0.105      335.234        5.732      869.173
04/07/2014  07:41:00      -45.044      -26.003       -6.782       18.415       10.998       12.490      339.121      120.956      156.009        0.168        0.031       52.011       11.657        0.050      335.210        5.692      869.172
04/07/2014  07:42:00      -26.436      -18.592        6.187       24.499       16.234       15.796      600.208      263.531      249.510        0.110        0.056       32.319       14.578        0.203      335.328        5.886      869.167
04/07/2014  07:43:00      -16.629      -17.010       12.665       17.150       17.073       14.507      294.117      291.498      210.459        0.076        0.040       23.788       12.122        0.260      335.468        6.121      869.165
04/07/2014  07:44:00      -50.824      -58.325        7.955       26.774       23.645       20.182      716.851      559.095      407.325        0.387        0.084       77.362       19.257        0.062      335.248        5.754      869.168
04/07/2014  07:45:00      -44.943      -60.986        1.360       25.371       25.171       15.376      643.675      633.582      236.411        0.363        0.076       75.757       16.631        0.048      335.237        5.736      869.184
04/07/2014  07:46:00      -50.102      -48.976       -0.684       19.948       14.979       10.814      397.923      224.373      116.950        0.282        0.037       70.063        9.704        0.019      335.250        5.757      869.205
04/07/2014  07:47:00      -83.165      -78.246      -10.361       27.295       16.353       15.223      744.993      267.435      231.742        0.719        0.062      114.188       14.980        0.017      335.257        5.769      869.198
04/07/2014  07:48:00      -19.992      -33.930       15.952       34.840       30.198       17.844     1213.807      911.917      318.412        0.212        0.122       39.382       18.776        0.227      335.452        6.094      869.210
04/07/2014  07:49:00      -24.011      -19.036        9.189       31.363       25.865       15.918      983.668      669.019      253.390        0.146        0.095       30.642       20.379        0.442      335.584        6.314      869.208
04/07/2014  07:50:00      -34.954      -27.431       -0.713       20.762       21.891       12.958      431.070      479.203      167.916        0.153        0.054       44.433       12.915        0.084      335.465        6.117      869.189
04/07/2014  07:51:00      -36.701       -7.916       -5.747       11.009       10.640       10.213      121.196      113.217      104.301        0.089        0.017       37.545        8.154        0.047      335.511        6.192      869.175
04/07/2014  07:52:00      -11.967       -5.900       -1.224       13.334        7.029        7.342      177.783       49.408       53.901        0.023        0.014       13.343        5.897        0.195      335.679        6.474      869.163
04/07/2014  07:53:00      -16.477      -24.707       -2.113       12.470       10.080        7.289      155.501      101.611       53.132        0.060        0.016       29.697        4.371        0.022      335.485        6.149      869.163
04/07/2014  07:54:00      -32.577       -8.577        4.847       15.599       15.908       12.109      243.326      253.062      146.624        0.090        0.032       33.687       10.805        0.103      335.748        6.589      869.145
04/07/2014  07:55:00      -69.522      -16.006       -6.301       18.258       13.941        6.416      333.369      194.350       41.162        0.285        0.028       71.341        6.259        0.008      335.472        6.128      869.148
04/07/2014  07:56:00      -25.505      -28.814       -4.254       13.241       13.809       10.073      175.337      190.687      101.472        0.098        0.023       38.481        8.432        0.048      335.567        6.287      869.154
04/07/2014  07:57:00      -18.740        1.005       -6.339       11.231        6.029        8.161      126.130       36.345       66.599        0.031        0.011       18.767        4.863        0.067      335.736        6.568      869.153
04/07/2014  07:58:00      -26.094        6.491        9.716       14.812        8.688       17.067      219.394       75.480      291.269        0.070        0.029       26.889       13.293        0.244      335.981        6.979      869.147
04/07/2014  07:59:00      -24.353        7.053       22.911       24.940       12.596       20.056      622.006      158.649      402.230        0.118        0.059       25.354       20.162        0.632      336.384        7.650      869.148
04/07/2014  08:00:00      -28.665       -7.284       -6.019       16.923        6.028        8.391      286.403       36.333       70.407        0.065        0.020       29.576        6.957        0.055      335.725        6.551      869.146
04/07/2014  08:01:00       -8.949      -21.401       -2.769        7.885       11.261        8.644       62.180      126.808       74.723        0.040        0.013       23.197        7.011        0.091      335.841        6.746      869.144
04/07/2014  08:02:00      -11.122       -9.209        7.163        8.321        9.061       11.604       69.238       82.104      134.647        0.027        0.014       14.440        7.829        0.294      336.174        7.298      869.140
04/07/2014  08:03:00       -8.742       12.285        9.556       12.495       22.289       15.556      156.113      496.818      241.991        0.061        0.045       15.078        7.428        0.243      336.341        7.579      869.146
04/07/2014  08:04:00        7.040        9.805       21.561       24.286       22.671       16.348      589.827      513.956      267.269        0.099        0.069       12.071       14.230        1.390      336.535        7.902      869.139
04/07/2014  08:05:00       -0.038       17.166       10.819       16.870       21.663       19.732      284.598      469.301      389.347        0.078        0.057       17.166       15.738        0.841      336.396        7.670      869.140
04/07/2014  08:06:00        5.958       -2.540       14.884       19.036       15.527       17.587      362.378      241.088      309.291        0.059        0.046        6.477       11.063        2.917      336.301        7.510      869.141
04/07/2014  08:07:00       10.735       17.679       10.090       13.248       20.850       13.630      175.510      434.718      185.774        0.066        0.040       20.683        9.319        0.203      336.463        7.782      869.144
04/07/2014  08:08:00       16.281       90.001      -12.001       24.480       23.261       16.950      599.272      541.078      287.290        0.497        0.071       91.462       10.610        0.013      336.104        7.182      869.148
04/07/2014  08:09:00       45.000       28.438        5.562       14.635       16.139       14.785      214.178      260.473      218.586        0.178        0.035       53.233        6.736        0.016      336.085        7.149      869.158
04/07/2014  08:10:00        9.939        3.771       11.719       16.899       17.801       19.225      285.582      316.892      369.586        0.061        0.049       10.630       11.889        1.251      336.652        8.096      869.148
04/07/2014  08:11:00      -30.805       21.104       -2.994       10.610       11.299       11.771      112.566      127.677      138.545        0.089        0.019       37.341        4.319        0.013      336.177        7.304      869.150
04/07/2014  08:12:00      -35.505       24.782       -7.036       17.902       11.941       11.595      320.481      142.580      134.439        0.126        0.030       43.298       10.827        0.063      336.189        7.324      869.149
04/07/2014  08:13:00      -50.138       26.572       -9.407       18.769       21.944       10.772      352.271      481.519      116.032        0.213        0.047       56.744        9.543        0.028      336.113        7.196      869.144
04/07/2014  08:14:00      -28.180      -19.676       -1.137       22.955       14.909       15.616      526.947      222.276      243.845        0.109        0.050       34.369        9.821        0.082      336.300        7.509      869.138
04/07/2014  08:15:00        3.428      -39.745       17.607       18.257       25.958       22.124      333.329      673.794      489.490        0.170        0.075       39.892       16.729        0.176      336.743        8.250      869.132
04/07/2014  08:16:00      -11.508        6.669       38.155       17.656       38.668       20.552      311.740     1495.181      422.396        0.193        0.111       13.301       24.763        3.466      336.938        8.577      869.133
04/07/2014  08:17:00       29.675       34.085       44.122       40.513       26.796       29.403     1641.343      718.000      864.559        0.361        0.161       45.193       28.119        0.387      336.765        8.287      869.127
04/07/2014  08:18:00       41.706       40.262       -8.701       27.011       14.004       20.139      729.604      196.102      405.587        0.238        0.067       57.969       10.334        0.032      336.279        7.473      869.138
04/07/2014  08:19:00       34.828       48.352       24.077       27.368       19.362       28.088      749.008      374.906      788.944        0.302        0.096       59.590       17.068        0.082      336.658        8.108      869.139
04/07/2014  08:20:00        2.205       27.363       43.437       21.793       20.649       21.826      474.929      426.361      476.387        0.201        0.069       27.452       15.689        0.327      337.028        8.726      869.144
04/07/2014  08:21:00       38.378       14.147       15.345       32.093       17.152       25.598     1029.967      294.180      655.261        0.194        0.099       40.903       20.681        0.256      336.877        8.474      869.146
04/07/2014  08:22:00       37.503       36.157        3.838       31.218       20.522       21.936      974.583      421.143      481.179        0.230        0.094       52.094       16.743        0.103      336.984        8.653      869.148
04/07/2014  08:23:00       20.772       44.814        7.056       39.520       27.173       25.616     1561.791      738.355      656.161        0.272        0.148       49.394       19.986        0.164      336.975        8.637      869.157
04/07/2014  08:24:00       12.381       84.079       -6.786       26.401       31.576       24.090      696.996      997.058      580.343        0.477        0.114       84.986       17.654        0.043      336.926        8.555      869.156
04/07/2014  08:25:00        4.593       35.219        9.072       28.017       30.301       27.412      784.966      918.152      751.393        0.190        0.123       35.517       21.920        0.381      337.199        9.012      869.163
04/07/2014  08:26:00       24.963       26.263       22.687       25.745       20.637       16.947      662.820      425.898      287.196        0.160        0.069       36.234       12.143        0.112      337.367        9.293      869.169
04/07/2014  08:27:00       28.719       29.969       17.327       33.896       30.786       25.764     1148.957      947.767      663.800        0.239        0.138       41.508       22.633        0.297      337.327        9.227      869.169
04/07/2014  08:28:00       30.216       25.893       11.445       32.081       37.393       24.458     1029.202     1398.245      598.189        0.237        0.151       39.793       18.095        0.207      337.178        8.977      869.173
04/07/2014  08:29:00       34.302       22.902       15.416       42.674       25.187       29.662     1821.050      634.403      879.857        0.264        0.167       41.245       30.995        0.565      337.179        8.979      869.173
04/07/2014  08:30:00       68.237       58.602        7.837       38.580       29.483       28.906     1488.448      869.220      835.584        0.567        0.160       89.947       21.318        0.056      336.988        8.660      869.171
04/07/2014  08:31:00       72.051       57.921       -0.768       29.523       26.591       23.620      871.598      707.094      557.893        0.534        0.107       92.446       17.317        0.035      336.883        8.483      869.161
04/07/2014  08:32:00       80.629       62.930       13.732       18.426       19.072       20.825      339.505      363.736      433.696        0.589        0.057      102.280       10.437        0.010      336.925        8.554      869.162
04/07/2014  08:33:00       58.086       59.507       17.303       29.080       21.520       32.693      845.663      463.125     1068.845        0.480        0.119       83.156       17.863        0.046      337.010        8.696      869.170
04/07/2014  08:34:00       38.167       49.114       35.856       34.553       26.038       20.356     1193.904      677.973      414.369        0.372        0.114       62.201       16.161        0.068      337.216        9.040      869.169
04/07/2014  08:35:00       -8.308       43.418       71.546       16.499       30.208       20.313      272.214      912.548      412.599        0.433        0.080       44.206       13.183        0.089      337.674        9.807      869.156
04/07/2014  08:36:00       43.019       73.259       18.517       30.874       23.633       40.686      953.184      558.510     1655.372        0.536        0.158       84.956       16.482        0.038      336.992        8.665      869.147
04/07/2014  08:37:00        4.013       70.811      -11.369       22.553       25.761       18.942      508.657      663.621      358.786        0.335        0.077       70.925       17.275        0.059      336.945        8.589      869.154
04/07/2014  08:38:00       31.485       28.125       18.556       29.622       24.080       21.798      877.485      579.852      475.133        0.203        0.097       42.218       16.837        0.159      337.573        9.639      869.143
04/07/2014  08:39:00       48.418       19.402       13.516       45.495       32.157       26.040     2069.777     1034.045      678.099        0.334        0.189       52.160       18.634        0.128      337.457        9.445      869.138
04/07/2014  08:40:00       68.879       52.253       21.201       51.288       30.327       23.898     2630.424      919.727      571.135        0.602        0.206       86.456       22.732        0.069      337.424        9.388      869.141
04/07/2014  08:41:00       63.711       41.463      -12.270       39.848       30.582       23.105     1587.879      935.269      533.844        0.449        0.153       76.015       22.789        0.090      336.937        8.575      869.148
04/07/2014  08:42:00       33.669       28.178       -6.558       27.914       21.614       15.189      779.205      467.187      230.703        0.172        0.074       43.905        8.862        0.041      337.178        8.978      869.150
04/07/2014  08:43:00       26.345       39.361       18.842       41.310       28.356       32.167     1706.511      804.062     1034.729        0.307        0.177       47.364       30.372        0.411      337.678        9.816      869.139
04/07/2014  08:44:00        9.211       34.203       44.511       24.809       36.219       27.577      615.480     1311.813      760.513        0.296        0.134       35.421       18.372        0.269      338.068       10.470      869.133
04/07/2014  08:45:00       15.254       20.061       14.662       40.428       22.669       20.394     1634.420      513.866      415.917        0.171        0.128       25.202       10.265        0.166      337.803       10.023      869.121
04/07/2014  08:46:00       39.106       43.746        9.271       26.263       34.111       25.317      689.723     1163.547      640.941        0.301        0.125       58.677        9.615        0.027      337.582        9.653      869.110
04/07/2014  08:47:00        4.931       28.174       47.079       26.573       38.395       28.140      706.103     1474.147      791.870        0.300        0.149       28.603       22.307        0.608      337.958       10.285      869.104
04/07/2014  08:48:00       10.346       23.809       35.757       37.908       34.733       25.676     1436.990     1206.412      659.263        0.263        0.165       25.960       16.301        0.394      338.043       10.427      869.096
04/07/2014  08:49:00       -6.471       12.311       41.253       14.195       29.186       17.899      201.500      851.829      320.386        0.163        0.069       13.908       17.075        1.507      338.609       11.377      869.098
04/07/2014  08:50:00       64.263       54.505        4.700       33.171       25.754       30.455     1100.317      663.292      927.522        0.491        0.135       84.264       14.374        0.029      337.724        9.892      869.100
04/07/2014  08:51:00       62.647       81.776        9.513       28.409       30.653       29.275      807.080      939.626      856.999        0.665        0.130      103.014       21.046        0.042      337.561        9.620      869.088
04/07/2014  08:52:00       63.325       54.064        5.273       22.479       22.572       21.285      505.315      509.506      453.066        0.421        0.073       83.264       18.343        0.049      337.449        9.433      869.092
04/07/2014  08:53:00       48.754       43.603       26.867       44.314       29.442       27.151     1963.705      866.834      737.156        0.428        0.178       65.407       19.189        0.086      337.737        9.914      869.092
04/07/2014  08:54:00       45.090       52.425       -5.121       25.563       23.500       31.143      653.486      552.228      969.876        0.349        0.109       69.148       19.905        0.083      337.567        9.628      869.097
04/07/2014  08:55:00       16.846       54.768      -15.889       18.469       26.020       23.184      341.111      677.054      537.486        0.255        0.078       57.300       16.125        0.079      337.591        9.669      869.100
04/07/2014  08:56:00       -9.357       14.600        3.189        8.907       16.503       16.609       79.340      272.359      275.872        0.047        0.031       17.341        8.211        0.224      337.990       10.338      869.092
04/07/2014  08:57:00      -17.361       -7.567       16.416       16.888       14.775       15.229      285.216      218.294      231.914        0.068        0.037       18.939        8.635        0.208      338.011       10.374      869.087
04/07/2014  08:58:00      -21.520        4.120        8.273       19.277       13.440       10.873      371.619      180.644      118.229        0.061        0.034       21.911        8.935        0.166      337.742        9.921      869.067
04/07/2014  08:59:00        0.525        7.065        7.412       31.652       11.007       18.602     1001.837      121.164      346.031        0.079        0.073        7.085        7.577        1.144      338.040       10.422      869.049
04/07/2014  09:00:00      -29.170       11.909        1.992       38.018       17.894       19.402     1445.397      320.191      376.422        0.157        0.107       31.507       21.043        0.446      337.710        9.869      869.045
04/07/2014  09:01:00      -26.317       -8.743       -3.117       17.261       15.183       11.097      297.945      230.518      123.137        0.072        0.033       27.731        8.034        0.084      337.625        9.725      869.048
04/07/2014  09:02:00        5.163       25.578       48.511       21.778       25.027       26.402      474.263      626.368      697.063        0.242        0.090       26.094       17.139        0.431      338.577       11.324      869.053
04/07/2014  09:03:00       -7.740       24.621       50.962       20.406       31.469       15.863      416.387      990.298      251.642        0.246        0.083       25.809        9.145        0.126      338.588       11.342      869.059
04/07/2014  09:04:00       -2.316      -31.213       26.586       24.580       38.226       21.601      604.168     1461.202      466.598        0.211        0.127       31.299       23.991        0.588      338.373       10.980      869.063
04/07/2014  09:05:00       19.604       10.089       51.823       42.600       74.403       44.908     1814.782     5535.773     2016.688        0.627        0.468       22.048       50.638        5.275      338.338       10.922      869.056
04/07/2014  09:06:00       80.467       37.465       36.033       36.807       37.174       35.682     1354.781     1381.940     1273.171        0.659        0.200       88.762       23.915        0.073      337.874       10.143      869.052
04/07/2014  09:07:00       13.597       47.988       62.752       31.856       31.411       21.953     1014.813      986.665      481.950        0.445        0.124       49.877       16.458        0.109      338.351       10.943      869.046
04/07/2014  09:08:00       29.820       77.470       83.071       46.486       48.592       31.032     2160.985     2361.218      963.001        0.964        0.274       83.011       23.794        0.082      338.064       10.462      869.039
04/07/2014  09:09:00       51.173       82.176       69.062       51.355       35.402       35.293     2637.308     1253.293     1245.609        0.964        0.257       96.806       28.301        0.085      338.014       10.379      869.044
04/07/2014  09:10:00       70.563       96.974       63.432       43.157       30.777       44.937     1862.554      947.202     2019.378        1.162        0.241      119.930       27.354        0.052      337.937       10.247      869.044
04/07/2014  09:11:00       41.439        2.193       42.382       47.554       59.369       37.380     2261.378     3524.650     1397.294        0.535        0.359       41.497       35.871        0.747      338.100       10.522      869.051
04/07/2014  09:12:00       49.637       54.321       64.419       34.191       30.944       26.659     1169.007      957.556      710.719        0.620        0.142       73.584       15.796        0.046      338.080       10.488      869.061
04/07/2014  09:13:00       42.059       79.328       74.261       74.149       42.697       50.273     5498.118     1823.054     2527.413        1.171        0.492       89.788       41.351        0.212      338.341       10.927      869.064
04/07/2014  09:14:00       66.845       51.351       45.349       42.962       34.716       32.953     1845.718     1205.217     1085.915        0.665        0.207       84.292       17.718        0.044      337.941       10.255      869.083
04/07/2014  09:15:00       41.262       16.149       38.876       32.723       34.120       34.507     1070.822     1164.154     1190.724        0.345        0.171       44.309       29.161        0.433      338.328       10.904      869.083
04/07/2014  09:16:00       65.790       -3.242       45.402       44.188       43.218       43.292     1952.537     1867.801     1874.195        0.605        0.285       65.870       37.087        0.317      338.342       10.928      869.088
04/07/2014  09:17:00       59.184      100.679       98.400       62.800       36.763       44.586     3943.873     1351.493     1987.869        1.530        0.364      116.786       46.496        0.159      338.071       10.475      869.083
04/07/2014  09:18:00       59.602       37.051       29.883       34.937       29.712       23.948     1220.572      882.778      573.513        0.425        0.134       70.180       22.302        0.101      338.124       10.562      869.088
04/07/2014  09:19:00       23.338       28.507       24.543       28.424       34.061       28.555      807.938     1160.183      815.360        0.237        0.139       36.841       23.266        0.399      338.499       11.191      869.081
04/07/2014  09:20:00       33.181      -13.766       49.675       51.057       53.632       35.962     2606.787     2876.441     1293.292        0.527        0.339       35.923       28.216        0.617      338.926       11.910      869.071
04/07/2014  09:21:00       25.466       72.271       70.816       39.026       43.821       43.551     1523.045     1920.303     1896.668        0.811        0.267       76.627       27.460        0.128      338.561       11.298      869.065
04/07/2014  09:22:00       -7.634       33.091        8.039       43.078       45.742       28.738     1855.756     2092.358      825.880        0.300        0.239       33.960       19.135        0.317      338.503       11.200      869.066
04/07/2014  09:23:00       -1.976       12.845       33.927       16.679       26.589       16.448      278.206      706.993      270.538        0.129        0.063       12.996       14.441        1.235      339.228       12.416      869.068
04/07/2014  09:24:00       43.680       66.710       41.921       75.571       49.136       35.844     5710.929     2414.357     1284.815        0.876        0.471       79.738       40.708        0.261      338.847       11.776      869.056
04/07/2014  09:25:00      115.686       95.252       18.389       33.917       33.703       33.320     1150.392     1135.899     1110.222        1.309        0.170      149.854       21.912        0.021      338.189       10.670      869.048
04/07/2014  09:26:00        6.728       32.308        8.409       33.133       29.505       23.275     1097.803      870.545      541.722        0.183        0.126       33.001       21.268        0.415      338.723       11.568      869.038
04/07/2014  09:27:00       67.945       61.381       53.039       32.970       38.502       28.726     1087.024     1482.387      825.187        0.730        0.170       91.565        9.821        0.012      338.529       11.243      869.030
04/07/2014  09:28:00       34.752      -31.842       -3.621       28.164       32.792       19.484      793.229     1075.297      379.607        0.224        0.112       47.134       15.585        0.109      338.564       11.301      869.029
04/07/2014  09:29:00       27.579      -45.158       10.984       38.702       70.750       42.015     1497.846     5005.532     1765.302        0.559        0.413       52.914       42.620        0.649      338.797       11.694      869.035
04/07/2014  09:30:00       58.679      -80.096      -12.174       53.005       54.024       38.059     2809.503     2918.636     1448.508        0.859        0.359       99.291       31.706        0.102      338.878       11.828      869.037
04/07/2014  09:31:00       72.590       47.472       32.170       30.801       36.836       27.367      948.732     1356.923      748.942        0.581        0.153       86.734       14.219        0.027      338.516       11.221      869.050
04/07/2014  09:32:00       25.217       18.435       30.151       28.071       23.943       25.128      787.955      573.286      631.420        0.194        0.100       31.237       16.847        0.291      338.969       11.981      869.054
04/07/2014  09:33:00      -10.526       48.989       67.684       19.373       40.172       30.005      375.324     1613.781      900.312        0.499        0.144       50.107       27.070        0.292      339.167       12.315      869.058
04/07/2014  09:34:00       20.635       21.109       67.112       38.885       53.183       25.661     1512.051     2828.387      658.485        0.519        0.250       29.520       28.581        0.937      339.449       12.791      869.063
04/07/2014  09:35:00       82.124       52.245       15.227       52.267       38.701       40.701     2731.874     1497.806     1656.568        0.779        0.294       97.334       28.707        0.087      338.926       11.910      869.072
04/07/2014  09:36:00       84.841       60.354       21.115       62.772       50.618       40.494     3940.343     2562.189     1639.752        0.971        0.407      104.119       39.999        0.148      339.137       12.265      869.072
04/07/2014  09:37:00      128.694       89.086      -14.579       46.038       30.197       28.649     2119.532      911.835      820.761        1.428        0.193      156.519       20.364        0.017      338.467       11.137      869.088
04/07/2014  09:38:00        3.788      100.532       -5.755       20.034       47.229       31.893      401.377     2230.563     1017.194        0.690        0.182      100.603       25.843        0.066      338.772       11.650      869.080
04/07/2014  09:39:00       11.300       14.127       42.202       35.115       53.477       39.638     1233.041     2859.817     1571.202        0.389        0.283       18.090       10.836        0.359      339.232       12.424      869.081
04/07/2014  09:40:00       47.290       50.396       74.902       36.588       48.190       35.105     1338.695     2322.237     1232.360        0.764        0.245       69.109       34.412        0.248      339.044       12.108      869.093
04/07/2014  09:41:00       52.415       86.548       65.762       52.925       51.773       39.467     2801.021     2680.478     1557.642        1.080        0.352      101.183       14.657        0.021      338.892       11.852      869.090
04/07/2014  09:42:00       55.729       77.351       63.188       58.283       50.960       42.608     3396.854     2596.939     1815.408        1.044        0.390       95.336       34.082        0.128      339.166       12.315      869.083
04/07/2014  09:43:00       46.028       40.423       15.290       45.122       53.513       43.908     2035.958     2863.629     1927.942        0.541        0.341       61.259       20.099        0.108      339.099       12.200      869.081
04/07/2014  09:44:00       62.436       54.833       76.431       48.833       39.313       31.607     2384.647     1545.522      998.999        0.884        0.246       83.096       19.609        0.056      339.055       12.128      869.084
04/07/2014  09:45:00       74.652       91.691       86.092       67.336       51.361       45.186     4534.111     2637.959     2041.736        1.530        0.461      118.238       38.765        0.107      339.098       12.198      869.075
04/07/2014  09:46:00       85.222       23.215       49.238       41.024       49.295       37.874     1682.940     2430.034     1434.412        0.789        0.277       88.327       35.974        0.166      339.110       12.219      869.081
04/07/2014  09:47:00       79.970       94.701      102.403       44.933       43.625       35.013     2018.953     1903.115     1225.923        1.550        0.257      123.949       26.648        0.046      338.960       11.967      869.073
04/07/2014  09:48:00       65.947       54.863       50.012       47.343       38.957       39.350     2241.405     1517.652     1548.386        0.758        0.265       85.785       28.692        0.112      338.996       12.028      869.072
04/07/2014  09:49:00       52.879       15.500       44.272       38.964       29.212       31.870     1518.224      853.360     1015.700        0.419        0.169       55.104       23.264        0.178      339.357       12.636      869.069
04/07/2014  09:50:00       46.698       52.153       21.532       60.429       52.556       43.343     3651.604     2762.097     1878.636        0.683        0.415       70.004       38.153        0.297      339.527       12.921      869.065
04/07/2014  09:51:00       33.585       55.968       55.784       33.697       58.283       49.409     1135.468     3396.916     2441.286        0.717        0.349       65.271       41.114        0.397      339.701       13.214      869.055
04/07/2014  09:52:00       99.583       70.911       25.380       49.594       45.212       49.822     2459.600     2044.111     2482.245        1.129        0.349      122.250       38.135        0.097      339.022       12.072      869.059
04/07/2014  09:53:00       55.244       38.142        3.443       66.558       40.191       31.887     4429.917     1615.280     1016.751        0.579        0.353       67.132        8.452        0.016      339.231       12.423      869.053
04/07/2014  09:54:00       55.644       78.407       89.387       68.513       54.743       55.914     4693.993     2996.818     3126.413        1.402        0.541       96.145       54.849        0.325      339.300       12.539      869.042
04/07/2014  09:55:00       91.010       71.788       55.515       62.871       43.312       47.896     3952.712     1875.940     2294.065        1.232        0.406      115.915       32.585        0.079      339.129       12.250      869.058
04/07/2014  09:56:00      148.867       59.013       26.009       45.993       47.193       33.791     2115.347     2227.146     1141.859        1.590        0.274      160.137       24.220        0.023      338.928       11.914      869.050
04/07/2014  09:57:00       58.876      -12.519       28.216       59.686       67.496       45.250     3562.411     4555.703     2047.599        0.729        0.508       60.192       34.593        0.330      339.424       12.749      869.037
04/07/2014  09:58:00       76.180       44.560       43.530       53.782       42.273       42.664     2892.536     1787.005     1820.185        0.809        0.325       88.256       33.197        0.141      339.663       13.152      869.021
04/07/2014  09:59:00       32.286       23.840       41.027       36.767       73.156       50.240     1351.812     5351.861     2524.095        0.626        0.461       40.134       32.267        0.646      339.900       13.550      868.998
04/07/2014  10:00:00       74.670       88.490       38.781       70.258       45.530       50.488     4936.188     2072.981     2549.014        1.223        0.478      115.785       42.856        0.137      339.878       13.512      868.997
04/07/2014  10:01:00       32.247       62.776       -8.175       38.854       55.857       35.032     1509.618     3119.958     1227.223        0.545        0.293       70.574       34.043        0.233      339.566       12.986      868.989
04/07/2014  10:02:00       29.859       48.038       12.009       46.183       42.524       34.279     2132.845     1808.273     1175.043        0.423        0.256       56.561       25.273        0.200      339.724       13.255      868.975
04/07/2014  10:03:00      -41.146       53.963        2.851       33.411       39.877       31.246     1116.324     1590.211      976.288        0.415        0.184       67.860       22.814        0.113      339.743       13.286      868.972
04/07/2014  10:04:00      -28.253       -0.464        5.630       38.735       30.035       21.915     1500.389      902.081      480.289        0.186        0.144       28.256       21.739        0.592      339.869       13.498      868.963
04/07/2014  10:05:00       22.128       39.230       65.722       55.026       60.928       45.593     3027.813     3712.187     2078.766        0.758        0.441       45.040       43.420        0.929      340.404       14.401      868.965
04/07/2014  10:06:00        8.434       20.685       42.343       35.989       67.784       46.860     1295.188     4594.626     2195.848        0.519        0.404       22.338       39.289        3.093      340.173       14.011      868.955
04/07/2014  10:07:00       14.699       28.060       30.859       40.906       54.919       35.195     1673.316     3016.070     1238.657        0.394        0.296       31.677       25.401        0.643      340.353       14.315      868.963
04/07/2014  10:08:00       90.047       81.722       30.949       57.844       49.512       41.829     3345.898     2451.480     1749.625        1.164        0.377      121.602       20.092        0.027      339.903       13.555      868.956
04/07/2014  10:09:00       79.123       92.977       64.153       54.998       43.938       43.669     3024.759     1930.553     1906.981        1.294        0.343      122.087       31.324        0.066      339.788       13.361      868.957
04/07/2014  10:10:00       48.676       -3.501       67.818       66.826       69.800       38.969     4465.774     4872.049     1518.622        0.892        0.543       48.802       41.600        0.727      340.313       14.247      868.935
04/07/2014  10:11:00       66.713       88.052       79.999       70.241       66.065       52.312     4933.830     4364.628     2736.511        1.532        0.602      110.471       49.931        0.204      340.241       14.126      868.920
04/07/2014  10:12:00      157.028      120.818       77.827       73.495       54.851       52.698     5401.580     3008.675     2777.039        2.825        0.559      198.128       45.936        0.054      339.673       13.163      868.917
04/07/2014  10:13:00       95.139       81.875       28.054       50.325       56.058       43.222     2532.569     3142.503     1868.135        1.204        0.377      125.519       34.245        0.074      339.750       13.297      868.919
04/07/2014  10:14:00       53.447      147.336      142.934       72.065       66.145       53.221     5193.369     4375.203     2832.474        2.870        0.620      156.731       43.302        0.076      339.947       13.627      868.916
04/07/2014  10:15:00       54.698       86.576       82.038       62.618       64.959       65.511     3921.054     4219.641     4291.719        1.482        0.622      102.407       59.953        0.343      340.083       13.859      868.919
04/07/2014  10:16:00        9.605      106.794      131.410       79.505       62.837       53.827     6320.968     3948.451     2897.393        2.096        0.658      107.225       54.492        0.258      340.497       14.556      868.899
04/07/2014  10:17:00       38.132       76.362       31.038       76.176       49.542       56.501     5802.825     2454.374     3192.404        0.985        0.572       85.353       49.120        0.331      340.624       14.773      868.893
04/07/2014  10:18:00       86.655       68.334       68.929       72.500       74.432       69.600     5256.312     5540.147     4844.215        1.628        0.782      110.356       63.261        0.329      340.690       14.884      868.883
04/07/2014  10:19:00       51.160       92.201      126.051       75.303       67.209       48.375     5670.610     4517.066     2340.149        1.977        0.626      105.444       48.531        0.212      340.385       14.368      868.879
04/07/2014  10:20:00       89.542       29.060       48.031       51.894       45.901       39.391     2692.937     2106.917     1551.637        0.876        0.318       94.139       34.073        0.131      340.157       13.984      868.877
04/07/2014  10:21:00       71.216       66.756       58.837       53.209       45.598       57.810     2831.172     2079.191     3341.998        1.062        0.413       97.612       52.760        0.292      340.299       14.223      868.858
04/07/2014  10:22:00       81.898       33.080       51.120       74.465       95.787       51.433     5545.042     9175.189     2645.401        1.389        0.868       88.326       58.922        0.445      340.329       14.274      868.841
04/07/2014  10:23:00      225.698      160.847       36.916       82.228       69.754       51.601     6761.363     4865.583     2662.640        4.623        0.714      277.149       37.208        0.018      340.151       13.971      868.835
04/07/2014  10:24:00      168.463      106.764       34.205      110.031       80.963       62.372    12106.716     6554.936     3890.219        3.175        1.128      199.445       26.656        0.018      340.589       14.713      868.826
04/07/2014  10:25:00      127.608       82.527       37.236      105.719       95.604       72.086    11176.539     9140.219     5196.400        2.499        1.276      151.969       64.085        0.178      340.635       14.789      868.824
04/07/2014  10:26:00      195.685      100.812       41.549      108.830       65.534       49.682    11843.973     4294.699     2468.328        3.439        0.930      220.127       35.058        0.025      340.334       14.281      868.836
04/07/2014  10:27:00      172.925      109.380       35.903      103.498       80.425       73.339    10711.894     6468.112     5378.569        3.285        1.128      204.615       59.927        0.086      340.133       13.939      868.829
04/07/2014  10:28:00       60.599       91.875      106.724       70.869       65.615       59.407     5022.372     4305.350     3529.245        1.818        0.643      110.060       47.666        0.188      340.311       14.242      868.820
04/07/2014  10:29:00       84.656       84.392       28.175       84.371       59.677       40.322     7118.494     3561.378     1625.830        1.369        0.615      119.535       43.780        0.134      340.381       14.360      868.813
04/07/2014  10:30:00       93.346       79.187       74.315       86.550       73.065       49.350     7490.833     5338.557     2435.407        1.788        0.763      122.410       23.372        0.036      340.933       15.294      868.802
04/07/2014  10:31:00      128.728      112.340       21.131       54.899       51.443       56.130     3013.890     2646.363     3150.553        1.922        0.441      170.854       33.048        0.037      340.799       15.067      868.796
04/07/2014  10:32:00       48.925      102.068       58.857       74.532       52.946       57.666     5554.955     2803.230     3325.359        1.398        0.584      113.188       42.372        0.140      341.219       15.780      868.783
04/07/2014  10:33:00      126.573       70.837       10.061       48.411       55.901       37.384     2343.645     3124.974     1397.553        1.400        0.343      145.047       10.355        0.005      340.649       14.816      868.787
04/07/2014  10:34:00       59.911       29.466       13.107       50.369       35.339       37.417     2537.071     1248.874     1400.023        0.491        0.259       66.765       26.021        0.152      340.943       15.312      868.773
04/07/2014  10:35:00       11.057       34.258       71.094       35.412       33.293       30.098     1254.026     1108.402      905.905        0.481        0.163       35.999       20.520        0.325      341.682       16.564      868.772
04/07/2014  10:36:00       21.389       16.322       72.301       43.394       84.432       45.787     1883.034     7128.680     2096.415        0.853        0.555       26.905       47.709        3.144      341.460       16.188      868.752
04/07/2014  10:37:00       85.413       82.584       88.707       71.221       71.007       39.931     5072.469     5042.049     1594.495        1.684        0.585      118.809       36.811        0.096      341.103       15.581      868.755
04/07/2014  10:38:00       89.795       53.798       53.685       65.620       65.770       47.044     4305.948     4325.750     2213.124        1.234        0.542      104.677       43.337        0.171      341.041       15.477      868.754
04/07/2014  10:39:00       43.863       51.095       45.954       60.072       37.187       34.600     3608.658     1382.845     1197.128        0.642        0.309       67.340       29.344        0.190      341.440       16.155      868.753
04/07/2014  10:40:00       30.410        0.335       17.986       37.641       46.320       38.564     1416.851     2145.499     1487.171        0.315        0.252       30.412       21.806        0.514      341.472       16.207      868.747
04/07/2014  10:41:00       68.308       40.785       13.831       74.139       44.836       39.794     5496.521     2010.255     1583.547        0.780        0.455       79.558       40.384        0.258      341.402       16.091      868.733
04/07/2014  10:42:00       54.660       71.536      105.556      102.447      141.758       66.568    10495.354    20095.335     4431.262        2.713        1.751       90.029       78.671        0.764      341.405       16.095      868.733
04/07/2014  10:43:00      167.658      124.346       93.483       98.746       91.290       76.561     9750.750     8333.863     5861.570        3.812        1.197      208.736       58.935        0.080      340.971       15.358      868.731
04/07/2014  10:44:00      165.883      112.468        5.865       63.739       46.036       46.473     4062.610     2119.297     2159.721        2.427        0.417      200.415       23.197        0.013      340.781       15.035      868.748
04/07/2014  10:45:00       71.734       17.234       52.773       77.911       76.258       54.630     6070.175     5815.258     2984.462        1.155        0.743       73.775       41.260        0.313      341.295       15.908      868.759
04/07/2014  10:46:00       11.603       22.540       72.251       73.765       81.374       48.201     5441.315     6621.782     2323.382        1.012        0.719       25.352       46.883        3.420      341.620       16.458      868.743
04/07/2014  10:47:00       96.913       91.401       49.882       91.764       54.161       78.365     8420.661     2933.450     6141.100        1.886        0.875      133.215       61.471        0.213      341.230       15.798      868.743
04/07/2014  10:48:00       84.611       59.655        5.256       62.815       45.374       40.256     3945.741     2058.769     1620.582        0.918        0.381      103.526       24.787        0.057      341.419       16.118      868.727
04/07/2014  10:49:00      115.609       82.805       28.207       78.687       53.135       48.435     6191.715     2823.300     2345.921        1.619        0.568      142.204       34.977        0.060      341.300       15.916      868.714
04/07/2014  10:50:00      157.129       96.398       43.235       51.373       51.772       50.510     2639.217     2680.382     2551.262        2.186        0.394      184.342       23.867        0.017      341.269       15.862      868.689
04/07/2014  10:51:00       46.054       10.474       23.913       94.011       84.348       41.585     8838.123     7114.596     1729.323        1.024        0.884       47.230       28.826        0.372      341.695       16.586      868.681
04/07/2014  10:52:00       44.362        0.426       33.849       84.062      127.413       80.203     7066.409    16234.138     6432.559        1.642        1.487       44.364       86.701        3.819      341.762       16.700      868.668
04/07/2014  10:53:00      182.933      144.021       87.397       71.130       66.900       58.135     5059.418     4475.566     3379.670        3.738        0.646      232.823       42.948        0.034      341.099       15.574      868.668
04/07/2014  10:54:00      126.316       74.329       33.473       77.245       67.189       51.175     5966.723     4514.319     2618.904        1.785        0.655      146.562       32.064        0.048      341.314       15.940      868.663
04/07/2014  10:55:00      132.740       61.455       30.458       74.799       50.234       43.415     5594.846     2523.412     1884.873        1.616        0.500      146.276       30.060        0.042      341.455       16.179      868.658
04/07/2014  10:56:00       59.141       50.295        3.695       40.006       35.252       35.404     1600.446     1242.695     1253.425        0.507        0.205       77.635       18.755        0.058      341.579       16.390      868.642
04/07/2014  10:57:00      121.444       87.036       38.363       74.330       56.702       48.813     5524.987     3215.126     2382.689        1.746        0.556      149.412       22.240        0.022      341.691       16.578      868.639
04/07/2014  10:58:00      154.489      135.972       44.356       97.285       56.340       71.124     9464.454     3174.220     5058.636        3.101        0.885      205.804       26.018        0.016      341.341       15.984      868.640
04/07/2014  10:59:00      169.309       98.030       37.327       57.280       66.123       52.795     3281.055     4372.206     2787.275        2.505        0.522      195.641       23.253        0.014      341.429       16.133      868.624
04/07/2014  11:00:00      173.165       92.390       20.796       65.136       55.179       52.054     4242.707     3044.757     2709.595        2.447        0.500      196.270       14.308        0.005      341.574       16.379      868.617
04/07/2014  11:01:00       49.755        5.268       27.773       89.268       90.948       50.400     7968.720     8271.599     2540.180        1.102        0.939       50.033       48.910        0.956      341.997       17.099      868.615
04/07/2014  11:02:00       83.786     -107.777        6.471       80.956       93.709       63.901     6553.801     8781.300     4083.333        1.904        0.971      136.513       61.382        0.202      341.884       16.905      868.612
04/07/2014  11:03:00      107.588       82.905      108.771       84.574      106.242       78.606     7152.728    11287.303     6178.961        2.744        1.231      135.825       78.219        0.332      341.738       16.656      868.608
04/07/2014  11:04:00      110.324       39.234       51.559      121.686       68.609       63.022    14807.547     4707.195     3971.731        1.992        1.174      117.092       49.601        0.179      341.845       16.840      868.596
04/07/2014  11:05:00      121.859       89.312       34.144       84.074       80.503       76.936     7068.406     6480.759     5919.084        2.173        0.973      151.084       35.791        0.056      341.795       16.755      868.582
04/07/2014  11:06:00      107.070       93.004      109.420       85.045       71.321       68.768     7232.590     5086.615     4729.060        2.456        0.852      141.823       48.322        0.116      341.429       16.134      868.584
04/07/2014  11:07:00      183.960       78.095       14.678       91.058       59.790       60.819     8291.525     3574.818     3698.939        2.786        0.778      199.850       40.381        0.041      341.396       16.078      868.572
04/07/2014  11:08:00      111.628       39.739       49.903      139.352      117.196       65.097    19418.858    13734.970     4237.590        2.695        1.870      118.491       45.503        0.147      341.794       16.752      868.530
04/07/2014  11:09:00      119.939       47.076       32.240       99.874      117.259       65.687     9974.847    13749.681     4314.835        2.283        1.402      128.847       42.901        0.111      341.702       16.596      868.540
04/07/2014  11:10:00      145.332      120.901       20.543       44.254       38.226       42.826     1958.396     1461.216     1834.074        2.071        0.263      189.047       26.484        0.020      341.358       16.013      868.542
04/07/2014  11:11:00      129.506       96.627       40.423       69.001       56.519       44.691     4761.148     3194.374     1997.261        1.885        0.498      161.582       35.349        0.048      341.643       16.497      868.542
04/07/2014  11:12:00       92.874       46.366       77.154      118.849       87.789       55.501    14125.027     7706.907     3080.396        2.082        1.246      103.805       48.880        0.222      341.873       16.888      868.528
04/07/2014  11:13:00      145.561       83.597       40.631       81.151       66.574       56.866     6585.542     4432.135     3233.690        2.204        0.713      167.858       22.900        0.019      341.718       16.622      868.509
04/07/2014  11:14:00       66.624       12.861       20.357       95.852      101.794       54.835     9187.645    10362.100     3006.919        1.378        1.128       67.854       41.782        0.379      342.002       17.106      868.513
04/07/2014  11:15:00       60.131     -106.810       31.009       69.084      133.911       69.908     4772.614    17932.077     4887.163        2.178        1.380      122.573       79.276        0.418      342.093       17.261      868.506
04/07/2014  11:16:00      123.861     -198.899       -6.190       76.297       98.239       61.087     5821.209     9650.920     3731.580        3.707        0.960      234.313       57.784        0.061      341.739       16.658      868.488
04/07/2014  11:17:00      105.315     -112.549       22.306       75.359      139.523       90.985     5678.958    19466.597     8278.340        2.883        1.671      154.138      106.245        0.475      342.093       17.260      868.478
04/07/2014  11:18:00       80.131      -29.212       83.200       93.983      129.110       93.057     8832.841    16669.393     8659.648        2.417        1.708       85.290      104.116        1.490      342.079       17.236      868.462
04/07/2014  11:19:00       63.213      -80.812       53.403       98.979      137.054       65.310     9796.837    18783.813     4265.366        2.311        1.642      102.599       80.662        0.618      342.199       17.441      868.461
04/07/2014  11:20:00      117.982     -165.914       20.977       84.901       99.241       92.019     7208.248     9848.816     8467.407        3.370        1.276      203.586       75.859        0.139      341.872       16.883      868.462
04/07/2014  11:21:00       63.734      -99.809       25.592       61.164       83.801       49.065     3740.977     7022.623     2407.353        1.392        0.659      118.422       45.021        0.145      341.994       17.093      868.474
04/07/2014  11:22:00       73.858      -25.471       50.300       78.786      117.822       59.412     6207.216    13882.077     3529.843        1.612        1.181       78.127       65.656        0.706      341.990       17.087      868.471
04/07/2014  11:23:00       76.251       42.510       74.674       55.914       99.572       68.568     3126.422     9914.515     4701.580        1.547        0.887       87.300       70.181        0.646      341.768       16.710      868.462
04/07/2014  11:24:00       28.932       89.244       92.669       60.469       47.880       40.305     3656.460     2292.514     1624.532        1.248        0.379       93.817       30.979        0.109      341.813       16.787      868.455
04/07/2014  11:25:00       24.055       14.547       47.564       28.674       24.747       17.884      822.203      612.404      319.823        0.240        0.088       28.112       13.884        0.244      342.034       17.160      868.431
04/07/2014  11:26:00        0.607      -17.886       31.246       25.826       39.490       30.961      666.990     1559.493      958.560        0.224        0.159       17.896       13.990        0.611      341.945       17.010      868.404
04/07/2014  11:27:00       42.081       52.763       70.254       58.964       44.359       40.700     3476.712     1967.705     1656.513        0.829        0.355       67.489       23.605        0.122      342.197       17.439      868.390
04/07/2014  11:28:00       -5.723        2.186       22.435       32.689       39.631       32.180     1068.597     1570.642     1035.539        0.211        0.184        6.126       17.616        8.268      342.200       17.444      868.365
04/07/2014  11:29:00       87.645       65.949       40.783       75.244       54.908       53.183     5661.718     3014.846     2828.385        1.260        0.575      109.685       37.905        0.119      341.988       17.084      868.353
04/07/2014  11:30:00       76.327       37.470       21.293       61.434       65.661       41.547     3774.108     4311.382     1726.140        0.875        0.491       85.028       20.201        0.056      341.666       16.537      868.346
04/07/2014  11:31:00       38.537       36.795       -8.291       35.816       56.026       26.235     1282.775     3138.918      688.265        0.401        0.255       53.282       13.230        0.062      341.903       16.939      868.325
04/07/2014  11:32:00       61.907       61.303       14.572       41.143       43.243       30.956     1692.722     1869.920      958.261        0.616        0.226       87.123       18.704        0.046      342.093       17.262      868.314
04/07/2014  11:33:00       94.490       84.516       17.379       54.629       45.538       41.729     2984.338     2073.752     1741.338        1.159        0.340      126.773       21.567        0.029      342.197       17.437      868.309
04/07/2014  11:34:00      136.838       74.211       29.650      102.898       73.791       50.340    10587.962     5445.117     2534.091        2.184        0.928      155.666       24.712        0.025      342.253       17.531      868.291
04/07/2014  11:35:00      149.383      113.874      101.554      124.173       74.902       74.099    15418.934     5610.262     5490.654        3.605        1.326      187.837       70.095        0.139      342.609       18.136      868.259
04/07/2014  11:36:00      146.823      135.294      101.114      144.999       95.145       76.603    21024.851     9052.533     5868.063        4.301        1.797      199.654       70.788        0.126      342.329       17.661      868.268
04/07/2014  11:37:00      190.854      148.238       42.776       82.140       63.660       74.493     6746.996     4052.535     5549.207        3.829        0.817      241.661       42.454        0.031      341.770       16.710      868.272
04/07/2014  11:38:00      229.351      167.642       33.637       94.093       78.115       62.957     8853.498     6101.908     3963.532        5.037        0.946      284.088       37.784        0.018      341.979       17.065      868.255
04/07/2014  11:39:00      205.122      125.826       -0.749      114.224       66.335       58.677    13047.214     4400.278     3442.967        3.939        1.045      240.639       41.022        0.029      341.957       17.027      868.264
04/07/2014  11:40:00       58.115      104.156      -11.978       61.326       68.789       46.721     3760.843     4731.938     2182.889        1.252        0.534      119.272       35.096        0.087      342.213       17.465      868.248
04/07/2014  11:41:00      121.915       91.211        9.901       55.726       41.896       40.706     3105.438     1755.259     1656.985        1.490        0.326      152.259       13.993        0.008      342.185       17.416      868.251
04/07/2014  11:42:00      115.745       92.012       15.893       91.028       70.331       44.423     8286.128     4946.428     1973.421        1.866        0.760      147.861        9.807        0.004      342.235       17.502      868.242
04/07/2014  11:43:00       33.344       85.902        9.516       80.255       97.264       46.889     6440.917     9460.234     2198.587        1.334        0.905       92.147       32.908        0.128      342.321       17.648      868.232
04/07/2014  11:44:00       24.029      179.847      -18.653       43.388       75.161       43.863     1882.509     5649.174     1924.002        2.136        0.473      181.445       36.896        0.041      342.153       17.362      868.222
04/07/2014  11:45:00       49.964       80.663       20.504       47.819       78.437       48.177     2286.641     6152.408     2321.033        1.009        0.538       94.884       31.063        0.107      342.542       18.024      868.206
04/07/2014  11:46:00       60.759      -23.118       35.167       68.378       92.543       71.650     4675.537     8564.287     5133.772        1.191        0.919       65.009       68.216        1.101      342.685       18.267      868.220
04/07/2014  11:47:00       65.409      -92.808       21.048       75.676       96.719       53.833     5726.853     9354.614     2898.014        1.565        0.899      113.542       58.197        0.263      342.525       17.996      868.207
04/07/2014  11:48:00       56.739     -137.574       -2.625       77.601       80.265       53.385     6021.934     6442.422     2849.939        1.873        0.766      148.815       45.132        0.092      342.365       17.724      868.171
04/07/2014  11:49:00       18.371      -12.428       27.728       68.691       56.157       52.139     4718.512     3153.585     2718.492        0.592        0.530       22.181       32.439        2.139      342.938       18.699      868.146
04/07/2014  11:50:00       38.740      111.048      105.808       73.720       81.055       65.886     5434.639     6569.981     4340.937        2.068        0.817      117.612       59.618        0.257      342.773       18.415      868.116
04/07/2014  11:51:00       84.452       28.710       57.214       73.450      134.173       65.974     5394.850    18002.492     4352.615        1.948        1.387       89.199       75.354        0.714      342.362       17.718      868.113
04/07/2014  11:52:00       21.347      -15.770       25.114       38.046       44.753       37.351     1447.526     2002.852     1395.122        0.309        0.242       26.540       20.143        0.576      343.046       18.882      868.109
04/07/2014  11:53:00      153.996      -68.434       40.960      107.944      122.931       78.714    11651.808    15112.143     6195.889        3.151        1.648      168.517       76.965        0.209      342.861       18.564      868.088
04/07/2014  11:54:00       98.660     -121.456       42.211      106.650      169.391       87.654    11374.118    28693.452     7683.199        3.700        2.388      156.478       97.677        0.390      342.871       18.583      868.076
04/07/2014  11:55:00       28.848      -42.811       48.841       71.771       90.231       71.453     5151.017     8141.675     5105.519        1.172        0.920       51.623       50.359        0.952      342.713       18.314      868.078
04/07/2014  11:56:00        7.247      -80.010       31.086       40.261       73.238       38.797     1620.973     5363.766     1505.219        0.795        0.424       80.338       34.853        0.188      342.939       18.700      868.101
04/07/2014  11:57:00       36.473      -65.595        6.028       41.701       56.016       42.766     1738.954     3137.792     1828.963        0.619        0.335       75.053       44.215        0.347      342.674       18.250      868.082
04/07/2014  11:58:00      155.776      124.230       45.044       91.404       65.953       75.493     8354.654     4349.773     5699.182        3.006        0.920      199.247       59.778        0.090      342.337       17.673      868.065
04/07/2014  11:59:00      179.149      120.334       47.650      119.163       71.011       62.239    14199.765     5042.497     3873.656        3.598        1.156      215.812       22.948        0.011      342.471       17.902      868.037
04/07/2014  12:00:00      159.910       78.309       16.163      127.078       91.569       55.785    16148.855     8384.879     3111.941        2.980        1.382      178.054       56.144        0.099      342.603       18.126      868.032
04/07/2014  12:01:00       97.896        9.805       89.512      123.170      137.042      108.007    15170.832    18780.379    11665.561        3.165        2.281       98.385      106.984        1.182      342.819       18.493      868.039
04/07/2014  12:02:00       99.167      -77.080       48.653       97.187      172.197       78.731     9445.345    29651.692     6198.496        3.171        2.265      125.600      108.358        0.744      342.746       18.372      868.038
04/07/2014  12:03:00      195.633     -217.578      -23.727       90.922      120.607       50.304     8266.823    14546.122     2530.457        5.575        1.267      292.596       58.471        0.040      342.388       17.759      868.017
04/07/2014  12:04:00      102.875     -242.908      -22.348       75.106       80.075       44.318     5640.949     6411.989     1964.070        4.205        0.701      263.794       45.586        0.030      342.417       17.809      868.008
04/07/2014  12:05:00      190.401     -203.685       13.929       99.210      153.010       94.967     9842.592    23411.918     9018.742        6.010        2.114      278.819      104.896        0.142      342.414       17.803      867.997
04/07/2014  12:06:00      137.057      -51.954       54.437      120.193      108.875       85.637    14446.305    11853.804     7333.698        2.903        1.682      146.573       90.550        0.382      342.491       17.935      868.002
04/07/2014  12:07:00       93.983       53.329       40.238      100.496       83.230       65.616    10099.518     6927.309     4305.410        1.731        1.067      108.060       42.447        0.154      343.004       18.810      867.968
04/07/2014  12:08:00      248.478      171.587       63.692      139.215       82.981       60.367    19380.881     6885.832     3644.164        6.257        1.496      301.966       60.674        0.040      342.366       17.724      867.952
04/07/2014  12:09:00      234.557      100.130       96.062       94.435      136.375       78.241     8917.875    18598.032     6121.601        5.395        1.682      255.035       65.467        0.066      342.519       17.983      867.940
04/07/2014  12:10:00        4.117      -70.323       54.686       58.199      134.525       67.647     3387.077    18096.952     4576.173        1.700        1.303       70.443       70.462        1.001      342.844       18.537      867.910
04/07/2014  12:11:00      116.840       90.563       57.775      118.091       81.050       64.021    13945.399     6569.060     4098.640        2.490        1.231      147.828       51.077        0.119      342.754       18.383      867.891
04/07/2014  12:12:00       87.271       55.449       48.697       83.198       60.702       51.883     6921.871     3684.708     2691.895        1.318        0.665      103.396       45.981        0.198      343.091       18.959      867.882
04/07/2014  12:13:00       84.128       48.412       61.913       71.219       77.824       44.627     5072.117     6056.542     1991.555        1.318        0.656       97.063       42.672        0.193      342.868       18.579      867.850
04/07/2014  12:14:00       21.439       35.883       92.159       64.793       89.777       57.703     4198.070     8059.915     3329.582        1.291        0.779       41.799       52.717        1.591      343.083       18.945      867.849
04/07/2014  12:15:00       72.643      -25.295       77.555       97.382      187.647      112.685     9483.280    35211.298    12697.885        3.465        2.870       76.921      135.919        3.122      343.194       19.131      867.869
04/07/2014  12:16:00      277.408     -362.345      -46.089       85.829      113.758       62.574     7366.591    12940.871     3915.504       11.729        1.211      456.344       63.536        0.019      342.584       18.092      867.869
04/07/2014  12:17:00      115.296     -133.413      -21.992      103.964      107.303       39.686    10808.508    11513.937     1574.946        2.773        1.195      176.330       51.578        0.086      342.452       17.868      867.888
04/07/2014  12:18:00       93.788     -182.960       12.973      130.732      159.482       88.835    17090.912    25434.635     7891.698        4.642        2.521      205.598       88.063        0.183      342.934       18.688      867.865
04/07/2014  12:19:00       66.837      -29.017       91.690       87.778      132.617       78.893     7705.065    17587.275     6224.114        2.261        1.576       72.864       89.012        1.492      343.285       19.287      867.861
04/07/2014  12:20:00      179.760     -154.221        9.815      114.104      153.564       93.877    13019.759    23581.792     8812.944        5.080        2.271      236.850      115.980        0.240      342.896       18.622      867.866
04/07/2014  12:21:00       92.371     -194.729      -33.883      103.052      103.111       48.195    10619.655    10631.942     2322.764        3.558        1.179      215.527       44.236        0.042      342.672       18.243      867.876
04/07/2014  12:22:00       16.195      -65.441      -18.101       41.071       89.110       33.736     1686.816     7940.523     1138.107        0.782        0.538       67.415       42.925        0.405      342.905       18.642      867.839
04/07/2014  12:23:00       55.049       91.219       49.005       58.501       52.372       52.641     3422.317     2742.858     2771.101        1.134        0.447      106.542       33.375        0.098      342.890       18.617      867.809
04/07/2014  12:24:00       55.842       33.608       60.934      104.414       54.415       36.639    10902.194     2960.991     1342.398        1.158        0.760       65.175       42.612        0.427      343.268       19.260      867.813
04/07/2014  12:25:00      125.075       94.111      102.712      100.563       84.557       67.565    10112.859     7149.875     4565.037        2.843        1.091      156.527       37.745        0.058      343.064       18.909      867.804
04/07/2014  12:26:00       71.640      113.754      118.156       89.101       63.073       53.573     7939.055     3978.262     2870.095        2.341        0.739      134.433       30.507        0.051      343.092       18.959      867.780
04/07/2014  12:27:00      187.045     -186.767      -28.323      145.932      185.661      118.331    21296.239    34470.124    14002.181        7.021        3.488      264.325      132.379        0.251      342.903       18.637      867.767
04/07/2014  12:28:00      142.800     -128.788      -18.665      100.427      149.857       90.878    10085.491    22457.198     8258.793        3.906        2.040      192.297       91.377        0.226      343.029       18.850      867.786
04/07/2014  12:29:00       91.816     -105.264      -12.765       81.183       98.002       68.180     6590.640     9604.458     4648.447        2.025        1.042      139.680       55.438        0.158      342.933       18.689      867.791
04/07/2014  12:30:00      158.557      -40.213       40.848      102.083      122.539       76.006    10421.031    15015.889     5776.891        2.981        1.561      163.577       92.376        0.319      342.828       18.508      867.792
04/07/2014  12:31:00       94.406       89.384       40.314       74.963       37.382       41.048     5619.382     1397.427     1684.904        1.361        0.435      130.008       32.404        0.062      342.642       18.193      867.772
04/07/2014  12:32:00       37.758        1.855       17.070       52.901       36.281       30.725     2798.478     1316.315      944.005        0.339        0.253       37.804       19.022        0.253      343.267       19.259      867.751
04/07/2014  12:33:00       35.092      -29.192       23.552       39.710       51.797       41.645     1576.887     2682.956     1734.316        0.432        0.300       45.646       39.588        0.752      343.182       19.115      867.747
04/07/2014  12:34:00       58.384        0.343       32.906       61.301       44.259       45.820     3757.838     1958.878     2099.435        0.615        0.391       58.385       41.621        0.508      343.121       19.010      867.748
04/07/2014  12:35:00       45.325       47.370       67.594       68.605       64.880       50.329     4706.636     4209.401     2533.036        1.016        0.572       65.561       45.764        0.487      343.289       19.297      867.724
04/07/2014  12:36:00      101.678       44.243       97.407       87.999      102.908       63.819     7743.800    10589.971     4072.918        2.209        1.120      110.887       68.799        0.385      343.199       19.141      867.733
04/07/2014  12:37:00       37.081     -121.958      -12.968       56.525       45.691       26.268     3195.041     2087.710      690.027        1.119        0.299      127.471       12.867        0.010      342.482       17.922      867.754
04/07/2014  12:38:00      -96.431       -5.239       -6.079       48.114       43.079       29.287     2314.913     1855.819      857.739        0.719        0.251       96.573       20.092        0.043      342.924       18.674      867.707
04/07/2014  12:39:00     -101.942      155.341       -7.394       49.664       56.184       43.161     2466.490     3156.666     1862.861        2.103        0.374      185.804       34.999        0.035      343.081       18.940      867.673
04/07/2014  12:40:00      -49.938       37.204        9.589       47.962       38.804       34.946     2300.355     1505.756     1221.239        0.450        0.251       62.273       33.949        0.297      343.475       19.614      867.654
04/07/2014  12:41:00      -39.014        5.439       14.465       52.269       44.142       28.552     2732.064     1948.558      815.231        0.363        0.275       39.391       21.809        0.307      343.478       19.619      867.625
04/07/2014  12:42:00      -66.075      -47.686       -8.761       64.569       35.856       26.889     4169.197     1285.652      723.013        0.645        0.309       81.485       18.111        0.049      343.052       18.893      867.580
04/07/2014  12:43:00      -81.244      -42.689       -0.178       76.870       41.833       25.418     5909.043     1749.996      646.065        0.836        0.415       91.776       24.456        0.071      343.256       19.240      867.540
04/07/2014  12:44:00       25.983      -14.234       18.909       34.727       65.253       37.702     1205.932     4258.000     1421.449        0.406        0.344       29.627       31.004        1.095      343.662       19.932      867.557
04/07/2014  12:45:00       16.305      -20.511       45.073       45.134       69.251       51.899     2037.119     4795.709     2693.487        0.612        0.476       26.202       27.453        1.098      343.834       20.225      867.551
04/07/2014  12:46:00       34.041     -156.644      -15.022       99.448      183.902       81.190     9889.852    33819.940     6591.762        3.810        2.515      160.300       61.725        0.148      343.358       19.412      867.471
04/07/2014  12:47:00      158.128     -178.462       -1.822       90.544      163.379       92.764     8198.292    26692.836     8605.206        5.017        2.175      238.439      103.297        0.188      343.396       19.476      867.520
04/07/2014  12:48:00      142.840      -29.553       83.146      118.139      148.649       89.786    13956.771    22096.613     8061.581        3.614        2.206      145.865       95.776        0.431      343.239       19.208      867.519
04/07/2014  12:49:00      135.120      -32.419       66.431      131.010      156.412       94.283    17163.646    24464.822     8889.312        3.711        2.526      138.955      105.407        0.575      343.314       19.336      867.503
04/07/2014  12:50:00      108.868      -92.001       32.393      110.987      193.661      114.013    12318.115    37504.733    12999.027        4.208        3.141      142.536      109.649        0.592      343.564       19.762      867.484
04/07/2014  12:51:00      234.371     -210.276        1.781      146.211      230.691      128.718    21377.568    53218.430    16568.312        9.514        4.558      314.874      148.689        0.223      343.303       19.317      867.477
04/07/2014  12:52:00       96.156      -52.990       52.350       95.891      198.766       91.835     9195.176    39507.853     8433.620        3.595        2.857      109.791      120.583        1.206      343.311       19.332      867.518
04/07/2014  12:53:00      127.160     -155.924      -24.650      116.432      147.880       88.767    13556.356    21868.608     7879.607        4.219        2.165      201.201      106.730        0.281      343.117       19.001      867.511
04/07/2014  12:54:00      135.110     -194.850      -20.671      155.755      172.007       89.135    24259.706    29586.415     7944.960        5.921        3.090      237.110      109.313        0.213      343.327       19.360      867.490
04/07/2014  12:55:00      197.588      -75.621       61.872      150.448      223.288      114.118    22634.459    49857.745    13022.981        6.703        4.276      211.564      143.254        0.458      343.174       19.096      867.493
04/07/2014  12:56:00       86.606      -73.798       33.342      103.643      130.470       66.557    10741.807    17022.292     4429.772        2.312        1.610      113.784       82.382        0.524      343.148       19.053      867.494
04/07/2014  12:57:00      164.629     -137.546       -8.316       82.296      111.179       56.207     6772.708    12360.764     3159.272        3.419        1.115      214.526       60.565        0.080      343.146       19.050      867.507
04/07/2014  12:58:00       78.017     -104.277        1.738       39.134       61.170       33.181     1531.480     3741.759     1100.960        1.167        0.319      130.232       29.452        0.051      342.935       18.693      867.486
04/07/2014  12:59:00       46.915      -84.772      -13.532       51.454       40.254       30.674     2647.464     1620.413      940.893        0.739        0.260       96.888       21.818        0.051      342.976       18.764      867.448
04/07/2014  13:00:00       -8.654      -25.635        1.067       23.736       34.162       24.226      563.378     1167.029      586.905        0.152        0.116       27.056       16.268        0.361      343.285       19.289      867.423
04/07/2014  13:01:00        9.387      -60.710      -11.473       48.794       29.001       19.968     2380.813      841.053      398.720        0.376        0.181       61.431       13.146        0.046      343.052       18.893      867.417
04/07/2014  13:02:00       20.934      -36.318       10.915       26.044       26.155       20.259      678.303      684.087      410.408        0.182        0.089       41.919        9.780        0.054      343.516       19.683      867.425
04/07/2014  13:03:00       53.251       60.117       18.373       42.240       41.925       31.286     1784.242     1757.681      978.807        0.565        0.226       80.310       26.911        0.112      343.391       19.469      867.407
04/07/2014  13:04:00       53.388     -119.675        4.792      103.019      114.295       74.956    10612.935    13063.272     5618.347        2.324        1.465      131.043       70.725        0.291      343.701       19.996      867.408
04/07/2014  13:05:00      154.651     -186.035       10.839      149.409      133.992       77.901    22322.924    17953.933     6068.577        5.249        2.317      241.922       83.108        0.118      343.632       19.877      867.408
04/07/2014  13:06:00       35.842     -192.940      -11.371       79.545      104.680       60.775     6327.400    10957.838     3693.585        2.981        1.049      196.241       48.052        0.060      343.584       19.796      867.413
04/07/2014  13:07:00      -70.486        8.249        9.173       71.263       40.743       30.330     5078.447     1659.991      919.913        0.639        0.383       70.967       26.443        0.139      343.732       20.052      867.379
04/07/2014  13:08:00       -7.162      -12.702        6.025       87.443       45.562       33.961     7646.202     2075.905     1153.326        0.556        0.544       14.582       33.008        5.124      343.566       19.768      867.368
04/07/2014  13:09:00       91.688     -147.531      -29.741       83.667      102.288       56.218     7000.089    10462.789     3160.434        2.584        1.031      173.701       53.694        0.096      343.409       19.497      867.341
04/07/2014  13:10:00      114.889      -49.800       28.424      105.802       87.676       62.197    11194.080     7687.049     3868.506        1.961        1.137      125.218       57.697        0.212      343.484       19.628      867.363
04/07/2014  13:11:00      156.873     -163.129       18.887      180.238      237.224       94.694    32485.738    56275.001     8966.914        7.463        4.886      226.319      134.055        0.351      343.385       19.457      867.337
04/07/2014  13:12:00      204.405     -206.797      -23.012      129.567      164.666       80.956    16787.583    27114.733     6553.932        6.776        2.523      290.769       83.428        0.082      343.358       19.410      867.324
04/07/2014  13:13:00      236.939     -280.264      -17.258      136.800      200.205       90.339    18714.284    40082.212     8161.182       10.096        3.348      366.998      110.217        0.090      343.289       19.292      867.328
04/07/2014  13:14:00      251.923     -297.126      -20.308      106.745      107.248       69.426    11394.418    11502.124     4819.995        8.993        1.386      389.549       60.972        0.024      343.381       19.448      867.343
04/07/2014  13:15:00      104.201      -20.838       70.468      114.339       96.615       89.305    13073.497     9334.506     7975.448        2.331        1.519      106.265       83.721        0.621      343.811       20.185      867.355
04/07/2014  13:16:00       79.288      -62.882       50.276      106.448      131.935       79.266    11331.211    17406.958     6283.102        2.389        1.751      101.197       75.833        0.562      343.806       20.177      867.356
04/07/2014  13:17:00      134.984      -16.305       79.808      132.121      110.997       86.578    17455.916    12320.242     7495.665        3.106        1.864      135.965       91.654        0.454      343.554       19.746      867.380
04/07/2014  13:18:00      176.084     -109.722        7.694       92.892       87.047       73.545     8628.955     7577.257     5408.861        3.236        1.081      207.472       71.257        0.118      343.290       19.295      867.393
04/07/2014  13:19:00       70.831       -0.933       37.343       78.385       72.059       52.003     6144.234     5192.545     2704.301        1.022        0.702       70.837       21.926        0.096      343.332       19.370      867.383
04/07/2014  13:20:00      109.112       86.211       22.405       97.685       78.846       41.636     9542.300     6216.692     1733.587        1.866        0.875      139.060       46.058        0.110      343.444       19.558      867.370
04/07/2014  13:21:00       97.150      116.573       -1.255       74.068       57.480       56.951     5486.019     3303.963     3243.371        1.753        0.602      151.748       34.286        0.051      343.279       19.277      867.363
04/07/2014  13:22:00      114.111       75.629       26.426       55.407       32.601       47.259     3069.965     1062.851     2233.375        1.290        0.318      136.898       32.503        0.056      343.314       19.337      867.345
04/07/2014  13:23:00      136.387       76.534       25.412       98.744       77.960       51.680     9750.355     6077.837     2670.844        2.180        0.925      156.393       25.400        0.026      343.499       19.650      867.336
04/07/2014  13:24:00        0.842       72.214        3.088       64.207       85.254       42.627     4122.527     7268.274     1817.087        0.921        0.660       72.219       41.905        0.337      343.571       19.776      867.320
04/07/2014  13:25:00       33.414       73.871      -11.260       48.623       58.936       49.223     2364.223     3473.447     2422.904        0.748        0.413       81.077       43.297        0.285      343.562       19.760      867.285
04/07/2014  13:26:00       -2.813       90.716       -4.264       33.767       70.269       33.158     1140.243     4937.736     1099.467        0.771        0.359       90.759       32.397        0.127      343.716       20.023      867.280
04/07/2014  13:27:00       32.313       16.415       40.997       72.682       40.551       39.144     5282.743     1644.406     1532.225        0.573        0.423       36.243       14.642        0.163      344.062       20.615      867.265
04/07/2014  13:28:00       97.611      109.779       88.811       93.655       63.754       53.355     8771.224     4064.579     2846.726        2.257        0.784      146.899       53.896        0.135      343.840       20.233      867.246
04/07/2014  13:29:00       25.112        5.543       44.633       27.265       42.760       44.017      743.398     1828.426     1937.458        0.358        0.225       25.716       35.806        1.939      343.920       20.372      867.245
04/07/2014  13:30:00       44.807       -5.954        9.794       42.188       42.582       33.847     1779.799     1813.197     1145.623        0.344        0.237       45.201       11.200        0.061      343.633       19.883      867.247
04/07/2014  13:31:00       24.816       -4.636        7.505       40.736       63.456       32.596     1659.458     4026.627     1062.523        0.372        0.337       25.245       35.128        1.936      343.617       19.854      867.260
04/07/2014  13:32:00       -2.873      -85.216        3.895       43.563       41.544       41.476     1897.777     1725.916     1720.250        0.631        0.267       85.264       28.662        0.113      343.803       20.170      867.244
04/07/2014  13:33:00     -102.590      -39.377       -8.309       76.246       46.878       37.755     5813.411     2197.506     1425.420        1.079        0.472      109.887       33.170        0.091      343.638       19.893      867.228
04/07/2014  13:34:00     -125.582      -37.178        1.113       76.246       54.375       32.845     5813.401     2956.668     1078.772        1.350        0.492      130.970       33.555        0.066      343.787       20.143      867.195
04/07/2014  13:35:00     -183.002      -32.924        0.312       83.437       57.448       38.456     6961.662     3300.229     1478.850        2.315        0.587      185.940       42.544        0.052      343.546       19.733      867.170
04/07/2014  13:36:00     -141.957      -68.124       -4.675       63.230       62.719       34.345     3997.977     3933.731     1179.589        1.696        0.456      157.457       29.337        0.035      343.690       19.979      867.141
04/07/2014  13:37:00      -86.806      -45.194      -12.383       47.054       53.214       27.214     2214.066     2831.752      740.601        0.776        0.289       97.867       11.881        0.015      343.585       19.800      867.143
04/07/2014  13:38:00       -5.083      -39.706        3.631       36.895       34.005       32.403     1361.243     1156.349     1049.980        0.259        0.178       40.030       29.136        0.530      343.852       20.257      867.137
04/07/2014  13:39:00      -38.606      -17.780       13.784       61.122       53.841       40.375     3735.917     2898.821     1630.157        0.513        0.413       42.503       39.468        0.862      343.780       20.133      867.150
04/07/2014  13:40:00       71.663       49.135       19.993       75.153       59.262       50.288     5647.971     3511.999     2528.885        0.982        0.584       86.889       45.140        0.270      343.866       20.280      867.145
04/07/2014  13:41:00       93.551       30.989       54.289       95.734      103.003       86.493     9165.052    10609.588     7481.087        1.995        1.363       98.550       73.343        0.554      343.917       20.366      867.106
04/07/2014  13:42:00       11.189       67.909      109.116       73.751       91.312       66.207     5439.222     8337.924     4383.386        1.740        0.908       68.825       63.415        0.849      344.126       20.723      867.107
04/07/2014  13:43:00       64.839      -41.271       37.772       72.917      130.350       66.773     5316.863    16991.095     4458.700        1.704        1.338       76.859       82.973        1.165      343.800       20.166      867.109
04/07/2014  13:44:00      -19.266        1.359        3.152       45.060       51.625       39.748     2030.397     2665.131     1579.932        0.333        0.314       19.314       35.552        3.388      343.552       19.746      867.101
04/07/2014  13:45:00       31.314       21.984       24.732       44.600       28.798       26.062     1989.201      829.310      679.252        0.279        0.175       38.260        7.500        0.038      344.102       20.683      867.064
04/07/2014  13:46:00       33.963      -88.268      -10.768       97.158       81.271       36.495     9439.607     6605.024     1331.906        1.322        0.869       94.576       53.427        0.319      343.892       20.322      867.073
04/07/2014  13:47:00      137.942     -139.347       26.279      104.487      183.724       83.412    10917.582    33754.640     6957.508        4.537        2.581      196.075       99.331        0.257      343.939       20.403      867.042
04/07/2014  13:48:00      110.919      120.072       30.918      100.878       73.123       68.419    10176.304     5346.921     4681.107        2.394        1.010      163.464       32.573        0.040      343.819       20.198      867.066
04/07/2014  13:49:00      164.060       84.025       37.316       67.427       75.296       58.041     4546.353     5669.531     3368.763        2.447        0.679      184.326       36.184        0.039      343.900       20.335      867.067
04/07/2014  13:50:00      154.224      116.049       47.677       44.219       38.032       52.470     1955.299     1446.447     2753.059        2.284        0.308      193.009       25.889        0.018      343.642       19.896      867.062
04/07/2014  13:51:00      225.602      146.957       54.338      104.537       89.756       72.035    10928.078     8056.079     5188.976        4.980        1.209      269.244       40.811        0.023      343.998       20.503      867.049
04/07/2014  13:52:00       85.779       40.123       27.525      105.280       97.396       46.898    11083.944     9486.054     2199.381        1.624        1.138       94.699       53.734        0.322      343.901       20.338      867.060
04/07/2014  13:53:00       30.127       13.855       26.783       45.420       39.194       45.419     2062.935     1536.146     2062.890        0.374        0.283       33.160       34.793        1.101      344.107       20.693      867.026
04/07/2014  13:54:00      148.969      110.291       29.652       70.032       57.018       47.215     4904.421     3251.054     2229.274        2.281        0.519      185.353       20.402        0.012      344.033       20.564      866.991
04/07/2014  13:55:00       92.170      113.323        7.862       80.805       72.987       58.255     6529.494     5327.124     3393.681        1.832        0.763      146.073       41.343        0.080      343.934       20.395      866.989
04/07/2014  13:56:00      103.848      106.612       47.513       92.921       69.935       62.750     8634.275     4890.856     3937.530        2.093        0.873      148.831       40.260        0.073      343.631       19.876      866.976
04/07/2014  13:57:00      141.499       80.183       63.371       85.593      100.454       68.085     7326.167    10091.094     4635.589        2.626        1.103      162.639       66.788        0.169      343.606       19.835      866.962
04/07/2014  13:58:00       -0.140       -5.937       31.705       35.630       30.702       24.262     1269.475      942.628      588.641        0.192        0.140        5.939       17.234        8.421      344.186       20.825      866.938
04/07/2014  13:59:00       21.324      -76.497        4.833       37.903       94.861       39.767     1436.640     8998.572     1581.449        0.917        0.601       79.413       26.230        0.109      344.131       20.730      866.912
04/07/2014  14:00:00        9.781     -166.254        4.031       80.542      102.815       55.894     6486.990    10570.896     3124.168        2.396        1.009      166.541       40.525        0.059      344.115       20.704      866.854
04/07/2014  14:01:00       93.394       90.433       83.556      114.383       68.946       51.727    13083.408     4753.557     2675.674        2.219        1.026      130.002       52.424        0.163      344.176       20.808      866.888
04/07/2014  14:02:00      235.920      137.619       35.760      111.439       78.930       61.833    12418.607     6229.871     3823.293        4.917        1.124      273.125       52.956        0.038      343.887       20.311      866.859
04/07/2014  14:03:00      272.225      131.392       24.054      103.985       96.173       73.262    10812.814     9249.239     5367.340        5.868        1.271      302.276       47.968        0.025      343.926       20.378      866.805
04/07/2014  14:04:00      150.784       89.587       84.191      101.602       86.301       60.832    10322.940     7447.884     3700.524        2.966        1.074      175.390       48.038        0.075      344.467       21.304      866.807
04/07/2014  14:05:00       31.269       -3.602       71.256       48.593       85.425       54.576     2361.271     7297.409     2978.499        0.935        0.632       31.475       59.469        3.570      344.536       21.424      866.813
04/07/2014  14:06:00       77.541      -73.128       21.571       92.572      153.041       63.437     8569.614    23421.549     4024.239        2.391        1.801      106.584       60.190        0.319      344.401       21.192      866.799
04/07/2014  14:07:00      143.937      126.800      107.674      105.487       84.133       69.260    11127.525     7078.434     4797.002        3.569        1.150      191.823       63.301        0.109      343.897       20.328      866.801
04/07/2014  14:08:00      100.538       21.137       51.785       96.982      106.609       75.190     9405.425    11365.477     5653.471        1.983        1.321      102.736       65.976        0.412      344.148       20.760      866.791
04/07/2014  14:09:00       96.538       93.575       96.366       90.447       73.866       54.945     8180.600     5456.144     3018.955        2.201        0.833      134.447       31.686        0.056      344.104       20.683      866.788
04/07/2014  14:10:00       81.267       38.976       29.359       78.525       75.718       42.958     6166.221     5733.282     1845.430        1.136        0.687       90.131       42.038        0.218      343.959       20.438      866.770
04/07/2014  14:11:00       44.376     -168.002      -24.979       67.228       74.387       40.896     4519.637     5533.396     1672.457        2.127        0.586      173.764       38.512        0.049      343.849       20.249      866.767
04/07/2014  14:12:00       86.716     -129.883      -12.547       81.348      112.339       61.246     6617.495    12620.132     3751.076        2.376        1.149      156.171       70.806        0.206      343.884       20.310      866.744
04/07/2014  14:13:00       11.156       23.694       93.966       50.411       80.558       57.116     2541.259     6489.551     3262.236        1.090        0.615       26.189       59.465        5.156      344.326       21.065      866.714
04/07/2014  14:14:00      -45.363      -42.199        6.173       72.589       51.155       36.025     5269.139     2616.855     1297.784        0.653        0.459       61.956       31.884        0.265      344.489       21.345      866.714
04/07/2014  14:15:00      -17.957     -107.428        1.103       81.569       69.064       43.994     6653.507     4769.897     1935.502        1.261        0.668      108.918       42.072        0.149      344.485       21.336      866.696
04/07/2014  14:16:00      -52.945     -163.401      -13.896       98.453      120.882       46.715     9693.080    14612.480     2182.256        2.809        1.324      171.764       64.651        0.142      344.189       20.830      866.692
04/07/2014  14:17:00       27.663      -61.774       34.161       54.316       67.782       49.256     2950.279     4594.334     2426.150        0.786        0.499       67.685       35.667        0.278      344.694       21.696      866.701
04/07/2014  14:18:00       54.087      -76.426       10.432       66.582       65.887       55.160     4433.209     4341.038     3042.656        1.034        0.591       93.629       47.940        0.262      344.055       20.603      866.707
04/07/2014  14:19:00      -15.044      -53.527       -2.822       34.662       34.234       25.663     1201.437     1171.957      658.571        0.307        0.152       55.601       13.488        0.059      344.224       20.892      866.697
04/07/2014  14:20:00       26.362        5.604       30.588       62.441       24.971       27.602     3898.916      623.537      761.845        0.347        0.264       26.951       10.366        0.148      344.735       21.764      866.688
04/07/2014  14:21:00      -79.852      -74.957        2.662      114.541       68.313       41.075    13119.561     4666.649     1687.152        1.573        0.974      109.521       47.607        0.189      344.455       21.286      866.685
04/07/2014  14:22:00     -103.765      -86.840       -3.630       89.028       68.117       43.891     7925.986     4639.909     1926.420        1.640        0.725      135.308       46.731        0.119      344.154       20.770      866.661
04/07/2014  14:23:00      -24.291      -54.820       -2.379       51.000       54.529       36.994     2601.006     2973.365     1368.541        0.527        0.347       59.961       27.707        0.214      344.472       21.315      866.652
04/07/2014  14:24:00      -34.719      -14.425        5.867       62.804       38.132       27.806     3944.322     1454.037      773.163        0.381        0.309       37.597        9.433        0.063      344.553       21.453      866.638
04/07/2014  14:25:00      -46.015      -35.753        3.666       65.367       35.820       33.374     4272.803     1283.086     1113.829        0.504        0.333       58.272       23.208        0.159      344.089       20.660      866.617
04/07/2014  14:26:00      -42.572      -64.247        5.002       48.412       35.652       30.892     2343.709     1271.045      954.322        0.527        0.228       77.071       15.574        0.041      344.217       20.880      866.606
04/07/2014  14:27:00       14.131      -33.711       36.429       36.120       55.888       35.537     1304.640     3123.427     1262.880        0.418        0.285       36.553       24.511        0.450      344.312       21.042      866.613
04/07/2014  14:28:00      119.955       62.115       54.414       63.407       63.557       48.549     4020.400     4039.545     2357.045        1.581        0.521      135.083       25.668        0.036      343.785       20.140      866.596
04/07/2014  14:29:00       75.160       58.274       52.108       76.885       52.834       47.711     5911.347     2791.396     2276.372        1.137        0.549       95.105       45.186        0.226      343.963       20.444      866.576
04/07/2014  14:30:00       13.252      -21.266       22.227       42.521       60.396       33.699     1808.016     3647.670     1135.648        0.386        0.330       25.057       36.918        2.171      343.948       20.420      866.561
04/07/2014  14:31:00       19.985      -39.346       21.467       31.261       51.439       36.481      977.259     2645.995     1330.879        0.368        0.248       44.131       38.147        0.747      343.989       20.489      866.545
04/07/2014  14:32:00      170.509       89.610       38.336      101.442       62.583       56.184    10290.532     3916.633     3156.601        2.796        0.868      192.622       39.805        0.043      344.009       20.522      866.532
04/07/2014  14:33:00       96.927       28.636       66.523      110.539      148.185       85.181    12218.835    21958.928     7255.777        2.803        2.072      101.068       94.923        0.882      343.954       20.426      866.528
04/07/2014  14:34:00       60.752      -98.628       27.696       68.416      110.700       49.741     4680.761    12254.415     2474.169        1.679        0.970      115.837       60.544        0.273      344.144       20.753      866.487
04/07/2014  14:35:00       81.144      101.935      110.993       73.059       73.932       67.103     5337.623     5465.916     4502.781        2.230        0.765      130.289       60.457        0.215      344.000       20.507      866.487
04/07/2014  14:36:00      121.048     -104.950       43.864       87.946      154.438       97.526     7734.433    23851.027     9511.260        3.434        2.055      160.210      105.930        0.437      344.066       20.619      866.479
04/07/2014  14:37:00       94.453       13.392       77.780      101.580      155.547       94.336    10318.439    24194.731     8899.304        2.927        2.171       95.398      109.876        1.327      344.400       21.190      866.476
04/07/2014  14:38:00      151.373      179.503      139.583      132.881      117.040      101.087    17657.473    13698.362    10218.656        5.809        2.079      234.808       99.419        0.179      344.072       20.626      866.493
04/07/2014  14:39:00       67.365      -25.038       33.067       48.015       88.549       43.670     2305.417     7840.953     1907.101        0.915        0.603       71.868       46.325        0.415      344.169       20.798      866.530
04/07/2014  14:40:00        7.526      -15.299       28.540       39.893       75.902       53.854     1591.455     5761.053     2900.271        0.568        0.513       17.050       46.731        7.512      344.057       20.605      866.521
04/07/2014  14:41:00       63.580       28.279       41.227       51.189       58.190       43.688     2620.301     3386.020     1908.617        0.723        0.396       69.586       36.003        0.268      344.061       20.612      866.526
04/07/2014  14:42:00       70.084      -34.589       26.878       50.489       65.132       49.151     2549.134     4242.159     2415.777        0.802        0.460       78.155       52.031        0.443      343.960       20.442      866.519
04/07/2014  14:43:00        7.198      -54.933      -12.955       47.160       28.658       24.587     2224.077      821.255      604.529        0.344        0.182       55.403       14.943        0.073      343.895       20.329      866.507
04/07/2014  14:44:00        4.074       -6.120       21.270       19.805       40.183       22.276      392.250     1614.664      496.233        0.150        0.125        7.352       24.456       11.064      344.305       21.030      866.484
04/07/2014  14:45:00        0.997      -17.289       21.795       37.163       35.008       23.387     1381.121     1225.560      546.970        0.196        0.158       17.318       17.547        1.027      344.689       21.687      866.459
04/07/2014  14:46:00       31.742       10.613       23.430       48.735       58.374       30.195     2375.109     3407.528      911.739        0.418        0.335       33.469       18.656        0.311      344.327       21.066      866.444
04/07/2014  14:47:00       41.247       74.299       82.800       47.297       58.602       29.649     2237.048     3434.175      879.055        1.031        0.328       84.981       26.712        0.099      344.236       20.912      866.434
04/07/2014  14:48:00       26.792      -26.977        2.400       39.626       56.951       27.535     1570.199     3243.461      758.186        0.351        0.279       38.021       13.995        0.135      344.040       20.577      866.439
04/07/2014  14:49:00       37.384      -64.784       27.290       40.731       56.662       30.261     1659.050     3210.575      915.703        0.606        0.289       74.796       34.832        0.217      344.102       20.682      866.414
04/07/2014  14:50:00       21.766       33.153       12.706       28.819       27.877       32.166      830.513      777.152     1034.623        0.219        0.132       39.660       23.176        0.342      344.387       21.168      866.393
04/07/2014  14:51:00       17.386       27.630       -9.251       32.229       46.784       33.467     1038.704     2188.780     1120.040        0.275        0.217       32.645       18.041        0.305      344.275       20.977      866.393
04/07/2014  14:52:00       33.228       83.141       -9.470       51.824       39.523       42.275     2685.747     1562.098     1787.205        0.707        0.302       89.535       31.665        0.125      344.234       20.908      866.379
04/07/2014  14:53:00       83.433       42.180       12.793       35.295       33.893       27.496     1245.750     1148.712      756.050        0.603        0.158       93.489       14.695        0.025      344.358       21.119      866.363
04/07/2014  14:54:00       73.992       11.229       43.231       68.450      106.745       59.419     4685.361    11394.523     3530.651        1.354        0.981       74.839       65.263        0.760      344.463       21.299      866.363
04/07/2014  14:55:00       46.948      -34.000       20.884       49.505       73.665       39.785     2450.701     5426.523     1582.881        0.663        0.473       57.966       33.272        0.329      344.374       21.147      866.344
04/07/2014  14:56:00       87.287       72.941      113.842       96.619      150.371       88.616     9335.226    22611.469     7852.779        3.284        1.990      113.752      105.744        0.864      344.527       21.406      866.305
04/07/2014  14:57:00       91.318      -29.503       57.676       91.866       99.566       64.607     8439.279     9913.433     4174.052        1.753        1.126       95.965       61.780        0.414      344.527       21.408      866.303
04/07/2014  14:58:00      114.047       17.502       53.043       77.087      109.679       62.172     5942.447    12029.456     3865.383        1.898        1.092      115.382       47.325        0.168      344.584       21.504      866.281
04/07/2014  14:59:00      146.392      118.099      117.741      101.825       93.759       75.104    10368.373     8790.789     5640.626        3.702        1.240      188.090       60.802        0.104      344.206       20.857      866.269
04/07/2014  15:00:00      110.734      161.260      151.844      139.318      106.475       94.982    19409.388    11336.838     9021.620        5.054        1.988      195.619       86.819        0.197      344.439       21.256      866.245
04/07/2014  15:01:00       40.051      117.762      144.893       93.038      104.722       84.288     8655.987    10966.611     7104.442        3.159        1.336      124.387       73.345        0.348      344.376       21.148      866.255
04/07/2014  15:02:00       52.845      -17.871       75.056       90.566      131.031       64.947     8202.267    17169.032     4218.131        1.916        1.479       55.785       71.448        1.640      344.606       21.544      866.255
04/07/2014  15:03:00       37.833       20.545       75.742       80.364      117.890       72.546     6458.440    13898.054     5262.936        1.660        1.281       43.052       81.325        3.568      344.597       21.529      866.266
04/07/2014  15:04:00       89.022       69.579       86.354       89.954      126.343       68.519     8091.740    15962.451     4694.862        2.448        1.437      112.987       74.698        0.437      344.429       21.240      866.240
04/07/2014  15:05:00      110.237       76.763       36.406       73.075       46.324       36.712     5340.015     2145.911     1347.803        1.410        0.442      134.331       37.735        0.079      344.050       20.594      866.237
04/07/2014  15:06:00       83.152       31.371       60.532       64.919       95.218       72.913     4214.428     9066.453     5316.317        1.508        0.930       88.873       71.527        0.648      344.214       20.874      866.208
04/07/2014  15:07:00      127.518      -40.750       46.609      102.958      110.790       70.691    10600.401    12274.453     4997.257        2.398        1.394      133.871       76.209        0.324      344.328       21.068      866.199
04/07/2014  15:08:00       59.029      -25.163       47.261       54.850       60.951       44.557     3008.502     3715.084     1985.334        0.753        0.435       64.169       45.466        0.502      344.323       21.061      866.192
04/07/2014  15:09:00      169.503     -131.395       18.945       90.719      114.935       78.149     8229.947    13210.011     6107.301        3.695        1.377      214.466       83.402        0.151      344.455       21.283      866.160
04/07/2014  15:10:00      102.185       35.055       39.755       90.696      112.150       57.187     8225.826    12577.570     3270.390        1.866        1.204      108.031       38.201        0.125      344.485       21.335      866.158
04/07/2014  15:11:00      308.227      134.856       34.805      125.615      126.682       87.955    15779.191    16048.394     7736.110        7.697        1.978      336.437       70.632        0.044      344.457       21.286      866.156
04/07/2014  15:12:00      120.583      132.633        3.779      147.968       88.474       76.385    21894.431     7827.693     5834.701        3.384        1.778      179.253       51.998        0.084      344.414       21.215      866.096
04/07/2014  15:13:00      250.839      161.163      105.287      169.168      126.807      114.857    28617.739    16080.066    13192.137        7.892        2.894      298.151       58.026        0.038      344.628       21.580      866.007
04/07/2014  15:14:00      130.102     -179.437        2.370      121.334      129.032       86.780    14722.058    16649.157     7530.747        4.401        1.945      221.640       76.142        0.118      344.678       21.664      866.074
04/07/2014  15:15:00      158.953       43.788       92.737      126.682      163.746       93.890    16048.286    26812.827     8815.320        4.372        2.584      164.874      101.924        0.382      344.771       21.823      866.093
04/07/2014  15:16:00       98.788       44.004      109.374      139.088      117.989       90.696    19345.392    13921.497     8225.674        3.257        2.075      108.145       94.048        0.756      344.720       21.737      866.078
04/07/2014  15:17:00       88.284       99.626      146.147      116.466      131.927       78.544    13564.340    17404.762     6169.226        3.810        1.857      133.114       87.303        0.430      344.523       21.402      866.076
04/07/2014  15:18:00      131.141       94.277      136.144       96.079      110.796       82.585     9231.176    12275.817     6820.206        3.647        1.416      161.512       69.923        0.187      344.385       21.163      866.091
04/07/2014  15:19:00       67.690      136.397      119.749       91.599      111.987       72.831     8390.401    12541.131     5304.337        3.188        1.312      152.270       70.874        0.217      344.328       21.067      866.074
04/07/2014  15:20:00       87.752      -49.855       47.125      102.378      148.063       80.813    10481.332    21922.763     6530.798        2.566        1.947      100.925       87.866        0.758      344.689       21.683      866.080
04/07/2014  15:21:00       80.015       -5.836       90.233      122.471      135.536       71.108    14999.078    18369.964     5056.367        2.649        1.921       80.228       94.052        1.374      344.634       21.590      866.055
04/07/2014  15:22:00       31.728       22.051       81.914       89.094      102.807       61.357     7937.669    10569.354     3764.734        1.523        1.114       38.639       60.451        2.448      344.721       21.742      866.063
04/07/2014  15:23:00       62.149        0.910       45.854       60.093       79.078       40.790     3611.192     6253.322     1663.853        0.874        0.576       62.156       29.661        0.228      344.621       21.569      866.069
04/07/2014  15:24:00       26.107      -39.493       10.862       82.506      104.756       55.612     6807.199    10973.868     3092.664        1.161        1.044       47.342       61.685        1.698      344.635       21.594      866.032
04/07/2014  15:25:00       62.457       51.274      100.004      114.752      127.136       74.783    13168.115    16163.575     5592.447        2.572        1.746       80.807       63.742        0.622      344.600       21.531      866.010
04/07/2014  15:26:00       89.949      -97.027       16.478       76.953       96.229       54.064     5921.804     9259.960     2922.918        1.794        0.905      132.307       37.461        0.080      344.686       21.678      866.020
04/07/2014  15:27:00       10.301       -1.179       38.430       42.684       54.299       39.330     1821.940     2948.425     1546.822        0.395        0.316       10.368       32.982       10.120      344.709       21.721      866.005
04/07/2014  15:28:00       17.023       -9.019       43.451       62.130       71.871       32.300     3860.176     5165.440     1043.263        0.616        0.503       19.265       16.916        0.771      344.955       22.141      865.983
04/07/2014  15:29:00       77.150       57.209       29.208       68.873       57.875       53.689     4743.499     3349.520     2882.492        1.052        0.549       96.047       36.581        0.145      344.819       21.909      865.960
04/07/2014  15:30:00      150.570       85.276       15.203       77.742       67.855       60.290     6043.786     4604.276     3634.889        2.223        0.714      173.041       32.381        0.035      344.679       21.667      865.933
04/07/2014  15:31:00      158.375       89.409       46.784       95.755       87.050       52.820     9169.098     7577.686     2789.935        2.740        0.977      181.870       43.720        0.058      344.779       21.839      865.929
04/07/2014  15:32:00      110.036       91.567       15.543       72.634       58.692       56.349     5275.667     3444.757     3175.232        1.631        0.595      143.152       30.480        0.045      344.789       21.856      865.915
04/07/2014  15:33:00      124.060      110.475       98.430      119.107      108.158       82.717    14186.546    11698.245     6842.090        3.500        1.636      166.120       74.890        0.203      344.520       21.393      865.888
04/07/2014  15:34:00      107.842       -3.245       71.632       96.399       98.334       73.917     9292.767     9669.648     5463.721        2.059        1.221      107.891       75.175        0.485      344.395       21.180      865.879
04/07/2014  15:35:00      125.099     -210.509      -14.277       86.522      130.885       76.618     7486.020    17130.929     5870.350        4.532        1.524      244.876       74.007        0.091      344.596       21.526      865.855
04/07/2014  15:36:00      173.660     -228.470      -50.709       57.067       59.723       42.623     3256.600     3566.831     1816.752        4.678        0.432      286.978       27.927        0.009      344.372       21.140      865.846
04/07/2014  15:37:00       39.042       33.571       66.148       67.806       98.574       75.755     4597.671     9716.805     5738.764        1.354        1.003       51.490       77.155        2.245      344.551       21.448      865.857
04/07/2014  15:38:00       71.220       67.689       60.185       45.649       63.430       64.679     2083.873     4023.400     4183.414        1.178        0.515       98.256       44.454        0.205      344.376       21.151      865.862
04/07/2014  15:39:00      164.074       78.470       49.564       81.568       99.466       57.578     6653.357     9893.492     3315.202        2.769        0.993      181.873       43.318        0.057      344.605       21.541      865.847
04/07/2014  15:40:00       81.358       99.580       82.082       64.683       48.140       54.417     4183.946     2317.505     2961.183        1.637        0.473      128.589       41.546        0.104      344.583       21.505      865.832
04/07/2014  15:41:00      108.330       49.686       -7.777       71.288       49.003       37.550     5082.049     2401.269     1409.973        1.158        0.445      119.181       16.298        0.019      344.748       21.785      865.816
04/07/2014  15:42:00      137.011       93.495       31.871       75.331       61.878       48.916     5674.729     3828.833     2392.750        2.021        0.595      165.872       47.550        0.082      344.834       21.931      865.787
04/07/2014  15:43:00       59.449      136.534      109.787      110.496      107.381      116.442    12209.410    11530.720    13558.834        3.576        1.865      148.915       96.912        0.424      344.741       21.772      865.746
04/07/2014  15:44:00      182.406      169.287      144.715      123.053      131.710      108.506    15142.154    17347.579    11773.474        6.356        2.213      248.857      101.238        0.165      344.181       20.814      865.726
04/07/2014  15:45:00      103.417       57.642        5.899      104.387       82.518       55.098    10896.723     6809.167     3035.737        1.739        1.037      118.396       31.567        0.071      344.631       21.586      865.720
04/07/2014  15:46:00      117.943       90.013       18.224       77.793       73.301       57.146     6051.722     5373.040     3265.654        1.851        0.735      148.367       26.402        0.032      344.588       21.512      865.710
04/07/2014  15:47:00       74.512       41.638       25.279       57.727       69.925       46.871     3332.434     4889.486     2196.853        0.917        0.521       85.357       35.613        0.174      344.685       21.679      865.725
04/07/2014  15:48:00       21.319       -4.736        4.550       43.589       47.350       32.953     1900.029     2242.012     1085.874        0.286        0.261       21.839       33.574        2.363      344.455       21.286      865.727
04/07/2014  15:49:00      -57.711       11.566       -4.582       62.183       36.124       21.116     3866.721     1304.925      445.893        0.455        0.281       58.859       23.407        0.158      344.524       21.403      865.690
04/07/2014  15:50:00      -29.421       19.898      -12.832       23.170       22.936       16.826      536.848      526.039      283.106        0.139        0.067       35.518       11.043        0.097      344.486       21.338      865.642
04/07/2014  15:51:00       26.770       43.715       -4.925       23.205       28.896       22.603      538.494      834.996      510.887        0.227        0.094       51.261       17.994        0.123      344.546       21.443      865.608
04/07/2014  15:52:00       28.507       22.078        0.408       24.971       18.515       16.697      623.573      342.806      278.789        0.127        0.062       36.057        8.006        0.049      344.549       21.447      865.604
04/07/2014  15:53:00       47.947      -73.583      -13.934       44.473       30.557       26.603     1977.835      933.700      707.718        0.576        0.181       87.825       19.914        0.051      343.825       20.208      865.601
04/07/2014  15:54:00       95.916     -113.649       -7.443       54.458       58.276       29.313     2965.625     3396.109      859.262        1.469        0.361      148.714       22.451        0.023      344.507       21.374      865.576
04/07/2014  15:55:00       25.206      -30.974       28.088      103.456       84.895       48.788    10703.197     7207.109     2380.313        1.133        1.015       39.934       54.091        1.835      344.945       22.125      865.529
04/07/2014  15:56:00       57.068       72.863       61.117       58.807       51.152       44.760     3458.272     2616.556     2003.454        1.019        0.404       92.551       29.501        0.102      344.626       21.578      865.505
04/07/2014  15:57:00       93.744       73.040       26.260       74.157       58.177       41.342     5499.246     3384.586     1709.161        1.270        0.530      118.840       32.902        0.077      344.863       21.983      865.503
04/07/2014  15:58:00       55.542       54.782        3.952       84.038       58.070       51.396     7062.348     3372.067     2641.589        0.959        0.654       78.013       43.433        0.310      345.024       22.257      865.490
04/07/2014  15:59:00      127.582       64.420       27.694       93.034       65.334       44.640     8655.342     4268.568     1992.752        1.805        0.746      142.923       33.102        0.054      345.143       22.462      865.490
04/07/2014  16:00:00       32.213      -66.689        8.779       68.907      123.419       51.740     4748.160    15232.159     2676.989        1.411        1.133       74.061       50.455        0.464      344.980       22.185      865.498
04/07/2014  16:01:00       32.276      -67.255       14.530       59.127       57.765       36.882     3495.989     3336.777     1360.291        0.698        0.410       74.599       29.536        0.157      345.328       22.780      865.475
04/07/2014  16:02:00      -66.037      -15.130        5.234       39.815       37.069       26.991     1585.243     1374.099      728.496        0.415        0.184       67.748       22.070        0.106      345.447       22.985      865.442
04/07/2014  16:03:00       21.888      -54.663        8.594       77.281       75.018       29.732     5972.286     5627.633      883.988        0.801        0.624       58.882       30.636        0.271      345.324       22.772      865.407
04/07/2014  16:04:00       65.827     -114.280       24.268       41.806       62.156       34.528     1747.743     3863.402     1192.207        1.239        0.340      131.882       24.914        0.036      345.227       22.608      865.393
04/07/2014  16:05:00       77.228     -124.063       -4.881       76.053       96.680       60.469     5784.103     9347.053     3656.552        2.008        0.939      146.136       60.514        0.171      345.447       22.981      865.377
04/07/2014  16:06:00       85.068     -144.057      -13.565       70.191      126.354       71.105     4926.756    15965.376     5055.861        2.706        1.297      167.299       68.275        0.167      345.034       22.276      865.355
04/07/2014  16:07:00       10.078      -61.275       18.195       44.951       66.578       51.467     2020.604     4432.608     2648.813        0.664        0.455       62.099       45.445        0.536      345.163       22.497      865.344
04/07/2014  16:08:00       80.638     -131.823      -22.148       64.304       79.116       55.084     4134.979     6259.307     3034.227        1.890        0.671      154.531       43.380        0.079      345.112       22.409      865.354
04/07/2014  16:09:00       44.296     -100.084       14.535       80.047      108.037       67.948     6407.464    11671.943     4616.929        1.744        1.135      109.448       70.870        0.419      345.203       22.564      865.341
04/07/2014  16:10:00      135.762     -117.787       19.668      135.382      147.810       79.474    18328.287    21847.659     6316.078        3.958        2.325      179.736       93.351        0.270      345.189       22.540      865.304
04/07/2014  16:11:00      202.531     -186.208      -27.287      114.196      146.565       85.462    13040.616    21481.425     7303.837        5.912        2.091      275.122       92.582        0.113      345.004       22.222      865.306
04/07/2014  16:12:00       46.333     -109.626        4.614       71.325      111.929       70.228     5087.245    12527.997     4931.906        1.836        1.127      119.015       67.972        0.326      344.929       22.094      865.357
04/07/2014  16:13:00       80.150     -159.093       -7.093       45.303       54.726       36.217     2052.364     2994.894     1311.671        1.907        0.318      178.143       19.560        0.012      345.025       22.260      865.369
04/07/2014  16:14:00       -9.241      -45.187       23.206       49.127       51.351       32.261     2413.458     2636.937     1040.742        0.438        0.305       46.122       22.949        0.248      345.141       22.460      865.357
04/07/2014  16:15:00       67.484     -110.902       13.711       64.517       69.526       40.532     4162.394     4833.827     1642.859        1.384        0.532      129.821       40.917        0.099      345.092       22.376      865.356
04/07/2014  16:16:00       24.184      -43.785       18.137       47.069       59.393       45.351     2215.498     3527.508     2056.736        0.531        0.390       50.019       35.807        0.512      345.429       22.952      865.360
04/07/2014  16:17:00       35.230      -34.987       26.843       56.206       95.216       51.632     3159.087     9066.005     2665.837        0.904        0.745       49.651       61.069        1.513      345.060       22.320      865.349
04/07/2014  16:18:00       17.354      -76.502        0.329       37.378       36.886       28.194     1397.106     1360.604      794.908        0.485        0.178       78.446       11.062        0.020      344.771       21.825      865.358
04/07/2014  16:19:00       49.761      -45.472       29.076       59.376       75.729       41.954     3525.566     5734.817     1760.126        0.820        0.551       67.408       36.920        0.300      344.961       22.151      865.340
04/07/2014  16:20:00      -46.352      -77.785       42.838       83.741       91.344       54.816     7012.476     8343.658     3004.767        1.419        0.918       90.548       36.950        0.167      345.423       22.941      865.308
04/07/2014  16:21:00      -70.984      -35.193       11.851       71.937       46.855       34.404     5174.920     2195.378     1183.633        0.748        0.428       79.230       30.064        0.144      345.305       22.740      865.327
04/07/2014  16:22:00       10.627     -110.939      -21.795       57.458       48.481       35.121     3301.422     2350.448     1233.469        0.989        0.344      111.447       18.337        0.027      345.118       22.420      865.334
04/07/2014  16:23:00       10.825      -64.026        6.128       71.430       59.752       44.238     5102.252     3570.277     1957.006        0.744        0.531       64.934       27.981        0.186      345.261       22.664      865.335
04/07/2014  16:24:00       40.833      -98.494       -1.215       36.938       41.168       29.521     1364.427     1694.835      871.473        0.765        0.197      106.623       21.042        0.039      345.317       22.761      865.330
04/07/2014  16:25:00       41.057      -61.584        8.167       49.630       43.525       31.922     2463.106     1894.413     1019.045        0.546        0.269       74.015       29.125        0.155      345.400       22.903      865.330
04/07/2014  16:26:00       29.389      -71.004       -5.798       44.865       50.533       35.720     2012.911     2553.535     1275.923        0.589        0.292       76.846       18.400        0.057      345.196       22.555      865.338
04/07/2014  16:27:00       13.623      -28.420       27.206       46.128       60.801       49.577     2127.822     3696.717     2457.835        0.501        0.414       31.516       34.883        1.225      345.043       22.293      865.340
04/07/2014  16:28:00       88.614     -141.208      -37.234       75.428       56.356       49.262     5689.324     3175.946     2426.717        2.023        0.565      166.710       38.928        0.055      344.783       21.845      865.340
04/07/2014  16:29:00       12.083      -46.038       -7.980       57.316       52.195       34.709     3285.126     2724.296     1204.723        0.477        0.361       47.598       27.021        0.322      345.105       22.397      865.345
04/07/2014  16:30:00       16.847       14.188       35.962       34.808       34.367       31.639     1211.582     1181.114     1001.047        0.259        0.170       22.025       22.872        1.078      344.726       21.749      865.336
04/07/2014  16:31:00       75.314        1.994       17.874       31.714       37.540       27.808     1005.766     1409.289      773.275        0.459        0.159       75.340       20.178        0.072      344.115       20.705      865.329
04/07/2014  16:32:00       47.659      -18.397       30.637       29.432       26.299       21.803      866.246      691.663      475.367        0.279        0.102       51.087       18.494        0.131      344.593       21.522      865.333
04/07/2014  16:33:00       27.851      -55.032       -7.239       32.312       32.584       19.082     1044.085     1061.703      364.116        0.316        0.123       61.678       11.359        0.034      344.978       22.180      865.322
04/07/2014  16:34:00       41.352      -51.311       10.520       37.175       56.736       30.422     1381.989     3218.960      925.514        0.499        0.276       65.900       33.744        0.262      344.990       22.200      865.326
04/07/2014  16:35:00       31.410      -21.984       13.622       26.236       32.999       28.598      688.314     1088.905      817.830        0.212        0.130       38.339       20.654        0.290      344.583       21.505      865.317
04/07/2014  16:36:00      -38.290      -63.743       -7.783       50.171       77.059       40.014     2517.130     5938.129     1601.099        0.782        0.503       74.360       19.203        0.067      345.019       22.252      865.297
04/07/2014  16:37:00      -16.754     -148.495      -13.866       64.935       54.974       40.511     4216.577     3022.089     1641.106        1.570        0.444      149.437       30.561        0.042      345.301       22.733      865.293
04/07/2014  16:38:00       -1.512      -26.915        9.694       46.303       82.335       29.628     2144.013     6779.015      877.846        0.531        0.490       26.957       22.268        0.682      345.091       22.374      865.296
04/07/2014  16:39:00       -4.957      -46.372        4.893       42.633       59.253       37.870     1817.598     3510.864     1434.151        0.448        0.338       46.637       29.511        0.400      345.049       22.302      865.297
04/07/2014  16:40:00       46.668     -133.895       21.114       57.415       92.234       52.940     3296.467     8507.058     2802.628        1.758        0.730      141.795       46.533        0.108      344.969       22.163      865.306
04/07/2014  16:41:00       60.111        0.225        2.875       33.916       40.780       37.012     1150.312     1662.989     1369.904        0.390        0.209       60.111       17.501        0.085      344.672       21.657      865.312
04/07/2014  16:42:00       71.753       51.293        7.303       29.723       25.291       28.157      883.441      639.610      792.834        0.507        0.116       88.202        5.342        0.004      344.820       21.910      865.289
04/07/2014  16:43:00       30.469      109.603      -12.424       22.277       35.349       21.370      496.285     1249.547      456.688        0.765        0.110      113.759       17.622        0.024      344.906       22.056      865.275
04/07/2014  16:44:00       34.570       30.410        1.631       39.921       22.510       15.073     1593.700      506.716      227.210        0.222        0.116       46.042       12.950        0.079      345.022       22.256      865.287
04/07/2014  16:45:00       90.331       24.715       29.211       62.765       62.096       37.781     3939.464     3855.883     1427.382        0.942        0.461       93.651       25.764        0.076      344.933       22.103      865.287
04/07/2014  16:46:00      158.398       81.901       25.192       91.811       64.520       48.288     8429.261     4162.862     2331.708        2.368        0.746      178.319       42.109        0.056      344.925       22.088      865.277
04/07/2014  16:47:00       46.719        7.062       15.890       69.264       87.136       39.508     4797.454     7592.675     1560.846        0.822        0.698       47.250       40.943        0.751      345.008       22.232      865.270
04/07/2014  16:48:00       50.678      -81.682       10.939       72.961       93.536       43.279     5323.314     8749.022     1873.058        1.265        0.797       96.126       53.675        0.312      345.283       22.701      865.259
04/07/2014  16:49:00        7.481       29.983       69.728       58.490       67.711       42.939     3421.041     4584.729     1843.774        0.783        0.492       30.902       40.836        1.746      345.354       22.825      865.259
04/07/2014  16:50:00       32.197       36.201       72.672       59.944       82.581       70.677     3593.311     6819.703     4995.168        1.152        0.770       48.447       64.885        1.794      345.174       22.515      865.249
04/07/2014  16:51:00       35.018       67.354      107.659       85.407      115.903       81.698     7294.337    13433.522     6674.512        2.237        1.370       75.913       83.793        1.218      345.290       22.712      865.238
04/07/2014  16:52:00       69.557       29.516      101.262       82.413      105.755       67.555     6791.939    11184.156     4563.734        1.925        1.127       75.561       65.184        0.744      345.092       22.373      865.231
04/07/2014  16:53:00      173.367       80.176       77.762      124.859       89.776       70.122    15589.755     8059.794     4917.140        3.554        1.428      191.008       62.608        0.107      344.798       21.870      865.245
04/07/2014  16:54:00      111.287      126.541      129.209       96.985       83.427       76.656     9406.123     6960.125     5876.070        3.366        1.112      168.515       74.610        0.196      344.649       21.615      865.240
04/07/2014  16:55:00      142.320       24.785       52.407       91.718      129.319       65.529     8412.276    16723.357     4294.033        2.652        1.471      144.462       66.393        0.211      344.771       21.824      865.248
04/07/2014  16:56:00      102.758      -11.820       24.792       76.808       62.337       46.447     5899.478     3885.952     2157.363        1.163        0.597      103.436       40.024        0.150      344.588       21.514      865.272
04/07/2014  16:57:00       75.631      -72.951        6.435       71.027       86.615       40.591     5044.817     7502.179     1647.626        1.264        0.710      105.081       43.155        0.169      344.856       21.970      865.263
04/07/2014  16:58:00       82.576      -16.218       50.079       61.240       93.452       66.708     3750.393     8733.326     4450.021        1.326        0.847       84.154       64.707        0.591      344.967       22.162      865.277
04/07/2014  16:59:00       71.068       43.560        3.680       63.280       23.115       27.766     4004.305      534.310      770.938        0.613        0.265       83.355       16.397        0.039      344.752       21.795      865.266
04/07/2014  17:00:00      -31.394       14.989       -7.116       36.242       21.703       20.175     1313.481      471.017      407.046        0.173        0.110       34.789       13.790        0.157      345.210       22.577      865.263
04/07/2014  17:01:00       15.230      -18.200       19.716       53.767       30.541       27.679     2890.880      932.767      766.127        0.277        0.229       23.732       11.547        0.237      344.993       22.207      865.271
04/07/2014  17:02:00       96.055     -124.992       -4.877       62.724       53.154       48.086     3934.273     2825.365     2312.218        1.697        0.454      157.637       37.461        0.056      345.292       22.716      865.274
04/07/2014  17:03:00       16.343      -47.074       22.955       47.178       76.786       45.146     2225.728     5896.088     2038.179        0.658        0.508       49.830       29.696        0.355      345.286       22.707      865.273
04/07/2014  17:04:00      141.551     -145.754      -20.939       52.963       45.862       32.177     2805.045     2103.355     1035.375        2.383        0.297      203.177       24.501        0.015      345.124       22.428      865.285
04/07/2014  17:05:00       47.849       -0.524       35.030       52.040       55.322       46.107     2708.151     3060.534     2125.852        0.570        0.395       47.852       33.703        0.496      345.178       22.522      865.292
04/07/2014  17:06:00       20.967      -72.988       23.746       51.080       88.025       49.054     2609.122     7748.410     2406.264        0.954        0.638       75.940       47.022        0.383      345.186       22.536      865.279
04/07/2014  17:07:00       61.779      -77.092       -9.358       54.017       71.014       36.169     2917.834     5042.959     1308.162        0.956        0.463       98.792       28.018        0.080      345.107       22.400      865.282
04/07/2014  17:08:00       46.551      -67.395      -18.192       30.471       32.467       25.092      928.469     1054.093      629.588        0.483        0.131       81.909       22.481        0.075      345.028       22.266      865.280
04/07/2014  17:09:00       49.361      -24.748       -0.591       26.381       22.862       12.503      695.949      522.663      156.332        0.221        0.069       55.218       12.018        0.047      344.952       22.136      865.279
04/07/2014  17:10:00       48.667      -43.466        2.575       37.529       40.466       41.973     1408.414     1637.525     1761.761        0.454        0.240       65.252       30.568        0.219      345.052       22.308      865.266
04/07/2014  17:11:00       43.428       -2.515       23.890       35.639       27.355       30.074     1270.171      748.277      904.434        0.269        0.146       43.501       22.806        0.275      344.419       21.225      865.261
04/07/2014  17:12:00       13.081      -23.907        7.222       18.301       29.612       22.502      334.910      876.841      506.326        0.126        0.086       27.252       17.812        0.427      344.893       22.035      865.258
04/07/2014  17:13:00        4.936      -64.638      -18.885       13.923       17.579       22.592      193.862      309.009      510.387        0.279        0.051       64.827        4.134        0.004      345.131       22.442      865.257
04/07/2014  17:14:00       34.287      -53.567       -4.886       23.356       17.210       23.403      545.501      296.199      547.706        0.273        0.069       63.601       13.972        0.048      345.071       22.340      865.252
04/07/2014  17:15:00       50.244      -39.124       15.293       25.158       21.927       22.101      632.907      480.775      488.467        0.295        0.080       63.680       14.186        0.050      344.961       22.152      865.244
04/07/2014  17:16:00       46.718       -2.586        6.240       23.496       20.651       21.060      552.062      426.448      443.541        0.182        0.071       46.790        9.614        0.042      344.915       22.074      865.243
04/07/2014  17:17:00       16.008      -45.466       -2.126       25.138       29.307       17.096      631.907      858.923      292.275        0.206        0.089       48.202       19.059        0.156      345.330       22.783      865.224
04/07/2014  17:18:00      -31.340      -43.830        4.008       63.408       40.657       28.096     4020.633     1653.013      789.394        0.469        0.323       53.882       23.609        0.192      345.464       23.013      865.211
04/07/2014  17:19:00      -88.174      -10.349        5.310       59.894       34.176       31.373     3587.320     1167.992      984.236        0.682        0.287       88.779       19.805        0.050      345.678       23.380      865.201
04/07/2014  17:20:00        2.504      -20.315       12.175       32.469       35.044       33.966     1054.219     1228.114     1153.673        0.200        0.172       20.468       17.039        0.693      345.084       22.362      865.200
04/07/2014  17:21:00       28.021       12.756       27.553       26.224       23.000       14.994      687.689      529.021      224.813        0.157        0.072       30.788        7.645        0.062      344.597       21.529      865.200
04/07/2014  17:22:00       36.259       -4.509       22.986       26.886       18.389       18.532      722.842      338.173      343.435        0.163        0.070       36.538       10.666        0.085      345.044       22.293      865.195
04/07/2014  17:23:00       26.411      -93.042      -10.934       29.126       26.883       19.997      848.316      722.721      399.893        0.572        0.099       96.718       20.087        0.043      345.050       22.302      865.176
04/07/2014  17:24:00       20.657       -3.041       10.337       22.500       36.215       29.852      506.233     1311.535      891.170        0.163        0.135       20.880       17.658        0.715      344.895       22.038      865.165
04/07/2014  17:25:00       15.341       17.718       17.584       22.854       28.766       22.374      522.303      827.495      500.599        0.135        0.093       23.437       12.699        0.294      344.803       21.880      865.161
04/07/2014  17:26:00       17.730       34.116       11.017       24.966       31.416       22.475      623.314      986.981      505.119        0.186        0.106       38.448       16.391        0.182      345.022       22.256      865.151
04/07/2014  17:27:00       33.569       -1.742       -0.290       34.712       16.951       22.982     1204.910      287.344      528.177        0.157        0.101       33.614       10.971        0.107      344.656       21.628      865.139
04/07/2014  17:28:00       28.570       -0.505       -7.227       19.960       25.641       15.932      398.414      657.473      253.844        0.109        0.065       28.574        3.217        0.013      344.857       21.974      865.142
04/07/2014  17:29:00       15.408       18.446        8.037       18.488       13.784       12.215      341.812      189.990      149.201        0.066        0.034       24.035       10.192        0.180      344.929       22.098      865.137
04/07/2014  17:30:00       16.868       45.989        1.093       33.793       36.509       20.041     1141.935     1332.895      401.624        0.264        0.144       48.985        2.308        0.002      345.120       22.425      865.140
04/07/2014  17:31:00       44.215       57.945        7.579       36.846       35.639       27.115     1357.606     1270.157      735.250        0.437        0.168       72.887       21.202        0.085      345.250       22.647      865.146
04/07/2014  17:32:00       54.753        6.678       15.204       32.076       35.411       23.447     1028.860     1253.954      549.773        0.305        0.142       55.159       14.128        0.066      344.864       21.985      865.137
04/07/2014  17:33:00       89.267       39.095       38.711       74.227       77.687       36.858     5509.691     6035.335     1358.520        1.195        0.645       97.453       37.168        0.145      345.081       22.355      865.121
04/07/2014  17:34:00       33.455      -53.478        3.241       36.289       68.849       25.947     1316.860     4740.169      673.230        0.536        0.337       63.080       26.934        0.182      345.145       22.466      865.125
04/07/2014  17:35:00       31.282       -7.318       16.087       24.365       39.856       26.688      593.662     1588.479      712.267        0.209        0.145       32.127       21.728        0.457      344.741       21.774      865.127
04/07/2014  17:36:00       59.660      -12.757       23.407       38.056       29.461       25.399     1448.283      867.931      645.105        0.362        0.148       61.009       15.836        0.067      344.933       22.103      865.123
04/07/2014  17:37:00       66.330      -77.119       -5.620       31.526       61.510       38.880      993.883     3783.422     1511.642        0.833        0.314      101.720       28.376        0.078      344.992       22.204      865.125
04/07/2014  17:38:00       31.600        5.799        7.691       34.166       31.293       31.995     1167.314      979.283     1023.710        0.213        0.159       32.128       28.276        0.775      344.799       21.874      865.117
04/07/2014  17:39:00       10.023      -73.729        4.744       51.195       95.303       33.308     2620.900     9082.731     1109.450        0.918        0.641       74.407       35.093        0.222      345.021       22.254      865.120
04/07/2014  17:40:00      157.151     -115.600       -2.951       79.882       95.815       67.370     6381.103     9180.440     4538.724        2.908        1.005      195.089       65.125        0.111      345.290       22.712      865.095
04/07/2014  17:41:00       29.869      -21.862       42.679       49.654       64.554       49.884     2465.491     4167.174     2488.413        0.615        0.456       37.015       52.164        1.986      345.105       22.398      865.094
04/07/2014  17:42:00       62.741      -32.592       11.280       36.747       39.201       26.088     1350.319     1536.756      680.575        0.435        0.178       70.701       24.370        0.119      344.835       21.936      865.087
04/07/2014  17:43:00       55.550       41.086       54.158       68.698       65.593       48.068     4719.349     4302.378     2310.539        0.952        0.567       69.093       42.666        0.381      344.998       22.215      865.065
04/07/2014  17:44:00       23.143       13.039       64.094       65.967       65.967       45.690     4351.638     4351.613     2087.552        0.780        0.540       26.563       48.399        3.320      344.955       22.143      865.055
04/07/2014  17:45:00       -5.584       -6.280       14.481       36.281       53.328       36.662     1316.305     2843.838     1344.089        0.289        0.275        8.403       32.603       15.053      345.050       22.304      865.048
04/07/2014  17:46:00        0.723      -32.480       21.569       61.496       65.843       43.952     3781.746     4335.312     1931.814        0.578        0.502       32.488       37.642        1.342      345.187       22.538      865.047
04/07/2014  17:47:00      -34.627      -53.417       14.113       30.073       49.840       26.363      904.396     2484.046      695.020        0.417        0.204       63.658       18.868        0.088      345.653       23.337      865.043
04/07/2014  17:48:00       40.824      -85.232        1.415       75.016       65.191       45.439     5627.384     4249.862     2064.726        1.044        0.597       94.504       46.118        0.238      345.431       22.954      865.041
04/07/2014  17:49:00       59.239      -10.617       26.539       48.107       77.456       45.958     2314.254     5999.402     2112.124        0.737        0.521       60.183       35.392        0.346      345.054       22.312      865.038
04/07/2014  17:50:00       18.535       26.961       29.140       33.415       54.741       28.434     1116.564     2996.555      808.473        0.342        0.246       32.717       27.405        0.702      344.877       22.007      865.049
04/07/2014  17:51:00       23.901       20.502        3.845       19.341       27.370       21.278      374.077      749.100      452.750        0.129        0.079       31.489       14.694        0.218      344.739       21.771      865.049
04/07/2014  17:52:00       45.141      -11.927       10.709       18.703       15.454       20.133      349.805      238.821      405.338        0.164        0.050       46.690        8.923        0.037      344.476       21.322      865.050
04/07/2014  17:53:00       40.276       11.277       10.566       27.354       23.952       18.974      748.266      573.707      360.019        0.177        0.084       41.824       11.413        0.074      344.522       21.400      865.037
04/07/2014  17:54:00       50.287       22.226       11.609       40.248       30.146       23.259     1619.910      908.790      541.000        0.311        0.153       54.979       15.051        0.075      344.669       21.652      865.037
04/07/2014  17:55:00       96.328       69.771       11.166       20.942       27.154       26.551      438.556      737.367      704.937        0.808        0.094      118.941       13.039        0.012      345.127       22.433      865.034
04/07/2014  17:56:00       21.434       17.210        8.219       28.799       19.551       13.737      829.406      382.257      188.705        0.111        0.070       27.488       10.526        0.147      345.106       22.402      865.045
04/07/2014  17:57:00       33.630       46.716       17.657       35.436       39.059       21.189     1255.738     1525.604      448.982        0.343        0.162       57.561       16.008        0.077      344.651       21.622      865.045
04/07/2014  17:58:00       30.987      101.245      -14.728       26.681       64.236       28.658      711.863     4126.272      821.262        0.854        0.283      105.881       34.911        0.109      345.126       22.434      865.054
04/07/2014  17:59:00       10.373      147.271      -20.988       76.942       57.167       40.431     5920.134     3268.116     1634.627        1.653        0.541      147.636       41.764        0.080      345.274       22.686      865.050
04/07/2014  18:00:00      -88.547      116.486      -22.023       48.814       41.530       27.840     2382.797     1724.738      775.086        1.339        0.244      146.320       29.884        0.042      345.272       22.683      865.066
04/07/2014  18:01:00     -117.736       90.790      -21.374       48.360       40.164       33.890     2338.723     1613.165     1148.528        1.383        0.255      148.677       31.932        0.046      345.245       22.637      865.068
04/07/2014  18:02:00       29.712       60.250       -0.943       44.632       47.311       37.257     1992.029     2238.377     1388.118        0.507        0.281       67.178       21.736        0.105      345.213       22.582      865.077
04/07/2014  18:03:00      -58.853       57.077       -2.145       47.343       42.623       23.173     2241.342     1816.715      536.981        0.566        0.230       81.984       20.128        0.060      345.307       22.745      865.068
04/07/2014  18:04:00      -23.344      151.850       -9.996       54.506       67.479       29.689     2970.957     4553.446      881.408        1.605        0.420      153.634       32.898        0.046      345.278       22.694      865.064
04/07/2014  18:05:00       94.270       81.335       28.768       75.737       56.288       51.593     5736.066     3168.329     2661.878        1.395        0.578      124.508       37.971        0.093      345.183       22.531      865.063
04/07/2014  18:06:00       78.855       66.749       17.579       58.532       38.730       32.267     3426.018     1500.008     1041.177        0.847        0.298      103.312       17.755        0.030      345.121       22.425      865.042
04/07/2014  18:07:00      126.804       72.297       17.309       84.810       55.692       54.445     7192.652     3101.581     2964.224        1.743        0.663      145.966       28.275        0.038      345.135       22.449      865.034
04/07/2014  18:08:00       80.820       78.005        7.540       69.818       82.712       53.033     4874.577     6841.355     2812.517        1.360        0.726      112.324       40.050        0.127      345.160       22.491      865.040
04/07/2014  18:09:00       99.711      144.013        1.190      104.076       80.713       52.406    10831.886     6514.530     2746.418        2.538        1.005      175.163       45.254        0.067      345.117       22.417      865.019
04/07/2014  18:10:00       71.744      130.705       -7.024       73.601       86.949       48.479     5417.109     7560.132     2350.214        1.880        0.766      149.101       44.585        0.089      345.095       22.379      865.019
04/07/2014  18:11:00       98.403      178.812      -13.495      101.980      104.839       57.365    10399.953    10991.270     3290.729        3.326        1.234      204.100       57.141        0.078      345.050       22.302      865.008
04/07/2014  18:12:00       41.248      123.452       -3.227       77.642       86.049       55.535     6028.256     7404.356     3084.086        1.673        0.826      130.160       56.861        0.191      345.134       22.447      865.020
04/07/2014  18:13:00       36.311      172.843      -27.710       48.442       74.086       30.012     2346.655     5488.670      900.729        2.035        0.437      176.616       30.256        0.029      345.186       22.535      865.025
04/07/2014  18:14:00       15.575       66.110        6.839       65.783       88.566       41.904     4327.395     7843.930     1755.952        0.929        0.696       67.919       47.863        0.497      345.213       22.583      865.027
04/07/2014  18:15:00      -50.173      162.395      -17.766       57.204       64.780       42.058     3272.322     4196.495     1768.858        1.922        0.462      169.969       38.966        0.053      345.216       22.587      865.032
04/07/2014  18:16:00      -15.944      239.973      -19.317      127.823      134.864       55.529    16338.842    18188.326     3083.481        4.790        1.881      240.502       50.154        0.043      345.164       22.496      865.030
04/07/2014  18:17:00      164.482      138.069       25.636       97.239       68.909       50.431     9455.357     4748.442     2543.312        3.176        0.837      214.749       23.116        0.012      345.113       22.409      865.055
04/07/2014  18:18:00      108.904       36.344       25.983       97.807       50.157       35.088     9566.229     2515.763     1231.187        1.358        0.666      114.808       17.117        0.022      344.994       22.208      865.063
04/07/2014  18:19:00       73.411       52.560       17.557       51.475       55.794       39.563     2649.715     3112.946     1565.255        0.789        0.366       90.287       26.976        0.089      344.991       22.203      865.068
04/07/2014  18:20:00       40.380       84.255       -7.895       57.280       63.623       32.286     3280.993     4047.842     1042.376        0.858        0.419       93.431       30.031        0.103      345.067       22.335      865.071
04/07/2014  18:21:00       43.889      139.377      -19.395       48.791       69.175       46.494     2380.595     4785.165     2161.724        1.553        0.466      146.124       46.631        0.102      345.009       22.232      865.080
04/07/2014  18:22:00       38.057      111.028       -5.864       46.826       67.800       40.231     2192.704     4596.880     1618.536        1.111        0.420      117.369       37.760        0.104      345.027       22.264      865.087
04/07/2014  18:23:00       71.254      148.338      -26.667       53.018       70.268       42.413     2810.875     4937.618     1798.853        1.867        0.477      164.564       38.709        0.055      345.054       22.309      865.103
04/07/2014  18:24:00       81.445       82.182       13.635       68.623       48.837       43.544     4709.137     2385.033     1896.086        1.128        0.450      115.703       27.399        0.056      345.041       22.289      865.097
04/07/2014  18:25:00      146.053      122.395        7.029       87.625       57.099       49.610     7678.184     3260.312     2461.166        2.488        0.670      190.558       34.267        0.032      345.016       22.245      865.097
04/07/2014  18:26:00       50.854      111.223      -13.296       53.576       61.006       33.965     2870.345     3721.784     1153.618        1.144        0.387      122.298       33.927        0.077      345.037       22.280      865.104
04/07/2014  18:27:00       -6.835      109.855       -1.397       53.637       66.161       37.497     2876.932     4377.221     1406.039        1.039        0.433      110.068       25.451        0.053      345.107       22.401      865.103
04/07/2014  18:28:00        1.626      124.790      -14.095       56.066       65.066       41.101     3143.386     4233.535     1689.293        1.242        0.453      124.800       36.123        0.084      345.051       22.304      865.114
04/07/2014  18:29:00       -9.380      203.045      -29.039       54.228       92.479       35.169     2940.651     8552.408     1236.827        2.744        0.636      203.262       42.122        0.043      345.054       22.309      865.121
04/07/2014  18:30:00        8.548      224.842      -29.515       45.927      127.172       31.928     2109.326    16172.822     1019.388        3.540        0.965      225.004       49.308        0.048      344.968       22.160      865.139
04/07/2014  18:31:00       37.993      292.872      -42.001       61.629      101.821       48.250     3798.157    10367.477     2328.015        5.273        0.825      295.327       60.086        0.041      344.974       22.169      865.144
04/07/2014  18:32:00       25.286      180.303      -16.050       49.128      129.882       51.048     2413.572    16869.209     2605.853        2.764        1.094      182.068       69.555        0.146      344.912       22.065      865.153
04/07/2014  18:33:00       17.978      152.113      -11.536       48.306       92.964       46.693     2333.508     8642.275     2180.219        1.837        0.658      153.172       54.661        0.127      344.947       22.126      865.166
04/07/2014  18:34:00       14.368      235.048      -40.860       43.981       54.473       29.193     1934.296     2967.257      852.246        3.144        0.288      235.487       27.145        0.013      344.921       22.079      865.174
04/07/2014  18:35:00       16.281      181.150      -22.658       38.838       70.621       33.439     1508.389     4987.355     1118.191        2.060        0.381      181.880       40.313        0.049      344.913       22.067      865.188
04/07/2014  18:36:00        1.586      236.779      -40.637       37.884       42.131       22.048     1435.223     1775.053      486.098        3.071        0.185      236.784       27.131        0.013      344.894       22.034      865.199
04/07/2014  18:37:00      -41.411      135.083      -21.966       35.162       64.106       26.409     1236.351     4109.547      697.455        1.324        0.302      141.288       33.904        0.058      344.910       22.064      865.202
04/07/2014  18:38:00      -78.837       78.992       -7.384       44.144       53.348       26.967     1948.721     2845.992      727.209        0.901        0.276      111.601       23.429        0.044      345.090       22.372      865.198
04/07/2014  18:39:00      -91.650       90.094      -10.470       43.623       97.205       33.241     1902.975     9448.840     1104.938        1.454        0.623      128.517       32.667        0.065      345.024       22.259      865.217
04/07/2014  18:40:00     -143.382       76.984      -13.837       91.882       69.851       49.601     8442.246     4879.210     2460.274        2.123        0.789      162.742       50.279        0.095      345.099       22.386      865.233
04/07/2014  18:41:00     -160.236        3.810      -21.695       66.952       61.356       39.812     4482.549     3764.548     1584.981        1.799        0.492      160.282       27.133        0.029      345.028       22.266      865.228
04/07/2014  18:42:00     -160.731       42.713      -30.433       67.363       47.242       26.352     4537.761     2231.828      694.406        1.802        0.373      166.309       28.324        0.029      344.909       22.060      865.229
04/07/2014  18:43:00     -129.361      -59.976       -9.358       67.245       57.726       19.288     4521.896     3332.341      372.017        1.432        0.411      142.588       16.376        0.013      345.039       22.284      865.214
04/07/2014  18:44:00     -210.008       15.091       -4.678      112.542       67.418       42.500    12665.655     4545.146     1806.239        3.168        0.951      210.549       42.960        0.042      344.948       22.126      865.213
04/07/2014  18:45:00     -233.513      -40.671      -16.942       82.940       72.660       37.135     6879.061     5279.449     1379.010        3.500        0.677      237.029       42.494        0.032      344.858       21.970      865.198
04/07/2014  18:46:00      -94.031      -41.132       33.409      158.304      100.977       79.740    25060.310    10196.417     6358.432        2.662        2.081      102.633       85.584        0.695      344.742       21.775      865.164
04/07/2014  18:47:00     -194.018      -66.072       -6.524       95.023      112.286       49.515     9029.421    12608.220     2451.724        3.307        1.204      204.959       37.128        0.033      344.800       21.873      865.157
04/07/2014  18:48:00     -206.905      -31.579       -2.352      130.462       87.083       65.809    17020.316     7583.427     4330.777        3.637        1.447      209.301       72.066        0.119      344.762       21.808      865.143
04/07/2014  18:49:00     -192.618      -39.888       -4.423       90.238       96.307       43.334     8142.878     9275.018     1877.830        2.900        0.965      196.705       29.485        0.022      344.807       21.885      865.133
04/07/2014  18:50:00     -281.153        1.096      -26.762       84.426       87.663       41.188     7127.788     7684.749     1696.475        4.813        0.825      281.155       30.751        0.012      344.764       21.810      865.133
04/07/2014  18:51:00     -166.535      -33.433       -6.331      162.528       68.854       41.288    26415.420     4740.813     1704.688        3.087        1.643      169.858       60.438        0.127      344.814       21.899      865.125
04/07/2014  18:52:00     -375.819      -27.193      -21.477      137.671      100.708       52.192    18953.226    10142.075     2724.026        8.712        1.591      376.801       47.395        0.016      344.675       21.658      865.094
04/07/2014  18:53:00     -276.452     -120.453        8.325      125.925      129.066       68.366    15856.989    16657.939     4673.950        6.409        1.859      301.554       67.132        0.050      344.637       21.593      865.100
04/07/2014  18:54:00     -329.206      -44.702      -18.454      145.629      115.762       63.095    21207.783    13400.854     3980.921        7.464        1.929      332.227       76.448        0.053      344.560       21.461      865.133
04/07/2014  18:55:00     -323.831       -1.122      -11.423      148.309       80.170       58.076    21995.676     6427.242     3372.876        6.839        1.590      323.833       56.811        0.031      344.571       21.481      865.111
04/07/2014  18:56:00     -323.686      -12.121      -17.470      171.356       87.612       64.608    29362.982     7675.922     4174.212        7.321        2.061      323.912       78.854        0.059      344.548       21.442      865.090
04/07/2014  18:57:00     -211.830      -38.704        6.301      113.115       93.618       60.769    12795.006     8764.316     3692.854        3.583        1.263      215.337       62.449        0.084      344.582       21.500      865.098
04/07/2014  18:58:00     -337.157       -3.951      -25.065      131.903       89.470       57.795    17398.410     8004.921     3340.244        7.153        1.437      337.180       58.173        0.030      344.485       21.335      865.097
04/07/2014  18:59:00     -414.668      -60.683      -13.012      207.684      138.156       87.213    43132.668    19087.000     7606.036       12.280        3.491      419.084       95.662        0.052      344.459       21.290      865.095
04/07/2014  19:00:00     -502.383     -108.097      -17.689      147.045      111.812       70.947    21622.351    12501.951     5033.474       15.176        1.958      513.881       61.814        0.014      344.417       21.218      865.088
04/07/2014  19:01:00     -368.615      -58.615       -5.473      187.145      157.090       73.275    35023.314    24677.116     5369.202       10.219        3.253      373.246       85.756        0.053      344.402       21.193      865.120
04/07/2014  19:02:00     -440.204      -66.620      -31.395      177.880      126.363       67.939    31641.373    15967.613     4615.652       12.570        2.611      445.216       76.639        0.030      344.383       21.160      865.122
04/07/2014  19:03:00     -423.114     -140.249       -7.344      175.748      142.455       74.850    30887.439    20293.493     5602.518       12.775        2.839      445.752       77.318        0.030      344.379       21.153      865.107
04/07/2014  19:04:00     -437.861      -70.312      -29.972      160.982      131.430       67.580    25915.245    17273.936     4567.050       12.265        2.388      443.470       83.448        0.035      344.370       21.139      865.125
04/07/2014  19:05:00     -259.444      -92.451       -2.713      198.387      152.746       76.113    39357.533    23331.276     5793.179        7.216        3.424      275.424       69.151        0.063      344.335       21.079      865.129
04/07/2014  19:06:00     -346.538      -58.268      -11.204      194.366      117.373       64.845    37778.084    13776.324     4204.927        8.967        2.788      351.403       88.879        0.064      344.362       21.122      865.137
04/07/2014  19:07:00     -384.297      -38.214      -18.627      207.047      127.064       66.328    42868.355    16145.307     4399.352       10.644        3.171      386.192       89.768        0.054      344.325       21.061      865.133
04/07/2014  19:08:00     -269.996      -93.610        1.591      131.127      128.305       67.864    17194.346    16462.139     4605.461        5.995        1.913      285.763       71.997        0.063      344.308       21.030      865.133
04/07/2014  19:09:00     -196.915       -7.335       -6.206       96.994       99.059       56.178     9407.915     9812.598     3155.970        3.062        1.119      197.051       52.473        0.071      344.294       21.008      865.144
04/07/2014  19:10:00     -369.123      -49.133      -13.793      194.202      113.456       75.214    37714.355    12872.279     5657.140        9.754        2.812      372.378       99.723        0.072      344.281       20.986      865.144
04/07/2014  19:11:00     -182.841       -4.454        1.779      111.656       90.406       56.314    12467.092     8173.270     3171.317        2.863        1.191      182.895       58.141        0.101      344.200       20.848      865.151
04/07/2014  19:12:00     -223.073      -93.770       -5.077      148.290       98.814       61.824    21989.857     9764.265     3822.193        4.707        1.779      241.980       69.581        0.083      344.243       20.920      865.159
04/07/2014  19:13:00     -215.700      -77.985       -4.284      139.794       78.063       51.215    19542.436     6093.860     2622.955        4.044        1.413      229.365       59.227        0.067      344.254       20.941      865.154
04/07/2014  19:14:00     -321.049      -96.428       -8.879      210.358      123.959       74.282    44250.345    15365.802     5517.776        8.878        3.257      335.218       87.660        0.068      344.216       20.874      865.148
04/07/2014  19:15:00     -290.092      -25.773       -6.637      190.582      133.439       57.365    36321.394    17805.888     3290.691        7.113        2.871      291.234       68.461        0.055      344.176       20.804      865.155
04/07/2014  19:16:00     -295.558     -132.985      -10.182      146.014      126.691       71.936    21320.055    16050.571     5174.766        7.384        2.127      324.098       71.807        0.049      344.162       20.782      865.165
04/07/2014  19:17:00     -411.086      -39.528      -20.806      202.039      105.040       71.839    40819.926    11033.444     5160.857       11.399        2.851      412.982       82.124        0.040      344.156       20.772      865.159
04/07/2014  19:18:00     -309.343      -70.774       -0.325      165.041      141.145       80.507    27238.396    19922.047     6481.322        7.716        2.682      317.336       89.713        0.080      344.107       20.689      865.166
04/07/2014  19:19:00     -386.957      -57.064      -10.903      166.861      133.609       75.861    27842.702    17851.343     5754.862       10.227        2.572      391.141       84.089        0.046      344.097       20.671      865.162
04/07/2014  19:20:00     -368.608     -120.987      -11.892      152.887      146.910       68.719    23374.348    21582.665     4722.355       10.016        2.484      387.955       72.403        0.035      344.110       20.693      865.156
04/07/2014  19:21:00     -265.699        3.136       -0.040      156.541      110.011       66.184    24505.029    12102.315     4380.261        5.579        2.049      265.717       56.574        0.045      344.072       20.630      865.167
04/07/2014  19:22:00     -160.305      -49.892        4.859      153.430       87.781       48.368    23540.734     7705.474     2339.444        3.089        1.679      167.890       52.434        0.098      344.022       20.545      865.166
04/07/2014  19:23:00     -295.990     -103.936       -6.521      151.288      127.792       60.030    22888.096    16330.742     3603.572        7.063        2.141      313.708       73.242        0.055      344.035       20.565      865.169
04/07/2014  19:24:00     -122.902      -51.642       -5.146       83.270      111.861       45.379     6933.959    12512.800     2059.240        1.965        1.075      133.311       41.105        0.095      344.017       20.537      865.168
04/07/2014  19:25:00     -145.599      -18.065       -4.229      147.308       68.410       49.720    21699.792     4679.896     2472.087        2.519        1.443      146.715       59.213        0.163      343.985       20.482      865.162
04/07/2014  19:26:00     -243.378        3.068      -14.489      163.519      102.225       59.447    26738.333    10449.964     3533.980        5.008        2.036      243.397       65.856        0.073      343.972       20.456      865.171
04/07/2014  19:27:00     -312.147     -146.623      -20.653      126.039      117.682       52.534    15885.950    13849.126     2759.839        7.592        1.625      344.868       57.765        0.028      343.989       20.487      865.187
04/07/2014  19:28:00     -246.895      -47.443        4.107      124.039       88.309       56.784    15385.554     7798.472     3224.445        4.481        1.320      251.413       58.869        0.055      343.923       20.374      865.203
04/07/2014  19:29:00     -264.148      -69.324      -16.224      102.984      100.363       46.432    10605.709    10072.683     2155.930        4.883        1.142      273.094       49.209        0.032      343.922       20.370      865.208
04/07/2014  19:30:00     -384.739      -37.438      -15.917      165.913      121.764       60.390    27527.242    14826.589     3646.928        9.783        2.300      386.557       67.175        0.030      343.917       20.363      865.233
04/07/2014  19:31:00     -391.712      -35.821      -22.022      141.624      145.924       65.028    20057.221    21293.840     4228.626       10.038        2.279      393.346       72.992        0.034      343.886       20.311      865.245
04/07/2014  19:32:00     -307.714      -58.586      -34.208      111.005      107.212       52.128    12322.088    11494.415     2717.305        6.291        1.327      313.242       27.750        0.008      343.872       20.285      865.257
04/07/2014  19:33:00     -471.174      -63.038      -42.077      119.988       94.185       54.870    14397.057     8870.893     3010.716       12.701        1.314      475.372       47.776        0.010      343.847       20.242      865.286
04/07/2014  19:34:00     -312.566      -43.163      -21.318       93.701       72.572       50.218     8779.951     5266.747     2521.809        5.829        0.828      315.532       40.551        0.017      343.803       20.169      865.288
04/07/2014  19:35:00     -284.745      -86.041      -32.949       73.082       61.147       41.547     5340.964     3738.978     1726.140        5.019        0.540      297.461       31.573        0.011      343.791       20.148      865.305
04/07/2014  19:36:00     -233.799     -104.448      -16.852       88.195       65.403       38.890     7778.312     4277.563     1512.454        3.971        0.678      256.069       34.303        0.018      343.768       20.107      865.295
04/07/2014  19:37:00     -204.400      -28.963      -18.541       79.697       90.445       46.734     6351.635     8180.339     2184.031        2.984        0.836      206.442       41.981        0.041      343.766       20.107      865.309
04/07/2014  19:38:00     -211.935      -55.810       -7.158      102.434      107.917       56.029    10492.671    11645.985     3139.207        3.668        1.264      219.161       44.926        0.042      343.707       20.005      865.307
04/07/2014  19:39:00     -201.674      -91.033       -4.642      111.681       92.205       47.435    12472.641     8501.780     2250.048        3.610        1.161      221.268       47.299        0.046      343.657       19.920      865.311
04/07/2014  19:40:00     -220.686      -77.920      -16.520      126.503       92.109       64.695    16002.896     8484.087     4185.391        4.185        1.434      234.038       62.964        0.072      343.676       19.950      865.299
04/07/2014  19:41:00     -321.926      -73.873      -37.099       76.427      102.174       47.022     5841.069    10439.467     2211.048        6.448        0.925      330.293       32.625        0.010      343.662       19.927      865.304
04/07/2014  19:42:00     -208.071      -77.275       -9.219      156.547       96.187       64.633    24507.038     9251.950     4177.467        4.364        1.897      221.957       53.651        0.058      343.626       19.868      865.299
04/07/2014  19:43:00     -211.246      -70.700      -11.423      153.241      100.882       53.932    23482.904    10177.236     2908.652        4.315        1.828      222.763       69.362        0.097      343.586       19.798      865.299
04/07/2014  19:44:00     -196.115      -59.159       -4.106      135.214       96.734       62.488    18282.816     9357.454     3904.708        3.676        1.577      204.844       48.525        0.056      343.612       19.843      865.293
04/07/2014  19:45:00     -416.443      -87.688      -21.797      147.537      128.912       65.657    21767.029    16618.400     4310.835       11.213        2.135      425.574       62.162        0.021      343.630       19.873      865.295
04/07/2014  19:46:00     -307.004      -29.799       -6.222      147.681      117.287       68.046    21809.805    13756.297     4630.202        6.768        2.010      308.447       70.258        0.052      343.563       19.759      865.295
04/07/2014  19:47:00     -310.333      -92.567       -7.129      140.927      118.618       61.007    19860.529    14070.316     3721.842        7.128        1.883      323.844       66.199        0.042      343.554       19.743      865.319
04/07/2014  19:48:00     -400.043      -65.906      -24.521      169.573      129.699       68.095    28755.035    16821.896     4636.966       10.759        2.511      405.436       79.726        0.039      343.610       19.839      865.324
04/07/2014  19:49:00     -308.066     -117.542       -8.072      150.739       98.886       62.346    22722.179     9778.347     3886.995        7.258        1.819      329.729       56.546        0.029      343.576       19.782      865.327
04/07/2014  19:50:00     -242.473      -69.327      -10.292      143.476      123.928       65.328    20585.298    15358.087     4267.723        5.195        2.011      252.189       69.142        0.075      343.479       19.617      865.350
04/07/2014  19:51:00     -291.424      -50.486       -7.065      162.286       94.448       61.694    26336.653     8920.479     3806.188        6.329        1.953      295.765       80.664        0.074      343.467       19.596      865.374
04/07/2014  19:52:00     -229.919      -48.459      -12.079      145.870       97.457       58.171    21278.183     9497.956     3383.865        4.475        1.708      234.971       74.951        0.102      343.413       19.504      865.367
04/07/2014  19:53:00     -343.458        2.821      -21.263      197.249      116.018       76.154    38907.123    13460.271     5799.385        8.828        2.908      343.469       94.130        0.075      343.492       19.638      865.374
04/07/2014  19:54:00     -276.616      -14.322      -15.887      116.760       87.821       50.591    13632.940     7712.591     2559.440        5.043        1.195      276.987       28.102        0.010      343.469       19.600      865.394
04/07/2014  19:55:00     -350.284      -36.595      -13.642      124.490      120.117       73.282    15497.852    14428.022     5370.277        7.975        1.765      352.190       64.433        0.033      343.440       19.548      865.403
04/07/2014  19:56:00     -430.137       65.954      -24.264      265.061      164.651       82.374    70257.298    27109.984     6785.437       14.703        5.208      435.164      109.866        0.064      343.448       19.564      865.417
04/07/2014  19:57:00     -338.283      -36.739      -19.618      127.005      111.160       64.869    16130.185    12356.500     4207.969        7.443        1.635      340.272       56.219        0.027      343.476       19.611      865.429
04/07/2014  19:58:00     -308.226      -82.166      -10.256      144.859      103.395       63.066    20984.202    10690.614     3977.335        6.875        1.783      318.990       71.104        0.050      343.417       19.511      865.425
04/07/2014  19:59:00     -299.456     -115.028       -9.822      171.746       97.933       75.567    29496.580     9590.901     5710.303        7.389        2.240      320.788       85.967        0.072      343.400       19.481      865.415
04/07/2014  20:00:00     -324.101      -46.372       -6.757      112.551       92.482       57.455    12667.782     8552.995     3301.122        6.587        1.226      327.402       55.370        0.029      343.377       19.441      865.434
04/07/2014  20:01:00     -168.846      -71.077       -0.500      129.869       96.173       54.596    16865.933     9249.151     2980.718        3.132        1.455      183.196       47.704        0.068      343.315       19.338      865.444
04/07/2014  20:02:00     -368.340      -93.950       -9.548      139.094      113.413       57.287    19347.202    12862.449     3281.847        9.003        1.775      380.133       50.893        0.018      343.395       19.474      865.454
04/07/2014  20:03:00     -350.179      -41.308      -13.415      144.684       95.808       60.346    20933.454     9179.114     3641.590        7.913        1.688      352.607       70.200        0.040      343.371       19.433      865.463
04/07/2014  20:04:00     -305.700     -113.002       -8.455      126.356      110.487       59.101    15965.914    12207.452     3492.912        6.897        1.583      325.917       61.915        0.036      343.371       19.433      865.461
04/07/2014  20:05:00     -387.398      -54.180      -23.429      142.545       94.022       58.868    20319.070     8840.212     3465.480        9.309        1.631      391.168       57.554        0.022      343.350       19.398      865.479
04/07/2014  20:06:00     -315.724      -65.782       -3.873      186.697      126.071       84.784    34855.827    15893.914     7188.325        8.097        2.897      322.504       93.654        0.084      343.312       19.333      865.478
04/07/2014  20:07:00     -438.991     -148.248      -19.167      152.135      127.244       65.595    23145.186    16191.038     4302.717       12.934        2.182      463.347       59.939        0.017      343.357       19.408      865.493
04/07/2014  20:08:00     -285.674      -63.458        6.416      182.630       93.785       71.179    33353.693     8795.567     5066.419        6.644        2.361      292.637       87.100        0.089      343.300       19.312      865.505
04/07/2014  20:09:00     -131.212      -11.091        1.469      114.687       86.196       55.854    13153.018     7429.740     3119.685        2.052        1.185      131.680       63.694        0.234      343.236       19.204      865.518
04/07/2014  20:10:00     -273.788       -9.806      -26.692      131.652      140.528       58.453    17332.377    19747.999     3416.695        5.812        2.025      273.964       56.235        0.042      343.330       19.363      865.527
04/07/2014  20:11:00     -304.333      -17.114      -29.754      105.970      111.604       58.682    11229.577    12455.497     3443.577        6.046        1.356      304.813       48.378        0.025      343.274       19.265      865.533
04/07/2014  20:12:00     -322.043       28.760       -7.447      109.720       87.704       60.097    12038.538     7691.984     3611.674        6.396        1.167      323.324       57.630        0.032      343.276       19.269      865.545
04/07/2014  20:13:00     -277.760       16.038      -23.918      131.094       97.769       57.735    17185.649     9558.868     3333.341        5.402        1.504      278.223       47.672        0.029      343.273       19.264      865.565
04/07/2014  20:14:00     -285.073      -58.531      -10.524      143.122      113.419       54.643    20483.893    12863.808     2985.868        6.056        1.817      291.020       63.217        0.047      343.237       19.204      865.572
04/07/2014  20:15:00     -278.325      -55.787      -17.854      121.359       80.878       54.301    14727.990     6541.208     2948.624        5.255        1.211      283.861       48.671        0.029      343.241       19.208      865.577
04/07/2014  20:16:00     -309.044       -8.322      -10.776      169.049      101.056       60.783    28577.601    10212.313     3694.516        6.908        2.124      309.156       69.674        0.051      343.200       19.140      865.580
04/07/2014  20:17:00     -394.152      -44.089      -11.609      164.679      125.454       69.702    27119.328    15738.743     4858.321       10.257        2.386      396.610       78.221        0.039      343.219       19.172      865.586
04/07/2014  20:18:00     -227.553       -2.718      -11.721      145.127       75.671       50.072    21061.957     5726.123     2507.212        4.060        1.465      227.569       58.559        0.066      343.205       19.150      865.593
04/07/2014  20:19:00     -388.663       23.648      -13.656      163.207       96.068       73.207    26636.398     9229.052     5359.274        9.651        2.061      389.382       82.563        0.045      343.179       19.104      865.605
04/07/2014  20:20:00     -440.421     -105.102      -30.897      186.775      156.499       69.022    34885.028    24492.054     4763.994       13.504        3.207      452.788       83.087        0.034      343.225       19.182      865.591
04/07/2014  20:21:00     -343.534      -61.138      -16.768      136.269      148.814       67.675    18569.178    22145.715     4579.967        8.366        2.265      348.932       67.847        0.038      343.180       19.107      865.617
04/07/2014  20:22:00     -290.734      -33.643       -8.626      144.855      124.064       68.610    20982.833    15391.994     4707.336        6.340        2.054      292.674       75.462        0.066      343.203       19.147      865.616
04/07/2014  20:23:00     -305.458      -77.743      -10.013      113.708      114.242       59.963    12929.570    13051.178     3595.569        6.451        1.479      315.196       54.938        0.030      343.210       19.159      865.633
04/07/2014  20:24:00     -292.225       -1.090      -14.748      137.917      125.840       59.356    19020.983    15835.676     3523.156        6.199        1.919      292.227       65.175        0.050      343.159       19.070      865.646
04/07/2014  20:25:00     -340.467      -78.062       -4.492      119.916      122.401       60.625    14379.781    14982.087     3675.376        7.753        1.652      349.302       54.222        0.024      343.229       19.189      865.652
04/07/2014  20:26:00     -269.784      -14.930      -17.142      110.873      101.148       61.236    12292.791    10230.947     3749.804        4.978        1.314      270.197       62.279        0.053      343.182       19.109      865.670
04/07/2014  20:27:00     -280.560      -73.032      -17.298      111.692      102.400       60.337    12475.045    10485.793     3640.561        5.547        1.330      289.909       58.367        0.041      343.195       19.132      865.684
04/07/2014  20:28:00     -226.945      -58.974      -23.401       65.377       82.190       41.485     4274.207     6755.228     1720.980        3.414        0.638      234.482       33.452        0.020      343.170       19.088      865.690
04/07/2014  20:29:00     -242.209      -12.325      -37.542       89.750       60.601       39.522     8055.027     3672.515     1561.984        3.676        0.664      242.522       36.116        0.022      343.165       19.082      865.689
04/07/2014  20:30:00     -173.359       -7.575      -17.479      112.330       77.493       46.435    12618.020     6005.204     2156.211        2.559        1.039      173.524       53.131        0.094      343.156       19.068      865.675
04/07/2014  20:31:00     -229.505      -97.360      -28.336      114.274       81.305       49.140    13058.539     6610.476     2414.704        4.251        1.104      249.302       47.764        0.037      343.137       19.033      865.688
04/07/2014  20:32:00     -276.371      -59.552      -17.223      101.516       88.882       44.642    10305.519     7900.052     1992.864        5.021        1.010      282.714       40.820        0.021      343.083       18.940      865.694
04/07/2014  20:33:00     -266.435      -14.555       -4.109      115.589       77.307       53.751    13360.910     5976.312     2889.166        4.672        1.111      266.832       64.026        0.058      343.029       18.850      865.716
04/07/2014  20:34:00     -300.046      -23.479      -24.675      120.368       84.221       56.758    14488.365     7093.120     3221.431        5.799        1.240      300.963       63.697        0.045      342.999       18.799      865.722
04/07/2014  20:35:00     -258.765      -16.736      -16.682      108.372      103.005       57.094    11744.402    10609.985     3259.752        4.656        1.281      259.306       54.606        0.044      343.006       18.812      865.727
04/07/2014  20:36:00     -254.889      -43.454      -17.654       98.723       77.221       41.617     9746.237     5963.129     1732.003        4.230        0.872      258.566       38.037        0.022      343.020       18.834      865.748
04/07/2014  20:37:00     -212.627      -85.843      -10.161       99.064       76.961       42.653     9813.676     5922.931     1819.274        3.512        0.878      229.301       43.352        0.036      343.033       18.857      865.753
04/07/2014  20:38:00     -310.082      -20.563      -14.437      158.691      120.533       58.634    25182.992    14528.136     3437.924        6.996        2.157      310.763       69.059        0.049      343.002       18.805      865.760
04/07/2014  20:39:00     -245.345      -14.144      -16.753       99.227       88.897       44.786     9845.936     7902.665     2005.768        4.021        0.988      245.752       52.685        0.046      342.981       18.769      865.793
04/07/2014  20:40:00     -221.937       17.434      -12.082      129.004       76.021       42.473    16641.984     5779.251     1803.977        3.696        1.211      222.621       45.046        0.041      342.964       18.740      865.791
04/07/2014  20:41:00     -218.900      -42.935        2.701      134.271       70.262       52.861    18028.703     4936.814     2794.266        3.776        1.288      223.071       66.905        0.090      342.911       18.648      865.815
04/07/2014  20:42:00     -234.747      -87.214        0.885      134.830       83.268       47.552    18179.006     6933.639     2261.226        4.504        1.369      250.425       45.329        0.033      342.946       18.710      865.836
04/07/2014  20:43:00     -210.596       -3.358      -17.206      104.753       80.405       43.348    10973.118     6464.895     1879.085        3.198        0.966      210.623       43.578        0.043      342.964       18.740      865.844
04/07/2014  20:44:00     -261.756      -53.868      -23.251       91.017       75.631       40.533     8284.111     5720.047     1642.925        4.380        0.782      267.242       27.488        0.011      342.986       18.778      865.872
04/07/2014  20:45:00      -84.671       11.046        3.014       83.511       68.517       41.481     6974.060     4694.570     1720.638        1.034        0.669       85.388       38.356        0.202      342.885       18.608      865.877
04/07/2014  20:46:00     -153.981       38.679      -26.628       75.725       97.550       44.014     5734.307     9516.010     1937.217        2.155        0.859      158.764       26.814        0.029      342.979       18.767      865.892
04/07/2014  20:47:00     -115.762      -10.949      -10.231       65.805       40.833       30.628     4330.268     1667.356      938.101        1.028        0.347      116.278       34.712        0.089      342.951       18.719      865.930
04/07/2014  20:48:00      -56.948      -25.350      -16.219       57.774       43.452       17.590     3337.870     1888.094      309.418        0.484        0.277       62.335       21.673        0.121      342.950       18.719      865.940
04/07/2014  20:49:00     -121.246       18.829      -12.268       95.927       43.562       16.988     9201.926     1897.631      288.580        1.329        0.569      122.699       29.662        0.058      342.942       18.703      865.970
04/07/2014  20:50:00      -89.288      -12.846       10.478       86.741       83.168       36.723     7523.946     6916.927     1348.565        1.202        0.789       90.208       32.354        0.129      342.862       18.568      865.996
04/07/2014  20:51:00     -196.263      -87.514      -16.108       98.399       67.586       37.702     9682.330     4567.926     1421.443        3.105        0.784      214.890       20.797        0.009      342.965       18.742      866.002
04/07/2014  20:52:00     -182.418      -69.292       -9.936       57.570       73.906       37.065     3314.291     5462.039     1373.805        2.416        0.508      195.135       25.094        0.017      342.939       18.698      866.010
04/07/2014  20:53:00     -109.360      -26.313       -2.576       62.807       52.348       31.627     3944.743     2740.286     1000.261        1.017        0.384      112.481       29.892        0.071      342.881       18.601      866.047
04/07/2014  20:54:00      -41.677       -1.923       -4.628       58.133       39.177       30.747     3379.424     1534.843      945.393        0.381        0.293       41.721       27.828        0.445      342.799       18.462      866.079
04/07/2014  20:55:00     -138.829       16.435       -3.155       69.674       41.532       35.299     4854.421     1724.926     1246.021        1.369        0.391      139.799       24.078        0.030      342.920       18.667      866.115
04/07/2014  20:56:00        6.165       46.099       21.934       30.679       46.680       25.165      941.231     2179.009      633.284        0.320        0.188       46.510       28.921        0.387      342.680       18.260      866.136
04/07/2014  20:57:00       -4.801       15.481        1.012       19.200       25.694       16.636      368.632      660.167      276.770        0.078        0.065       16.208       11.496        0.503      342.693       18.280      866.161
04/07/2014  20:58:00      -98.139       40.579        9.229       64.476       43.564       32.852     4157.138     1897.847     1079.249        0.925        0.357      106.197       30.172        0.081      342.817       18.492      866.194
04/07/2014  20:59:00       -7.236        9.809       21.635       45.812       31.237       24.846     2098.712      975.727      617.324        0.215        0.185       12.189       16.417        1.814      342.793       18.451      866.197
04/07/2014  21:00:00      -53.893      117.900       -8.926       88.090       84.647       46.924     7759.833     7165.158     2201.887        1.700        0.856      129.633       55.211        0.181      342.849       18.545      866.216
04/07/2014  21:01:00      -77.390       96.838      -12.139       58.145       46.980       25.730     3380.868     2207.107      662.046        1.088        0.313      123.963       28.761        0.054      342.882       18.602      866.235
04/07/2014  21:02:00       25.644       54.288      -11.491       52.765       30.620       18.294     2784.098      937.578      334.653        0.390        0.203       60.040       11.258        0.035      342.727       18.338      866.251
04/07/2014  21:03:00        3.180       52.338      -13.948       29.480       30.841       18.056      869.048      951.155      326.016        0.254        0.107       52.435       11.252        0.046      342.602       18.126      866.277
04/07/2014  21:04:00        7.279       90.163      -10.201       26.859       65.297       21.419      721.382     4263.738      458.759        0.686        0.272       90.457        7.520        0.007      342.610       18.141      866.302
04/07/2014  21:05:00      -38.786      192.492      -10.534       72.892       86.586       46.869     5313.258     7497.096     2196.738        2.683        0.750      196.360       29.324        0.022      342.801       18.463      866.319
04/07/2014  21:06:00     -123.552        9.301       -4.930       56.763       56.792       28.162     3222.079     3225.279      793.090        1.131        0.362      123.901       23.460        0.036      342.790       18.446      866.376
04/07/2014  21:07:00      -16.235       57.510       -1.810       56.796       99.269       28.675     3225.757     9854.378      822.240        0.874        0.695       59.757       30.582        0.262      342.772       18.415      866.366
04/07/2014  21:08:00       31.344      109.633        8.187       81.338       68.248       47.463     6615.920     4657.823     2252.697        1.329        0.676      114.025       39.070        0.117      342.795       18.454      866.358
04/07/2014  21:09:00      -79.965       44.571       -8.568       77.105       69.472       27.237     5945.257     4826.314      741.853        0.998        0.576       91.548       16.450        0.032      342.918       18.664      866.368
04/07/2014  21:10:00      -98.259       -0.345       -6.371       58.229       47.467       30.433     3390.614     2253.080      926.161        0.813        0.328       98.259       25.176        0.066      342.858       18.561      866.396
04/07/2014  21:11:00     -164.897      -48.965      -16.765      110.793       86.324       53.896    12275.074     7451.858     2904.765        2.625        1.132      172.013       56.212        0.107      342.839       18.526      866.393
04/07/2014  21:12:00     -117.329      -28.131        0.615       64.831       45.944       36.831     4203.065     2110.893     1356.531        1.111        0.384      120.654       36.962        0.094      342.886       18.609      866.407
04/07/2014  21:13:00     -125.140      -19.393      -17.024       71.084       59.890       32.621     5052.914     3586.804     1064.151        1.301        0.485      126.634       23.861        0.036      342.911       18.651      866.401
04/07/2014  21:14:00      -10.956       76.632       18.159       65.970       74.683       57.029     4352.099     5577.570     3252.331        0.975        0.659       77.411       64.305        0.690      342.849       18.546      866.402
04/07/2014  21:15:00      -84.699       65.555       -7.566       45.016       42.263       28.425     2026.479     1786.166      808.001        0.807        0.231      107.105       25.654        0.057      342.916       18.659      866.424
04/07/2014  21:16:00     -138.312      113.393      -26.081       53.341       69.557       33.222     2845.303     4838.212     1103.710        2.073        0.439      178.852       31.758        0.032      342.943       18.704      866.464
04/07/2014  21:17:00     -140.281      159.568      -27.812       72.743       86.739       42.473     5291.577     7523.694     1803.972        3.026        0.731      212.463       40.443        0.036      342.981       18.768      866.501
04/07/2014  21:18:00      -91.192      198.078      -19.578       69.447      133.927       46.960     4822.906    17936.513     2205.262        3.644        1.248      218.061       51.856        0.057      342.971       18.751      866.508
04/07/2014  21:19:00     -222.417      150.109      -44.615       74.298      101.078       42.996     5520.165    10216.730     1848.656        4.579        0.879      268.332       37.714        0.020      342.995       18.789      866.528
04/07/2014  21:20:00     -149.457      215.305      -21.251      100.703      101.222       55.263    10141.010    10245.922     3054.053        4.629        1.172      262.094       54.102        0.043      342.938       18.694      866.529
04/07/2014  21:21:00     -201.983      111.625      -19.769      120.672       40.487       26.741    14561.709     1639.210      715.076        3.528        0.846      230.776       35.110        0.023      343.037       18.864      866.549
04/07/2014  21:22:00     -108.383       96.484      -15.270       62.242       67.232       36.568     3874.123     4520.167     1337.235        1.551        0.487      145.107       33.446        0.053      342.929       18.683      866.564
04/07/2014  21:23:00     -118.142        0.159      -11.698       69.981      120.140       39.234     4897.386    14433.667     1539.274        1.748        1.044      118.142       48.330        0.167      342.972       18.755      866.579
04/07/2014  21:24:00      -35.634       11.941       11.870       45.366       51.005       28.920     2058.111     2601.555      836.348        0.352        0.275       37.582       30.376        0.653      342.881       18.600      866.550
04/07/2014  21:25:00      -63.764       67.851       -6.757       38.949       37.345       23.682     1517.021     1394.672      560.816        0.609        0.174       93.111       20.350        0.048      342.903       18.638      866.586
04/07/2014  21:26:00       -6.723      227.316      -28.487       58.556       68.148       34.854     3428.768     4644.107     1214.820        3.091        0.464      227.416       22.661        0.010      343.073       18.925      866.586
04/07/2014  21:27:00      -38.589      164.875      -21.979       81.636      100.445       42.743     6664.396    10089.289     1826.929        2.386        0.929      169.331       47.592        0.079      343.051       18.889      866.598
04/07/2014  21:28:00     -178.983       50.039      -16.141       97.056       86.255       47.733     9419.912     7439.850     2278.441        2.696        0.957      185.846       50.027        0.072      342.994       18.790      866.617
04/07/2014  21:29:00     -141.293      202.640      -24.049       89.174      169.546       63.194     7952.011    28745.689     3993.421        5.114        2.035      247.036       77.539        0.099      343.037       18.863      866.638
04/07/2014  21:30:00     -143.126      161.533      -39.168       80.049       86.201       44.675     6407.766     7430.580     1995.868        3.197        0.792      215.819       52.939        0.060      343.095       18.962      866.637
04/07/2014  21:31:00     -116.696      173.494      -22.355       54.677       89.767       39.709     2989.564     8058.169     1576.803        2.842        0.631      209.089       40.323        0.037      343.022       18.838      866.642
04/07/2014  21:32:00      -91.166      283.747      -36.785       90.516      129.757       47.875     8193.106    16836.763     2291.987        5.874        1.366      298.033       55.017        0.034      343.066       18.911      866.655
04/07/2014  21:33:00      -80.953      315.875      -32.807       85.690      111.029       54.655     7342.749    12327.452     2987.205        6.503        1.133      326.084       49.929        0.023      343.025       18.843      866.640
04/07/2014  21:34:00      -89.934      440.986      -47.046      125.350      147.433       65.851    15712.706    21736.383     4336.303       12.327        2.089      450.063       66.554        0.022      343.034       18.856      866.622
04/07/2014  21:35:00      -57.109      499.289      -54.258       79.156      140.155       53.496     6265.713    19643.306     2861.779       14.213        1.439      502.544       55.743        0.012      343.088       18.949      866.626
04/07/2014  21:36:00     -108.257      362.648      -42.970      117.151      187.932       75.149    13724.423    35318.347     5647.356        9.987        2.735      378.461       62.170        0.027      342.990       18.782      866.647
04/07/2014  21:37:00      -63.837      328.161      -35.577       85.241      108.536       56.302     7266.060    11779.997     3169.924        6.762        1.111      334.313       54.422        0.026      342.992       18.785      866.661
04/07/2014  21:38:00     -157.024      103.927      -25.713       69.479      130.275       44.122     4827.355    16971.649     1946.733        2.993        1.187      188.301       49.338        0.069      342.970       18.752      866.658
04/07/2014  21:39:00     -127.790      -20.767       -6.018       71.424       43.136       38.210     5101.370     1860.710     1459.972        1.261        0.421      129.466       38.384        0.088      342.885       18.608      866.664
04/07/2014  21:40:00     -105.323      -64.925       13.139      100.042       69.755       58.714    10008.313     4865.716     3447.311        1.690        0.916      123.726       51.564        0.174      342.811       18.480      866.636
04/07/2014  21:41:00      -95.492       -0.476       -8.322       71.279       67.594       37.342     5080.644     4568.950     1394.401        1.011        0.552       95.493       36.466        0.146      342.883       18.604      866.667
04/07/2014  21:42:00     -114.217      128.636      -29.809       51.323       54.405       32.944     2634.004     2959.912     1085.310        1.858        0.334      172.026       24.519        0.020      342.888       18.611      866.659
04/07/2014  21:43:00      -76.607      144.966      -26.202       78.566      132.816       52.228     6172.594    17640.082     2727.781        2.705        1.327      163.963       50.183        0.094      342.928       18.678      866.659
04/07/2014  21:44:00     -107.610        3.563      -11.170       50.501       50.959       20.218     2550.390     2596.776      408.782        0.864        0.278      107.669       10.610        0.010      342.869       18.582      866.669
04/07/2014  21:45:00      -65.565        0.233       -3.508       41.870       27.058       17.175     1753.105      732.132      294.979        0.355        0.139       65.565       19.616        0.090      342.814       18.487      866.680
04/07/2014  21:46:00     -118.263      -35.457      -29.983       75.779       67.223       38.447     5742.436     4518.960     1478.204        1.394        0.587      123.464       38.301        0.096      342.791       18.447      866.682
04/07/2014  21:47:00     -160.461       27.388      -13.427       83.511       68.743       35.303     6974.004     4725.633     1246.321        1.981        0.647      162.781       36.168        0.049      342.623       18.161      866.688
04/07/2014  21:48:00      -54.186       27.862        9.463       62.346       43.070       31.103     3887.020     1855.021      967.418        0.525        0.335       60.930       31.046        0.260      342.584       18.097      866.692
04/07/2014  21:49:00      -67.190      149.621       -1.888       63.321      113.166       46.997     4009.532    12806.595     2208.759        2.296        0.951      164.015       40.195        0.060      342.667       18.234      866.695
04/07/2014  21:50:00     -184.337      192.222      -35.967      122.909       99.695       64.758    15106.565     9939.121     4193.639        5.073        1.462      266.326       61.860        0.054      342.828       18.508      866.695
04/07/2014  21:51:00     -137.443      225.037      -27.696       93.911       97.348       60.242     8819.183     9476.702     3629.080        4.611        1.096      263.690       45.861        0.030      342.799       18.458      866.688
04/07/2014  21:52:00     -160.391       62.013      -13.019      131.893      141.572       53.163    17395.687    20042.632     2826.263        3.499        2.013      171.962       44.375        0.067      342.786       18.436      866.676
04/07/2014  21:53:00      -66.716      251.439      -17.008       72.868       84.063       51.749     5309.731     7066.571     2677.974        4.150        0.753      260.139       41.386        0.025      342.839       18.525      866.677
04/07/2014  21:54:00      -55.959      158.993      -17.592       50.560       88.744       40.769     2556.327     7875.459     1662.118        2.040        0.605      168.553       42.812        0.065      342.812       18.483      866.662
04/07/2014  21:55:00      -82.896      184.379       -8.077       59.455      145.482       43.870     3534.896    21165.105     1924.552        3.377        1.331      202.157       49.426        0.060      342.690       18.275      866.667
04/07/2014  21:56:00      -99.112       80.030      -18.759       58.792       36.386       32.004     3456.556     1323.937     1024.243        1.119        0.290      127.389       35.058        0.076      342.775       18.420      866.695
04/07/2014  21:57:00      -72.493       86.708      -11.622       39.090       69.368       31.877     1528.023     4811.931     1016.132        1.013        0.368      113.020       28.239        0.062      342.757       18.388      866.704
04/07/2014  21:58:00      -78.262       -3.603       -3.887       49.678       50.656       26.778     2467.946     2566.047      717.057        0.595        0.288       78.345       21.596        0.076      342.688       18.272      866.724
04/07/2014  21:59:00      -49.872       75.428      -13.398       45.196       34.931       25.504     2042.663     1220.164      650.431        0.613        0.196       90.424       25.093        0.077      342.714       18.318      866.724
04/07/2014  22:00:00      -74.511      -18.919       -5.202       21.396       32.003       20.774      457.792     1024.191      431.570        0.392        0.096       76.876       14.816        0.037      342.632       18.177      866.726
04/07/2014  22:01:00      -44.266       -3.213       -4.496       30.693       36.733       22.470      942.087     1349.345      504.895        0.239        0.140       44.383       21.164        0.227      342.625       18.165      866.749
04/07/2014  22:02:00     -107.335      -41.907       -9.053      116.201       49.736       30.634    13502.593     2473.657      938.426        1.513        0.846      115.226       23.287        0.041      342.554       18.044      866.747
04/07/2014  22:03:00     -185.877       12.518      -27.497       45.383       61.472       31.931     2059.656     3778.797     1019.599        2.116        0.343      186.298       16.773        0.008      342.665       18.232      866.743
04/07/2014  22:04:00     -165.799       -9.702      -15.135       58.394       41.325       28.470     3409.832     1707.783      810.551        1.687        0.296      166.082       26.396        0.025      342.548       18.034      866.752
04/07/2014  22:05:00     -115.192       86.888      -21.540       48.967       60.793       35.538     2397.813     3695.828     1262.918        1.432        0.368      144.287       27.269        0.036      342.501       17.954      866.756
04/07/2014  22:06:00     -129.614       82.788      -23.894       65.772       46.541       34.093     4325.919     2166.096     1162.318        1.594        0.383      153.797       36.841        0.057      342.427       17.827      866.751
04/07/2014  22:07:00      -52.986       71.586       -2.496       35.698       31.346       28.020     1274.343      982.573      785.130        0.549        0.152       89.063       21.370        0.058      342.403       17.788      866.749
04/07/2014  22:08:00     -131.417       93.005      -29.843       62.432       59.969       33.041     3897.802     3596.290     1091.732        1.770        0.429      160.998       38.059        0.056      342.450       17.868      866.766
04/07/2014  22:09:00     -119.026       15.821       -7.843       65.374       35.754       35.661     4273.822     1278.325     1271.687        1.065        0.341      120.073       34.780        0.084      342.406       17.794      866.774
04/07/2014  22:10:00      -50.383       31.290       -7.481       46.319       43.369       23.397     2145.478     1880.901      547.412        0.407        0.229       59.309       23.879        0.162      342.286       17.588      866.773
04/07/2014  22:11:00      -44.900       69.011        7.166       81.056       52.784       33.569     6570.084     2786.134     1126.893        0.865        0.524       82.332       38.046        0.214      342.318       17.644      866.767
04/07/2014  22:12:00     -117.356       79.370      -13.737       68.206       73.082       36.610     4652.069     5340.992     1340.320        1.579        0.567      141.676       29.957        0.045      342.407       17.794      866.773
04/07/2014  22:13:00     -144.604        7.679      -19.973       76.688       75.904       34.397     5881.075     5761.457     1183.126        1.709        0.641      144.807       43.170        0.089      342.368       17.727      866.796
04/07/2014  22:14:00     -121.123        4.019      -15.425       42.426       32.143       20.968     1799.971     1033.157      439.667        0.910        0.164      121.190       19.055        0.025      342.342       17.683      866.803
04/07/2014  22:15:00      -37.475       12.811       -6.840       50.815       36.419       23.104     2582.190     1326.314      533.783        0.303        0.222       39.604       25.626        0.419      342.219       17.475      866.822
04/07/2014  22:16:00      -51.333       10.354        1.103       21.094       26.935       18.684      444.959      725.481      349.093        0.213        0.076       52.367       12.854        0.060      342.249       17.526      866.820
04/07/2014  22:17:00     -151.238      -49.375      -15.201       47.755       44.861       25.346     2280.564     2012.486      642.430        1.524        0.247      159.094        8.963        0.003      342.167       17.388      866.839
04/07/2014  22:18:00      -77.798      -22.360        4.608       51.477       40.253       23.785     2649.878     1620.341      565.719        0.570        0.242       80.948       27.690        0.117      341.985       17.079      866.846
04/07/2014  22:19:00     -106.744      -22.830       -5.723       41.966       46.460       24.401     1761.155     2158.567      595.408        0.823        0.226      109.158       25.405        0.054      342.040       17.171      866.869
04/07/2014  22:20:00     -124.911       45.046       -8.089       72.278       38.501       36.591     5224.147     1482.356     1338.897        1.287        0.402      132.785       37.671        0.080      342.111       17.291      866.868
04/07/2014  22:21:00      -90.608       48.362      -13.052       41.023       51.959       31.746     1682.901     2699.789     1007.818        0.805        0.270      102.706       21.367        0.043      342.114       17.298      866.855
04/07/2014  22:22:00        1.114       24.576       33.105       43.512       37.344       23.341     1893.294     1394.567      544.823        0.277        0.192       24.601       23.681        0.927      341.988       17.085      866.852
04/07/2014  22:23:00      -25.744       23.769       14.288       23.570       27.320       23.459      555.544      746.407      550.328        0.164        0.093       35.039       19.434        0.308      341.994       17.093      866.848
04/07/2014  22:24:00      -68.914      -17.297      -20.370       36.094       23.310       17.406     1302.796      543.336      302.983        0.381        0.107       71.051        8.551        0.014      342.143       17.345      866.865
04/07/2014  22:25:00      -41.993      -35.661        4.225       33.515       41.541       26.618     1123.247     1725.679      708.518        0.330        0.178       55.092       21.863        0.157      341.963       17.042      866.868
04/07/2014  22:26:00        9.418      -13.340       22.593       30.174       20.349       15.907      910.494      414.095      253.019        0.118        0.079       16.329       15.690        0.923      341.718       16.625      866.866
04/07/2014  22:27:00        3.563        7.424       10.642       43.848       21.149       20.036     1922.682      447.271      401.440        0.148        0.139        8.234       18.973        5.309      341.680       16.563      866.848
04/07/2014  22:28:00       25.860       -5.930        9.829       18.779       21.319       14.568      352.633      454.517      212.231        0.091        0.051       26.531       11.985        0.204      341.455       16.181      866.843
04/07/2014  22:29:00        6.693        1.374       -4.686       52.024       37.994       23.749     2706.532     1443.526      564.036        0.239        0.236        6.833       23.013       11.344      341.525       16.297      866.840
04/07/2014  22:30:00      -69.235        3.365       -4.413       23.067       41.364       16.544      532.075     1710.955      273.706        0.367        0.126       69.317       10.351        0.022      342.123       17.312      866.841
04/07/2014  22:31:00      -45.552      -19.769       -0.299       33.861       39.589       25.653     1146.551     1567.319      658.092        0.292        0.169       49.657       15.145        0.093      341.862       16.870      866.841
04/07/2014  22:32:00      -81.498      -53.555        1.013       47.124       37.367       17.551     2220.715     1396.301      308.046        0.672        0.196       97.519       15.630        0.026      341.824       16.804      866.827
04/07/2014  22:33:00      -58.517      -28.148       12.925       57.579       31.338       21.653     3315.374      982.054      468.838        0.457        0.238       64.935       20.034        0.095      341.819       16.797      866.810
04/07/2014  22:34:00      -77.771      -12.835       -2.564       39.612       21.391       13.381     1569.112      457.588      179.047        0.421        0.110       78.823       15.648        0.039      341.877       16.894      866.798
04/07/2014  22:35:00     -120.513      -35.058      -10.327       35.370       24.559       17.673     1251.025      603.145      312.347        0.901        0.108      125.509       15.648        0.016      341.845       16.841      866.793
04/07/2014  22:36:00      -58.931      -47.053        6.397       42.386       24.338       24.240     1796.596      592.346      587.602        0.435        0.149       75.411       23.193        0.095      341.665       16.536      866.799
04/07/2014  22:37:00      -52.202      -26.956        6.271       54.099       28.026       18.061     2926.705      785.463      326.199        0.376        0.202       58.751       20.590        0.123      341.622       16.463      866.787
04/07/2014  22:38:00       55.283      -45.933        2.301       40.111       23.904       23.310     1608.883      571.393      543.333        0.395        0.136       71.875       19.377        0.073      341.460       16.189      866.769
04/07/2014  22:39:00      -16.586       30.655        3.584       44.063       28.829       15.315     1941.552      831.091      234.562        0.212        0.150       34.855       19.038        0.298      341.557       16.354      866.764
04/07/2014  22:40:00       -9.591      -11.141        8.798       24.487       16.045       11.681      599.610      257.455      136.444        0.064        0.050       14.701       10.915        0.551      341.898       16.932      866.759
04/07/2014  22:41:00       13.793      -42.010       19.474       39.969       25.265       19.239     1597.539      638.320      370.146        0.247        0.130       44.217       12.167        0.076      341.434       16.145      866.741
04/07/2014  22:42:00     -134.380      -56.877       -6.694       51.695       32.358       16.134     2672.381     1047.072      260.304        1.266        0.199      145.921       21.091        0.021      341.894       16.922      866.745
04/07/2014  22:43:00     -116.262      -25.974       -0.207       59.575       36.214       28.181     3549.229     1311.456      794.170        0.992        0.283      119.128       26.837        0.051      341.707       16.607      866.763
04/07/2014  22:44:00       10.005      -44.685        3.394       60.195       55.291       29.572     3623.402     3057.123      874.491        0.483        0.378       45.791       35.703        0.608      341.338       15.981      866.747
04/07/2014  22:45:00       19.388     -109.004       15.767       60.831       52.064       46.882     3700.412     2710.665     2197.930        1.056        0.430      110.714       15.170        0.019      341.737       16.658      866.733
04/07/2014  22:46:00      -24.917      -65.514       10.292       40.343       83.338       25.512     1627.556     6945.179      650.857        0.712        0.461       70.092       24.478        0.122      341.874       16.890      866.741
04/07/2014  22:47:00      -18.566        6.861       -3.220       38.171       26.335       18.500     1457.059      693.544      342.237        0.145        0.125       19.793        7.849        0.157      341.547       16.336      866.756
04/07/2014  22:48:00      -84.368       -4.843       -8.224       34.357       33.815       19.233     1180.380     1143.460      369.917        0.495        0.135       84.507       19.718        0.054      341.744       16.669      866.774
04/07/2014  22:49:00      -33.323      -53.199        0.907       32.747       32.030       21.893     1072.398     1025.950      479.306        0.326        0.129       62.774       14.654        0.054      341.688       16.574      866.769
04/07/2014  22:50:00      -36.002     -136.531       -0.888       25.654       44.002       17.706      658.111     1936.168      313.513        1.142        0.145      141.198       17.003        0.015      341.753       16.685      866.769
04/07/2014  22:51:00      -73.504     -133.681       -9.610       38.469       43.447       24.222     1479.858     1887.679      586.708        1.366        0.198      152.556       20.638        0.018      341.935       16.992      866.770
04/07/2014  22:52:00      -39.842      -40.287        6.492       34.952       48.350       20.040     1221.631     2337.707      401.599        0.361        0.198       56.661       16.543        0.085      341.831       16.817      866.773
04/07/2014  22:53:00       -5.924      -14.724       11.136       32.716       26.281       21.657     1070.361      690.670      469.039        0.130        0.112       15.872       19.974        1.584      341.561       16.362      866.768
04/07/2014  22:54:00      -54.472      -52.387        9.483       46.394       39.127       26.832     2152.369     1530.909      719.965        0.510        0.220       75.575       33.595        0.198      341.895       16.925      866.777
04/07/2014  22:55:00      -41.784      -28.810        5.564       38.137       25.387       22.306     1454.465      644.511      497.574        0.260        0.130       50.754       22.689        0.200      341.718       16.626      866.796
04/07/2014  22:56:00      -28.221      -21.179        2.615       44.968       28.431       17.591     2022.132      808.302      309.453        0.220        0.157       35.284       18.935        0.288      341.660       16.527      866.792
04/07/2014  22:57:00      -43.489      -43.314        4.649       33.696       29.639       18.959     1135.454      878.452      359.454        0.308        0.119       61.379       18.945        0.095      341.626       16.471      866.786
04/07/2014  22:58:00      -49.733      -43.807        6.194       48.144       20.236       19.162     2317.888      409.480      367.179        0.376        0.155       66.275       25.849        0.152      341.581       16.391      866.786
04/07/2014  22:59:00      -28.974      -32.572        3.915       29.806       25.688       18.444      888.380      659.866      340.174        0.190        0.094       43.594       18.898        0.188      341.441       16.156      866.791
04/07/2014  23:00:00      -23.249      -26.113        2.988       27.243       20.489       12.381      742.163      419.787      153.299        0.127        0.066       34.963        9.080        0.067      341.403       16.091      866.796
04/07/2014  23:01:00      -19.215      -21.394       13.084       36.669       25.003       16.084     1344.623      625.160      258.695        0.161        0.111       28.756       21.261        0.547      341.315       15.943      866.800
04/07/2014  23:02:00      -45.692     -115.750       -1.405       33.250       53.669       18.257     1105.543     2880.332      333.305        0.990        0.216      124.442       21.566        0.030      341.278       15.880      866.802
04/07/2014  23:03:00      -82.185      -85.372       -8.265       40.719       37.103       23.787     1658.038     1376.600      565.823        0.886        0.180      118.502       13.690        0.013      341.225       15.791      866.823
04/07/2014  23:04:00      -86.418      -66.592       -4.622       37.339       31.196       21.029     1394.175      973.215      442.233        0.737        0.140      109.099       23.452        0.046      341.183       15.718      866.841
04/07/2014  23:05:00      -77.644      -71.527        3.479       40.497       22.276       23.819     1640.041      496.224      567.352        0.693        0.135      105.568       12.209        0.013      341.135       15.637      866.849
04/07/2014  23:06:00      -53.563      -65.194        1.607       33.064       38.649       23.409     1093.198     1493.727      547.965        0.513        0.157       84.375       16.545        0.038      341.132       15.631      866.837
04/07/2014  23:07:00      -18.002      -60.634       10.536       44.460       43.535       27.096     1976.685     1895.302      734.215        0.436        0.230       63.250       33.543        0.281      341.085       15.552      866.855
04/07/2014  23:08:00        2.047      -38.799        0.937       35.662       25.090       20.818     1271.748      629.529      433.375        0.192        0.117       38.853       16.118        0.172      341.073       15.533      866.863
04/07/2014  23:09:00      -26.653      -24.903       16.654       47.871       31.610       21.920     2291.599      999.163      480.470        0.269        0.189       36.476       24.263        0.442      340.883       15.211      866.864
04/07/2014  23:10:00      -26.425      -48.478        5.091       36.280       30.261       19.208     1316.254      915.712      368.935        0.284        0.130       55.212       18.481        0.112      340.959       15.340      866.854
04/07/2014  23:11:00      -33.267      -35.114        8.364       35.787       39.593       23.678     1280.733     1567.614      560.636        0.291        0.170       48.371       25.320        0.274      340.916       15.267      866.857
04/07/2014  23:12:00      -56.103      -27.324        3.465       46.817       30.056       19.931     2191.819      903.386      397.244        0.370        0.175       62.403       15.319        0.060      340.882       15.210      866.867
04/07/2014  23:13:00      -95.718      -53.938       -6.440       36.103       24.462       15.455     1303.459      598.396      238.847        0.713        0.107      109.870       14.626        0.018      340.885       15.212      866.875
04/07/2014  23:14:00      -81.278      -40.895       -2.738       31.141       25.000       12.260      969.769      625.012      150.300        0.502        0.087       90.986        6.746        0.005      340.920       15.273      866.878
04/07/2014  23:15:00      -38.639      -22.949        0.690       27.094       22.851       12.488      734.067      522.189      155.947        0.172        0.071       44.940       13.167        0.086      340.764       15.010      866.882
04/07/2014  23:16:00      -43.403      -31.288        3.853       52.287       23.615       15.146     2733.898      557.650      229.411        0.320        0.176       53.505       20.775        0.151      340.700       14.901      866.895
04/07/2014  23:17:00      -65.635      -12.692       -3.030       27.131       16.340       14.371      736.105      267.010      206.517        0.284        0.060       66.851       10.562        0.025      340.662       14.838      866.913
04/07/2014  23:18:00      -27.371      -51.403       -3.069       35.772       23.528       13.914     1279.651      553.559      193.594        0.271        0.101       58.236        8.869        0.023      340.737       14.964      866.917
04/07/2014  23:19:00      -95.037      -51.876       -4.031       20.031       23.733       15.341      401.227      563.262      235.345        0.647        0.060      108.274       12.320        0.013      340.731       14.955      866.921
04/07/2014  23:20:00      -65.866      -30.756       -1.334       34.589       18.839       14.856     1196.393      354.907      220.714        0.353        0.089       72.693       16.704        0.053      340.715       14.929      866.923
04/07/2014  23:21:00      -60.615      -85.409       -1.102       36.557       34.663       20.294     1336.414     1201.542      411.851        0.696        0.147      104.732       14.881        0.020      340.680       14.867      866.935
04/07/2014  23:22:00      -55.985      -75.629       -4.217       44.122       45.901       25.047     1946.731     2106.870      627.377        0.678        0.234       94.096       19.155        0.041      340.689       14.881      866.946
04/07/2014  23:23:00     -110.109      -44.221       -2.371       42.864       22.696       21.361     1837.285      515.091      456.301        0.845        0.140      118.657       20.432        0.030      340.620       14.767      866.954
04/07/2014  23:24:00      -63.820      -36.354       -0.535       34.162       26.714       17.436     1167.056      713.638      304.025        0.379        0.109       73.448       11.457        0.024      340.588       14.712      866.956
04/07/2014  23:25:00      -91.765       10.666       -4.935       28.408       31.584       14.799      806.995      997.535      218.998        0.529        0.101       92.383       14.449        0.024      340.495       14.556      866.964
04/07/2014  23:26:00      -77.776       25.200       -6.024       30.549       30.797       19.017      933.242      948.447      361.643        0.448        0.112       81.757       17.243        0.044      340.300       14.227      866.981
04/07/2014  23:27:00      -77.830      -15.877       -1.762       26.319       26.682       15.606      692.689      711.933      243.534        0.398        0.082       79.433       13.873        0.031      340.289       14.205      866.986
04/07/2014  23:28:00      -74.140      -15.543       -0.326       34.394       30.267       15.838     1182.969      916.115      250.838        0.404        0.117       75.752       12.420        0.027      340.175       14.013      866.991
04/07/2014  23:29:00     -132.703      -63.264        1.587       36.697       28.089       19.482     1346.637      789.017      379.566        1.206        0.126      147.011       15.592        0.011      340.172       14.010      867.004
04/07/2014  23:30:00      -78.016      -37.539        8.968       55.950       33.732       24.877     3130.359     1137.853      618.848        0.623        0.244       86.578       28.851        0.111      340.228       14.103      867.014
04/07/2014  23:31:00     -112.705      -21.567        0.662       45.500       33.028       23.128     2070.252     1090.825      534.920        0.843        0.185      114.750       24.675        0.046      340.319       14.257      867.024
04/07/2014  23:32:00     -118.257      -28.015       -4.168       53.124       30.066       19.322     2822.172      903.945      373.357        0.944        0.205      121.530       19.374        0.025      340.335       14.284      867.039
04/07/2014  23:33:00     -116.154      -37.925       -3.649       27.032       26.490       15.808      730.732      701.742      249.890        0.831        0.084      122.188       12.648        0.011      340.292       14.212      867.054
04/07/2014  23:34:00      -96.158      -30.758       -3.579       45.320       36.650       21.544     2053.900     1343.217      464.149        0.703        0.193      100.957       23.612        0.055      340.309       14.241      867.058
04/07/2014  23:35:00     -110.828      -74.742       -3.755       44.330       33.345       19.376     1965.109     1111.922      375.437        1.067        0.173      133.676       21.819        0.027      340.220       14.089      867.061
04/07/2014  23:36:00     -136.119      -59.733       -2.162       39.876       24.306       15.813     1590.077      590.779      250.064        1.227        0.122      148.648       13.762        0.009      340.219       14.088      867.064
04/07/2014  23:37:00     -120.999      -66.811       -3.545       42.198       26.222       23.271     1780.695      687.571      541.526        1.106        0.150      138.219       22.067        0.025      340.241       14.125      867.078
04/07/2014  23:38:00     -151.582      -47.199      -10.112       27.216       26.859       18.737      740.729      721.402      351.071        1.356        0.091      158.760       17.376        0.012      340.298       14.223      867.071
04/07/2014  23:39:00     -113.794      -53.856       -0.692       33.713       20.743       17.751     1136.576      430.262      315.113        0.887        0.094      125.895       15.865        0.016      340.371       14.345      867.066
04/07/2014  23:40:00     -115.118      -61.845        0.886       47.223       31.611       20.111     2230.015      999.280      404.435        1.036        0.182      130.679       20.797        0.025      340.335       14.286      867.072
04/07/2014  23:41:00     -111.057      -64.626       -0.946       31.758       27.176       21.743     1008.580      738.533      472.739        0.937        0.111      128.492       17.365        0.018      340.272       14.177      867.065
04/07/2014  23:42:00      -99.670      -47.800       -2.689       38.334       18.431       14.596     1469.482      339.705      213.029        0.712        0.101      110.539       12.734        0.013      340.259       14.156      867.058
04/07/2014  23:43:00     -110.804      -26.877       -1.914       26.228       42.130       17.439      687.914     1774.908      304.111        0.788        0.138      114.017       15.251        0.018      340.192       14.042      867.068
04/07/2014  23:44:00     -127.485      -21.904       -3.950       33.204       34.403       22.406     1102.497     1183.538      502.039        0.977        0.139      129.353       21.413        0.027      340.104       13.895      867.067
04/07/2014  23:45:00     -107.766      -21.139       -3.194       36.293       33.199       17.144     1317.156     1102.149      293.911        0.739        0.136      109.819        7.257        0.004      340.073       13.842      867.058
04/07/2014  23:46:00     -115.784      -17.459      -12.873       33.219       27.964       18.503     1103.501      781.981      342.353        0.805        0.111      117.093       19.484        0.028      340.047       13.799      867.075
04/07/2014  23:47:00     -118.363       -4.296       -6.834       35.626       30.481       18.332     1269.205      929.089      336.065        0.830        0.127      118.441       18.708        0.025      340.129       13.938      867.081
04/07/2014  23:48:00     -114.561      -41.388       -7.002       27.746       25.146       17.224      769.819      632.311      296.669        0.829        0.085      121.807       16.602        0.019      340.049       13.801      867.084
04/07/2014  23:49:00     -132.697      -34.922      -10.539       16.990       20.224       15.763      288.659      409.014      248.462        0.994        0.047      137.215       10.669        0.006      339.995       13.711      867.101
04/07/2014  23:50:00     -127.838      -57.819       -7.618       26.010       21.638       14.581      676.511      468.196      212.618        1.055        0.068      140.305        4.187        0.001      340.000       13.719      867.109
04/07/2014  23:51:00     -127.681      -47.093      -11.220       14.156       16.602        8.762      200.395      275.629       76.767        0.960        0.028      136.089        7.010        0.003      340.034       13.776      867.109
04/07/2014  23:52:00     -136.610      -30.815       -9.252       14.152       15.046       15.922      200.290      226.396      253.496        1.019        0.034      140.042       10.417        0.006      340.055       13.812      867.099
04/07/2014  23:53:00     -130.402      -38.250       -6.761       11.800        8.284        8.244      139.240       68.621       67.963        0.939        0.014      135.896        5.188        0.001      339.972       13.673      867.106
04/07/2014  23:54:00     -105.535      -32.928       -6.357       20.334       28.233       14.555      413.458      797.102      211.838        0.684        0.071      110.552       12.614        0.013      339.999       13.717      867.108
04/07/2014  23:55:00     -134.239      -31.286       -7.954       16.372       19.480       10.741      268.035      379.458      115.380        0.991        0.038      137.837        6.642        0.002      339.977       13.679      867.103
04/07/2014  23:56:00     -114.895      -37.235       -9.407       15.861       19.223       13.369      251.566      369.535      178.725        0.774        0.040      120.777        9.347        0.006      339.937       13.612      867.102
04/07/2014  23:57:00     -130.169      -29.996      -12.051       19.018       16.777       15.038      361.699      281.464      226.131        0.943        0.043      133.581        9.770        0.005      339.905       13.558      867.111
04/07/2014  23:58:00     -118.570      -51.128       -5.065       23.440       24.520       13.475      549.423      601.230      181.586        0.902        0.067      129.124       10.425        0.007      339.838       13.446      867.117
04/07/2014  23:59:00      -94.308      -42.829       -1.572       30.495       21.749       15.121      929.935      473.026      228.646        0.618        0.082      103.578       14.959        0.021      339.818       13.412      867.115
